[[{"header":{"parameterUnit":"m.s-1","parameterCategory":1,"la1":30.6,"la2":29.2853,"lo1":-89.7004,"lo2":-87.6739,"dy":0.0162,"dx":0.0183,"nx":112,"ny":82,"refTime":"2024-03-10T12:00:00:Z","depth":0,"parameterNumber":2,"parameterNumberName":"U-component_of_WINDS"},"data":[0.0,0.0,0.0,0.0,0.0,0.0,0.0,0.0,0.0,0.0,0.0,0.0,0.0,0.0,0.0,0.0,0.0,0.0,0.0,0.0,0.0,0.0,0.0,0.0,0.0,0.0,0.0,0.0,0.0,0.0,0.0,0.0,0.0,0.0,0.0,0.0,0.0,0.0,0.0,0.0,0.0,0.0,0.0,0.0,0.0,0.0,0.0,0.0,0.0,0.0,0.0,0.0,0.0,0.0,0.0,0.0,0.0,0.0,0.0,0.0,0.0,0.0,0.0,0.0,0.0,0.0,0.0,0.0,0.0,0.0,0.0,0.0,0.0,0.0,0.0,0.0,0.0,0.0,0.0,0.0,0.0,0.0,0.0,0.0,0.0,0.0,0.0,0.0,0.0,0.0,-4.9316,-5.5681,-5.898,-6.0671,-6.0671,-6.0757,-5.7896,-5.1135,0.0,0.0,0.0,0.0,0.0,0.0,0.0,0.0,0.0,0.0,0.0,0.0,0.0,0.0,0.0,0.0,0.0,0.0,0.0,0.0,0.0,0.0,0.0,0.0,0.0,0.0,0.0,0.0,0.0,0.0,0.0,0.0,0.0,0.0,0.0,0.0,0.0,0.0,0.0,0.0,0.0,0.0,0.0,0.0,0.0,0.0,0.0,0.0,0.0,0.0,0.0,0.0,0.0,0.0,0.0,0.0,0.0,0.0,0.0,0.0,0.0,0.0,0.0,0.0,0.0,0.0,0.0,0.0,0.0,0.0,0.0,0.0,0.0,0.0,0.0,0.0,0.0,0.0,0.0,0.0,0.0,0.0,0.0,0.0,0.0,0.0,0.0,0.0,0.0,0.0,0.0,0.0,0.0,0.0,0.0,0.0,0.0,0.0,0.0,0.0,0.0,0.0,0.0,0.0,-5.2428,-5.8765,-5.9883,-6.0189,-6.0189,-6.0585,-5.7896,-5.1135,0.0,0.0,0.0,0.0,0.0,0.0,0.0,0.0,0.0,0.0,0.0,0.0,0.0,0.0,0.0,0.0,0.0,0.0,0.0,0.0,0.0,0.0,0.0,0.0,0.0,0.0,0.0,0.0,0.0,0.0,0.0,0.0,0.0,0.0,0.0,0.0,0.0,0.0,0.0,0.0,0.0,0.0,0.0,0.0,0.0,0.0,0.0,0.0,0.0,0.0,0.0,0.0,0.0,0.0,0.0,0.0,0.0,0.0,0.0,0.0,0.0,0.0,0.0,0.0,0.0,0.0,0.0,0.0,0.0,0.0,0.0,0.0,0.0,0.0,0.0,0.0,0.0,0.0,0.0,0.0,0.0,0.0,0.0,0.0,0.0,0.0,0.0,0.0,0.0,0.0,0.0,0.0,0.0,0.0,0.0,0.0,0.0,0.0,0.0,0.0,0.0,0.0,0.0,-5.1391,-5.6443,-5.907,-5.9559,-5.9823,-6.0089,-6.0311,-5.7632,-5.1125,-5.0712,0.0,0.0,0.0,0.0,0.0,0.0,0.0,0.0,0.0,0.0,0.0,0.0,0.0,0.0,0.0,0.0,0.0,0.0,0.0,0.0,0.0,0.0,0.0,0.0,0.0,0.0,0.0,0.0,0.0,0.0,0.0,0.0,0.0,0.0,0.0,0.0,0.0,0.0,0.0,0.0,0.0,0.0,0.0,0.0,0.0,0.0,0.0,0.0,0.0,0.0,0.0,0.0,0.0,0.0,0.0,0.0,0.0,0.0,0.0,0.0,0.0,0.0,0.0,0.0,0.0,0.0,0.0,0.0,0.0,0.0,0.0,0.0,0.0,0.0,0.0,0.0,0.0,0.0,0.0,0.0,0.0,0.0,0.0,0.0,0.0,0.0,0.0,0.0,0.0,0.0,0.0,0.0,0.0,0.0,0.0,0.0,0.0,0.0,0.0,0.0,0.0,0.0,-5.4815,-5.8147,-5.8641,-5.9028,-5.9372,-5.976,-5.987,-5.7257,-5.0916,-5.0322,0.0,0.0,0.0,0.0,0.0,0.0,0.0,0.0,0.0,0.0,0.0,0.0,0.0,0.0,0.0,0.0,0.0,0.0,0.0,0.0,0.0,0.0,0.0,0.0,0.0,0.0,0.0,0.0,0.0,0.0,0.0,0.0,0.0,0.0,0.0,0.0,0.0,0.0,0.0,0.0,0.0,0.0,0.0,0.0,0.0,0.0,0.0,0.0,0.0,0.0,0.0,0.0,0.0,0.0,0.0,0.0,0.0,0.0,0.0,0.0,0.0,0.0,0.0,0.0,0.0,0.0,0.0,0.0,0.0,0.0,0.0,0.0,0.0,0.0,0.0,0.0,0.0,0.0,0.0,0.0,0.0,0.0,0.0,0.0,0.0,0.0,0.0,0.0,0.0,0.0,0.0,0.0,0.0,0.0,0.0,0.0,0.0,0.0,0.0,0.0,0.0,0.0,-5.2151,-5.4937,-5.8337,-5.8716,-5.8756,-5.8796,-5.9194,-5.6737,-5.0469,-4.9288,0.0,0.0,0.0,0.0,0.0,0.0,0.0,0.0,0.0,0.0,0.0,0.0,0.0,0.0,0.0,0.0,0.0,0.0,0.0,0.0,0.0,0.0,0.0,0.0,0.0,0.0,0.0,0.0,0.0,0.0,0.0,0.0,0.0,0.0,0.0,0.0,0.0,0.0,0.0,0.0,0.0,0.0,0.0,0.0,0.0,0.0,0.0,0.0,0.0,0.0,0.0,0.0,0.0,0.0,0.0,0.0,0.0,0.0,0.0,0.0,0.0,0.0,0.0,0.0,0.0,0.0,0.0,0.0,0.0,0.0,0.0,0.0,0.0,0.0,0.0,0.0,0.0,0.0,0.0,0.0,0.0,0.0,0.0,0.0,0.0,0.0,0.0,0.0,0.0,0.0,0.0,0.0,0.0,0.0,0.0,0.0,0.0,0.0,0.0,0.0,0.0,0.0,-5.3287,-5.6728,-5.8128,-5.826,-5.8375,-5.8693,-5.8855,-5.6148,-4.9594,0.0,0.0,0.0,0.0,0.0,0.0,0.0,0.0,0.0,0.0,0.0,0.0,0.0,0.0,0.0,0.0,0.0,0.0,0.0,0.0,0.0,0.0,0.0,0.0,0.0,0.0,0.0,0.0,0.0,0.0,0.0,0.0,0.0,0.0,0.0,0.0,0.0,0.0,0.0,0.0,0.0,0.0,0.0,0.0,0.0,0.0,0.0,0.0,0.0,0.0,0.0,0.0,0.0,0.0,0.0,0.0,0.0,0.0,0.0,0.0,0.0,0.0,0.0,0.0,0.0,0.0,0.0,0.0,0.0,0.0,0.0,0.0,0.0,0.0,0.0,0.0,0.0,0.0,0.0,0.0,0.0,0.0,0.0,0.0,0.0,0.0,0.0,0.0,0.0,0.0,0.0,0.0,0.0,0.0,0.0,0.0,0.0,0.0,0.0,0.0,0.0,0.0,-4.885,-5.4174,-5.7997,-5.7997,-5.7997,-5.8142,-5.8461,-5.8482,-5.5585,-4.8791,0.0,0.0,0.0,0.0,0.0,0.0,0.0,0.0,0.0,0.0,0.0,0.0,0.0,0.0,0.0,0.0,0.0,0.0,0.0,0.0,0.0,0.0,0.0,0.0,0.0,0.0,0.0,0.0,0.0,0.0,0.0,0.0,0.0,0.0,0.0,0.0,0.0,0.0,0.0,0.0,0.0,0.0,0.0,0.0,0.0,0.0,0.0,0.0,0.0,0.0,0.0,0.0,0.0,0.0,0.0,0.0,0.0,0.0,0.0,0.0,0.0,0.0,0.0,0.0,0.0,0.0,0.0,0.0,0.0,0.0,0.0,0.0,0.0,0.0,0.0,0.0,0.0,0.0,0.0,0.0,0.0,0.0,0.0,0.0,0.0,0.0,0.0,0.0,0.0,0.0,0.0,0.0,0.0,0.0,0.0,0.0,0.0,0.0,0.0,0.0,0.0,0.0,-4.8813,-5.4174,-5.7997,-5.7997,-5.7997,-5.7997,-5.7997,-5.7997,-5.5012,0.0,0.0,0.0,0.0,0.0,0.0,0.0,0.0,0.0,0.0,0.0,0.0,0.0,0.0,0.0,0.0,0.0,0.0,0.0,0.0,0.0,0.0,0.0,0.0,0.0,0.0,0.0,0.0,0.0,0.0,0.0,0.0,0.0,0.0,0.0,0.0,0.0,0.0,0.0,0.0,0.0,0.0,0.0,0.0,0.0,0.0,0.0,0.0,0.0,0.0,0.0,0.0,0.0,0.0,0.0,0.0,0.0,0.0,0.0,0.0,0.0,0.0,0.0,0.0,0.0,0.0,0.0,0.0,0.0,0.0,0.0,0.0,0.0,0.0,0.0,0.0,0.0,0.0,0.0,0.0,0.0,0.0,0.0,0.0,0.0,0.0,0.0,0.0,0.0,0.0,0.0,0.0,0.0,0.0,0.0,0.0,0.0,0.0,0.0,0.0,0.0,0.0,0.0,-4.7647,-5.3692,-5.7997,-5.7997,-5.7997,-5.7997,-5.7997,-5.7997,-5.4733,-4.7168,0.0,0.0,0.0,0.0,0.0,0.0,0.0,0.0,0.0,0.0,0.0,0.0,0.0,0.0,0.0,0.0,0.0,0.0,0.0,0.0,0.0,0.0,0.0,0.0,0.0,0.0,0.0,0.0,0.0,0.0,0.0,0.0,0.0,0.0,0.0,0.0,0.0,0.0,0.0,0.0,0.0,0.0,0.0,0.0,0.0,0.0,0.0,0.0,0.0,0.0,0.0,0.0,0.0,0.0,0.0,0.0,0.0,0.0,0.0,0.0,0.0,0.0,0.0,0.0,0.0,0.0,0.0,0.0,0.0,0.0,0.0,0.0,0.0,0.0,0.0,0.0,0.0,0.0,0.0,0.0,0.0,0.0,0.0,0.0,0.0,0.0,0.0,0.0,0.0,0.0,0.0,0.0,0.0,0.0,0.0,0.0,0.0,0.0,0.0,0.0,0.0,0.0,-4.7132,-5.3482,-5.7997,-5.7997,-5.7997,-5.7997,-5.7997,-5.7997,-5.5294,-4.8975,0.0,0.0,0.0,0.0,0.0,0.0,0.0,0.0,0.0,0.0,0.0,0.0,0.0,0.0,0.0,0.0,0.0,0.0,0.0,0.0,0.0,0.0,0.0,0.0,0.0,0.0,0.0,0.0,0.0,0.0,0.0,0.0,0.0,0.0,0.0,0.0,0.0,0.0,0.0,0.0,0.0,0.0,0.0,0.0,0.0,0.0,0.0,0.0,0.0,0.0,0.0,0.0,0.0,0.0,0.0,0.0,0.0,0.0,0.0,0.0,0.0,0.0,0.0,0.0,0.0,0.0,0.0,0.0,0.0,0.0,0.0,0.0,0.0,0.0,0.0,0.0,0.0,0.0,0.0,0.0,0.0,0.0,0.0,0.0,0.0,0.0,0.0,0.0,0.0,0.0,0.0,0.0,0.0,0.0,0.0,0.0,0.0,0.0,0.0,0.0,0.0,0.0,-4.7022,-5.3445,-5.7997,-5.7997,-5.7997,-5.7997,-5.7997,-5.7997,-5.6271,-5.2234,0.0,0.0,0.0,0.0,0.0,0.0,0.0,0.0,0.0,0.0,0.0,0.0,0.0,0.0,0.0,0.0,0.0,0.0,0.0,0.0,0.0,0.0,0.0,0.0,0.0,0.0,0.0,0.0,0.0,0.0,0.0,0.0,0.0,0.0,0.0,0.0,0.0,0.0,0.0,0.0,0.0,0.0,0.0,0.0,0.0,0.0,0.0,0.0,0.0,0.0,0.0,0.0,0.0,0.0,0.0,0.0,0.0,0.0,0.0,0.0,-5.2087,-4.8779,0.0,0.0,0.0,0.0,0.0,0.0,0.0,0.0,0.0,0.0,0.0,0.0,0.0,0.0,0.0,0.0,0.0,0.0,0.0,0.0,0.0,0.0,0.0,0.0,0.0,0.0,0.0,0.0,0.0,0.0,0.0,0.0,0.0,0.0,0.0,0.0,0.0,0.0,0.0,0.0,-4.6195,-5.3078,-5.7997,-5.7997,-5.7997,-5.7997,-5.7997,-5.7997,-5.6271,-5.2234,-5.125,0.0,0.0,0.0,0.0,0.0,0.0,0.0,0.0,0.0,0.0,0.0,0.0,0.0,0.0,0.0,0.0,0.0,0.0,0.0,0.0,0.0,0.0,0.0,0.0,0.0,0.0,0.0,0.0,0.0,0.0,0.0,0.0,0.0,0.0,0.0,0.0,0.0,0.0,0.0,0.0,0.0,0.0,0.0,0.0,0.0,0.0,0.0,0.0,0.0,0.0,0.0,0.0,0.0,0.0,0.0,0.0,0.0,0.0,0.0,-5.3126,-5.1741,0.0,0.0,0.0,0.0,0.0,0.0,0.0,0.0,0.0,0.0,0.0,0.0,0.0,0.0,0.0,0.0,0.0,0.0,0.0,0.0,0.0,0.0,0.0,0.0,0.0,0.0,0.0,0.0,0.0,0.0,0.0,0.0,0.0,0.0,0.0,0.0,0.0,0.0,0.0,0.0,-4.5883,-5.2968,-5.7997,-5.7997,-5.7997,-5.7997,-5.7997,-5.7997,-5.7116,-5.5023,-5.3078,0.0,0.0,0.0,0.0,0.0,0.0,0.0,0.0,0.0,0.0,0.0,0.0,0.0,0.0,0.0,0.0,0.0,0.0,0.0,0.0,0.0,0.0,0.0,0.0,0.0,0.0,0.0,0.0,0.0,0.0,0.0,0.0,0.0,0.0,0.0,0.0,0.0,0.0,0.0,0.0,0.0,0.0,0.0,0.0,0.0,0.0,0.0,0.0,0.0,0.0,0.0,0.0,0.0,-5.4318,-5.4511,-5.4511,-5.378,-5.3462,-5.3538,-5.5049,-5.5703,-5.5472,-5.2713,0.0,0.0,0.0,0.0,0.0,0.0,0.0,0.0,0.0,0.0,0.0,0.0,0.0,0.0,0.0,0.0,0.0,0.0,0.0,0.0,0.0,0.0,-4.7028,-4.9448,-4.9554,-4.9375,-5.0213,0.0,0.0,0.0,0.0,0.0,0.0,0.0,0.0,0.0,0.0,0.0,-4.5883,-5.2968,-5.7997,-5.7997,-5.7997,-5.7997,-5.7997,-5.7997,-5.7997,-5.7997,-5.4876,-5.2711,0.0,0.0,0.0,0.0,0.0,0.0,0.0,0.0,0.0,0.0,0.0,0.0,0.0,0.0,0.0,0.0,0.0,0.0,0.0,0.0,0.0,0.0,0.0,0.0,0.0,0.0,0.0,0.0,0.0,0.0,0.0,0.0,-5.0962,-5.3387,0.0,0.0,0.0,0.0,0.0,0.0,0.0,0.0,0.0,0.0,0.0,0.0,0.0,-5.2702,-5.2702,-5.5241,-5.6522,-5.6522,-5.8742,-5.9781,-5.9781,-5.9665,-5.9627,-5.9473,-5.6819,0.0,-5.5665,-5.5203,0.0,0.0,0.0,0.0,0.0,0.0,0.0,0.0,0.0,0.0,0.0,0.0,0.0,0.0,0.0,0.0,0.0,0.0,0.0,0.0,0.0,0.0,-5.6265,-5.6624,-5.4583,-5.3335,-5.6154,-4.9816,-4.4154,-4.6104,-4.4104,-4.1515,0.0,0.0,0.0,0.0,0.0,0.0,-4.5883,-5.2968,-5.7997,-5.7997,-5.7997,-5.7997,-5.7997,-5.7997,-5.7997,-5.7997,-5.7483,-5.5647,-5.2123,-5.5354,0.0,0.0,0.0,0.0,0.0,0.0,0.0,0.0,0.0,0.0,0.0,0.0,0.0,0.0,0.0,0.0,0.0,0.0,0.0,0.0,0.0,0.0,0.0,0.0,0.0,0.0,0.0,0.0,0.0,-5.1109,-5.2704,-5.4345,-5.4036,-5.2658,0.0,0.0,0.0,0.0,0.0,0.0,0.0,0.0,0.0,-5.3164,-5.4587,-5.5318,-5.5318,-5.7857,-5.9138,-5.9127,-6.0281,-6.0781,-6.0781,-6.0781,-6.0781,-6.0704,-5.9204,-5.855,-5.8434,-5.6472,-5.5703,-5.5395,0.0,0.0,0.0,0.0,-4.7172,-4.8414,-4.8147,-5.0097,-5.2686,-5.2466,0.0,0.0,0.0,0.0,0.0,0.0,0.0,-4.8329,-5.0512,-5.3188,-5.5757,-5.7556,-5.6932,-5.6271,-5.7703,-5.3225,-4.915,-4.9738,-4.7241,-4.3901,-4.0487,-4.1772,0.0,0.0,0.0,-4.9334,-4.9334,-5.4399,-5.7997,-5.7997,-5.7997,-5.7997,-5.7997,-5.7997,-5.7997,-5.7997,-5.7997,-5.7189,-5.5427,-5.7042,-5.528,0.0,0.0,0.0,0.0,0.0,0.0,0.0,0.0,0.0,0.0,0.0,0.0,0.0,0.0,0.0,0.0,0.0,0.0,0.0,0.0,0.0,0.0,0.0,0.0,0.0,0.0,0.0,0.0,-5.262,-5.4192,-5.5521,-5.5584,-5.4472,0.0,0.0,0.0,0.0,0.0,0.0,-5.4126,-5.4164,-5.4472,-5.5126,-5.6973,-5.7984,-5.7984,-5.9858,-6.0781,-6.0781,-6.0781,-6.0781,-6.0781,-6.0781,-6.0781,-6.0781,-6.0781,-6.0781,-6.0589,-5.805,-5.7011,-5.6934,-5.6049,-5.4164,-5.1866,-5.102,-5.1162,-5.1738,-5.1395,-5.3177,-5.5593,-5.5457,-5.4018,-5.2232,-5.172,0.0,0.0,0.0,0.0,-4.9351,-5.2396,-5.3791,-5.5023,-5.7446,-5.7997,-5.7997,-5.7997,-5.5464,-5.3261,-5.3482,-5.0912,-4.7443,-4.3644,-4.548,0.0,-4.2029,-4.7462,-5.1977,-5.1977,-5.55,-5.7997,-5.7997,-5.7997,-5.7997,-5.7997,-5.7997,-5.7997,-5.7997,-5.7997,-5.7997,-5.7997,-5.7997,-5.6602,-5.3592,0.0,0.0,0.0,0.0,0.0,0.0,0.0,0.0,0.0,0.0,0.0,0.0,0.0,0.0,0.0,0.0,0.0,0.0,0.0,0.0,0.0,0.0,0.0,0.0,0.0,0.0,0.0,0.0,0.0,-5.6986,-5.9257,0.0,0.0,0.0,0.0,-5.3205,-5.3126,-5.4241,-5.6676,-5.6819,-5.7934,-6.0319,-6.055,-6.0589,-6.0589,-6.0742,-6.0781,-6.0781,-6.0781,-6.0781,-6.0781,-6.0781,-6.0781,-6.0781,-6.0781,-6.0781,-6.0781,-6.0589,-6.055,-6.0204,-5.6973,-5.5588,-5.5049,-5.1866,-5.2433,-5.4775,-5.4762,-5.6687,-5.9093,-5.8612,-5.5549,-5.143,-4.8326,-4.7242,0.0,0.0,-4.9921,-5.2947,-5.313,-5.5464,-5.7813,-5.796,-5.7997,-5.7997,-5.7997,-5.5464,-5.4106,-5.7116,-5.5097,-5.2564,-5.1573,0.0,-5.0288,-4.6214,-4.926,-5.1977,-5.1977,-5.55,-5.7997,-5.7997,-5.7997,-5.7997,-5.7997,-5.7997,-5.7997,-5.7997,-5.7997,-5.7997,-5.7997,-5.7997,-5.7886,-5.7703,-5.3959,0.0,0.0,0.0,0.0,0.0,0.0,0.0,0.0,0.0,0.0,0.0,0.0,0.0,0.0,0.0,0.0,0.0,0.0,0.0,0.0,0.0,0.0,0.0,0.0,0.0,0.0,0.0,0.0,-5.7875,-5.8404,0.0,-5.7082,-5.704,-5.6665,-5.5714,-5.7165,-5.8473,-5.9407,-5.9435,-5.9858,-6.0781,-6.0781,-6.0781,-6.0781,-6.0781,-6.0781,-6.0781,-6.0781,-6.0781,-6.0781,-6.0781,-6.0781,-6.0781,-6.0781,-6.0781,-6.0781,-6.0781,-6.0781,-6.0666,-5.9473,-5.8973,-5.8796,-5.7315,-5.7414,-5.8187,-5.7582,-5.8071,-5.8874,-5.8397,-5.7184,-5.5647,-5.4473,-5.4106,-5.4106,-5.4106,-5.517,-5.6308,-5.6308,-5.7152,-5.7997,-5.7997,-5.7997,-5.7997,-5.7997,-5.7116,-5.6638,-5.7776,-5.539,-5.2931,-5.2123,-5.4142,-5.4473,-5.0435,-5.3261,-5.5868,-5.5868,-5.7116,-5.7997,-5.7997,-5.7997,-5.7997,-5.7997,-5.7997,-5.7997,-5.7997,-5.7997,-5.7997,-5.7997,-5.7997,-5.7997,-5.7997,-5.6602,-5.3298,0.0,0.0,0.0,0.0,0.0,0.0,0.0,0.0,0.0,0.0,0.0,0.0,0.0,0.0,0.0,0.0,0.0,0.0,0.0,0.0,0.0,0.0,0.0,0.0,0.0,-5.3244,-5.5708,-5.7992,-5.8343,-5.8375,-5.8303,-5.8292,-5.8292,-5.8292,-5.9858,-6.0781,-6.0781,-6.0781,-6.0781,-6.0781,-6.0781,-6.0781,-6.0781,-6.0781,-6.0781,-6.0781,-6.0781,-6.0781,-6.0781,-6.0781,-6.0319,-5.9561,-6.0435,-6.0319,-5.9588,-6.0435,-6.0781,-6.0781,-6.0781,-6.0781,-6.0746,-6.0283,-5.9991,-5.9744,-5.8776,-5.8482,-5.8418,-5.8097,-5.7997,-5.7997,-5.7997,-5.7997,-5.7997,-5.7997,-5.7997,-5.7997,-5.7997,-5.7997,-5.7997,-5.7997,-5.7997,-5.7997,-5.7997,-5.6932,-5.6381,-5.774,-5.6271,-5.4216,-5.2307,-5.4216,-5.4583,-5.0545,-5.2197,-5.3922,-5.3922,-5.5133,-5.5978,-5.5978,-5.7189,-5.7997,-5.7997,-5.6748,-5.6528,-5.7923,-5.6712,-5.6565,-5.7923,-5.6712,-5.5831,-5.5574,-5.4216,-5.1683,-4.7939,0.0,0.0,0.0,0.0,0.0,0.0,0.0,0.0,0.0,0.0,0.0,0.0,0.0,0.0,0.0,0.0,0.0,0.0,0.0,0.0,0.0,0.0,0.0,-5.0429,-5.444,-5.7441,-5.7513,-5.9475,-6.0793,-6.0781,-6.0781,-6.0781,-6.0781,-6.0781,-6.0781,-6.0781,-6.0742,-6.0704,-6.0666,-6.0704,-6.0704,-6.0666,-6.0742,-6.0781,-6.0781,-6.0781,-6.0781,-6.0781,-6.0781,-5.9435,-5.7253,-5.9742,-5.9396,-5.7308,-5.9781,-6.0781,-6.0781,-6.0781,-6.0781,-6.0746,-6.0269,-5.9792,-5.9212,-5.8215,-5.7923,-5.7997,-5.7997,-5.7997,-5.7997,-5.7997,-5.7997,-5.7997,-5.7997,-5.7997,-5.7997,-5.7997,-5.7997,-5.7997,-5.7997,-5.7997,-5.7997,-5.7997,-5.495,-5.3335,-5.7226,-5.7997,-5.6748,-5.2858,-5.2197,-5.0839,-4.6874,-4.6287,0.0,-4.6287,-4.9738,-5.2197,-5.2197,-5.5574,-5.785,-5.7997,-5.4289,-5.3702,-5.774,-5.4326,-5.3922,-5.785,-5.4252,-5.183,-5.1059,-4.7021,-4.7278,-5.1977,0.0,0.0,0.0,0.0,0.0,0.0,0.0,0.0,0.0,0.0,0.0,0.0,0.0,0.0,0.0,0.0,0.0,0.0,0.0,0.0,0.0,-5.3185,-5.5536,-5.555,-5.6679,-5.8103,-5.9817,-6.0545,-6.0905,-6.0804,-6.0781,-6.0781,-6.0781,-6.0781,-6.0781,-6.0781,-5.9665,-5.8704,-5.8061,-5.8665,-5.8665,-5.8061,-5.9858,-6.0781,-6.0781,-6.0781,-6.0781,-6.0781,-6.0781,-6.0435,-5.9781,-6.0512,-6.0396,-5.9819,-6.0512,-6.0781,-6.0781,-6.0781,-6.0781,-6.0722,-5.9885,-5.9065,-5.7999,-5.5426,-5.6051,-5.7997,-5.7997,-5.7997,-5.7997,-5.7997,-5.7997,-5.7997,-5.7997,-5.7997,-5.7997,-5.7997,-5.7997,-5.7997,-5.7997,-5.7997,-5.7997,-5.7997,-5.7116,-5.6675,-5.7776,-5.7997,-5.7629,-5.6528,-5.6345,-5.5978,-5.484,-5.4656,-5.4656,-5.4656,-5.5647,-5.6345,-5.6345,-5.473,-5.484,-5.774,-5.4289,-5.3702,-5.774,-5.6969,-5.6859,-5.796,-5.6932,-5.6235,-5.6014,-5.205,-5.0655,0.0,0.0,0.0,0.0,0.0,0.0,0.0,0.0,0.0,0.0,0.0,0.0,0.0,0.0,0.0,0.0,0.0,0.0,0.0,0.0,0.0,0.0,-5.5058,-5.797,-5.8983,-5.9038,-5.9481,-6.0821,-6.0944,-6.0892,-6.0804,-6.0781,-6.0781,-6.0781,-6.0781,-6.0781,-6.0781,-5.9896,-5.8627,-5.706,-5.8511,-5.8588,-5.7022,-5.9511,-6.0781,-6.0781,-6.0781,-6.0781,-6.0781,-6.0781,-6.0204,-5.9281,-6.0319,-6.0204,-5.9292,-6.0358,-6.0781,-6.0781,0.0,0.0,0.0,0.0,-5.8796,-5.774,-5.5868,-5.6455,-5.7997,-5.7997,-5.7997,-5.7997,-5.7997,-5.7042,-5.5978,-5.5978,-5.4987,-5.4252,-5.5647,-5.5978,-5.6345,-5.7666,-5.7997,-5.7997,-5.7997,-5.6675,-5.5978,-5.7666,-5.6638,0.0,-5.7703,-5.6602,-5.4913,-5.3188,-5.2931,-5.2931,-5.2931,-5.4436,-5.55,-5.55,-5.4876,-5.5464,-5.7813,-5.4289,0.0,0.0,0.0,-5.55,-5.55,-5.517,0.0,0.0,0.0,-4.9958,-5.1977,-4.9591,0.0,0.0,-4.8379,-4.6581,0.0,0.0,0.0,0.0,0.0,0.0,0.0,0.0,0.0,0.0,0.0,0.0,0.0,0.0,0.0,0.0,-5.6454,-5.8792,-6.0966,-6.1097,-6.0961,-6.0961,-6.0871,-6.0781,-6.0781,-6.0781,-6.0781,-6.0781,-6.0781,-6.0781,-6.0781,-6.0627,0.0,0.0,0.0,-5.9396,-5.7022,-5.9511,-6.0781,-6.0781,-6.0781,-6.0781,-6.0781,-6.0781,-5.9588,-5.7538,-5.9819,-5.9523,-5.7599,-5.9858,-6.0781,-6.0781,-6.0781,-6.0746,-6.0495,-5.9311,-5.8497,-5.796,-5.7593,0.0,0.0,-5.7997,-5.7997,-5.7997,-5.7997,-5.6014,-5.3739,-5.3739,-5.1646,-5.0068,-5.3004,-5.3739,-5.4473,-5.7336,-5.7997,-5.7997,-5.7997,-5.5207,-5.3739,-5.7299,-5.5097,-5.3812,-5.7373,-5.5023,-5.1426,-4.7792,-4.7241,-4.7241,-4.7241,-5.0435,-5.2674,-5.2674,-5.5464,0.0,-5.796,-5.4289,-5.3702,-5.774,-5.4656,-5.2674,-5.2674,-5.1977,-5.0251,-4.7315,-4.6581,-4.8343,-5.2674,-5.2674,-5.4509,-5.7813,-5.0618,-4.9224,0.0,0.0,0.0,0.0,0.0,0.0,0.0,0.0,0.0,0.0,0.0,0.0,0.0,0.0,0.0,-5.6842,-5.8987,-6.0688,-6.1019,-6.0935,-6.0834,-6.0834,-6.0816,-6.0781,-6.0781,-6.0781,-6.0781,-6.0781,-6.0781,-6.0781,-6.0781,-5.9511,-5.8242,-5.7038,-5.8165,-5.8204,-5.7022,-5.9511,-6.0781,-6.0781,-6.0781,0.0,-6.0781,-6.0781,-6.0512,-6.0089,-6.0589,-6.0512,-6.0089,-6.0589,-6.0781,-6.0781,-6.0781,-6.0338,-5.9338,-5.6538,-5.6594,-5.7629,-5.5023,-5.5831,-5.7997,-5.7997,-5.7997,-5.7997,-5.7997,-5.7556,0.0,-5.7079,-5.6602,-5.6271,-5.6895,-5.7079,-5.7226,-5.785,-5.7997,-5.7997,-5.7997,-5.7373,-5.7079,-5.785,-5.7373,-5.7079,-5.785,-5.7336,-5.6565,-5.5794,-5.5647,-5.5647,-5.5647,-5.6345,-5.6822,-5.6822,-5.462,-5.4473,-5.7703,-5.4289,-5.3702,-5.774,-5.7262,-5.6822,-5.6822,-5.6675,-5.6308,-5.5684,-5.55,-5.5904,-5.6822,-5.6822,-5.7226,-5.796,-5.6381,-5.6088,0.0,0.0,0.0,0.0,0.0,0.0,0.0,0.0,0.0,0.0,0.0,-5.3984,-5.3984,0.0,-5.6832,-5.749,-5.8953,-6.0249,-6.0915,-6.0892,-6.0781,-6.0781,-6.0781,-6.0781,-6.0781,-6.0781,-6.0781,-6.0781,-6.0781,-6.0781,-6.0781,-6.0012,-5.8781,-5.7038,-5.8665,-5.8742,-5.7022,-5.9511,-6.0781,-6.0781,-6.0781,-6.0781,-6.0781,-6.0781,-6.0781,-6.0781,-6.0781,-6.0781,-6.0781,-6.0781,-6.0781,-6.0781,-6.0781,-6.0217,-5.9183,-5.7316,-5.7198,-5.7776,-5.6161,-5.6638,-5.7997,-5.7997,-5.7997,-5.7997,-5.7997,-5.6895,-5.5611,-5.5611,-5.4399,-5.3518,-5.517,-5.5611,-5.6014,-5.7629,-5.7997,-5.7997,-5.7997,-5.7997,-5.7997,-5.7997,-5.7997,-5.7997,-5.7997,-5.7997,-5.7997,-5.7997,-5.7997,-5.7997,-5.7997,-5.7997,-5.7997,-5.7997,-5.6198,-5.5831,-5.7813,-5.6161,-5.5868,-5.785,-5.7997,-5.7997,-5.7997,-5.7997,-5.7997,-5.7997,-5.7997,-5.7997,-5.7997,-5.7997,-5.7997,-5.7997,-5.7997,-5.7997,0.0,0.0,0.0,0.0,0.0,0.0,0.0,-5.4883,-5.5351,-5.4844,-5.5156,-5.5508,-5.5508,-5.6055,-5.6949,-5.8133,-5.8817,-5.9607,-6.0816,-6.086,-6.0781,-6.0781,-6.0781,-6.0781,-6.0781,-6.0781,-6.0781,-6.0781,-6.0781,-6.0781,-6.0781,-6.0781,-5.9858,-5.7808,-5.9742,-5.9819,-5.7753,-5.9781,-6.0781,-6.0781,-6.0781,-6.0781,-6.0781,-6.0781,-6.0781,-6.0781,-6.0781,-6.0781,-6.0781,-6.0781,-6.0781,-6.0781,-6.0722,-6.0189,-5.9475,-5.9028,-5.8503,-5.7997,-5.7997,-5.7997,-5.7997,-5.7997,-5.7997,-5.7997,-5.7997,-5.6198,-5.4142,-5.4142,-5.2234,-5.0802,-5.3445,-5.4142,-5.4803,-5.7373,-5.7997,-5.7997,-5.7997,-5.7997,-5.7997,-5.7997,-5.7997,-5.7997,-5.7997,-5.7997,-5.7997,-5.7997,-5.7997,-5.7997,-5.7997,-5.7997,-5.7997,-5.7997,-5.7997,-5.7997,-5.7997,-5.7997,-5.7997,-5.7997,-5.7997,-5.7997,-5.7997,-5.7997,-5.7997,-5.7997,-5.7997,-5.7997,-5.7997,-5.7997,-5.7997,-5.7997,-5.7997,-5.7997,-5.1601,-4.8711,-4.7891,-5.0937,-5.2851,-5.4219,0.0,-5.8086,-6.0195,-5.793,-5.9258,-6.0859,-6.0859,-6.0937,-6.0966,-6.0887,-6.0945,-6.0978,-6.0839,-6.0804,-6.0781,-6.0781,-6.0781,-6.0781,-6.0781,-6.0781,-6.0781,-6.0781,-6.0781,-6.0781,-6.0781,-6.0781,-6.0666,-6.0358,-6.0666,-6.0666,-6.0358,-6.0666,-6.0781,-6.0781,-6.0781,-6.0781,-6.0781,-6.0781,-6.0781,-6.0781,-6.0781,-6.0781,-6.0781,-6.0781,-6.0781,-6.0757,-6.0338,-6.0118,-5.9962,-5.9492,-5.8756,-5.7997,-5.7997,-5.7997,-5.7997,-5.7997,-5.7997,-5.7997,-5.7997,-5.774,-5.7446,-5.7446,-5.7189,-5.7005,-5.7373,-5.7446,-5.7556,-5.7923,-5.7997,-5.7997,-5.7997,-5.7997,-5.7997,-5.7997,-5.7997,-5.7997,-5.7997,-5.7997,-5.7997,-5.7997,-5.7997,-5.7997,-5.7997,-5.7997,-5.7997,-5.7997,-5.7997,-5.7997,-5.7997,-5.7997,-5.7997,-5.7997,-5.7997,-5.7997,-5.7997,-5.7997,-5.7997,-5.7997,-5.7997,-5.7997,-5.7997,-5.7997,-5.7997,-5.7997,-5.7997,-5.7997,-5.3008,-5.2734,-5.3398,-5.4844,-5.6836,-5.8594,-5.8945,-6.039,-6.1406,-6.0312,-6.0976,-6.1719,-6.1719,-6.0898,-6.0496,-6.1178,-6.046,-6.0024,-6.0707,-6.0781,-6.0781,-6.0781,-5.9473,-5.8599,-5.8599,-5.9935,-6.0204,-5.8715,-5.9973,-6.0781,-6.0781,-6.0781,-6.0781,-6.0781,-6.0781,-6.0781,-6.0781,-6.0781,-6.0781,-6.0781,-6.0781,-6.0781,-6.0781,-6.0781,-6.0781,-6.0781,-6.0781,-6.0781,-6.0781,-6.0781,-6.0781,-6.0769,-6.0597,-6.0338,-6.0021,-5.9559,-5.899,-5.8397,-5.8397,-5.8216,-5.7997,-5.7997,-5.7997,-5.7997,-5.7997,-5.7997,-5.7997,-5.7997,-5.7997,-5.7997,-5.7997,-5.7997,-5.7997,-5.7997,-5.7997,-5.7997,-5.7997,-5.7997,-5.7997,-5.7997,-5.7997,-5.7997,-5.7997,-5.7997,-5.7997,-5.7997,-5.7997,-5.7997,-5.7997,-5.7997,-5.7997,-5.7997,-5.7997,-5.7997,-5.7997,-5.7997,-5.7997,-5.7997,-5.7997,-5.7997,-5.7997,-5.7997,-5.7997,-5.7997,-5.7997,-5.7997,-5.7997,-5.7997,-5.7997,-5.7997,-5.7997,-5.7997,-5.3828,-5.4883,-5.6133,-5.7539,-5.9297,-6.0859,-6.1523,-6.1719,-6.1719,-6.1719,-6.1719,-6.1719,-6.1719,-6.0703,-6.0184,-6.1139,-6.0227,-5.9753,-6.0668,-6.0781,-6.055,-5.9819,-5.8138,-5.6445,-5.506,-5.7819,-5.9281,-5.8138,-5.9742,-6.0781,-6.0781,-6.0781,-6.0781,-6.0781,-6.0781,-6.0781,-6.0781,-6.0781,-6.0781,-6.0781,-6.0781,-6.0781,-6.0781,-6.0781,-6.0781,-6.0781,-6.0781,-6.0781,-6.0781,-6.0781,-6.0781,-6.0781,-6.0781,-6.0597,-6.0269,-5.9916,-5.9319,-5.8713,-5.8713,-5.8397,-5.7997,-5.7997,-5.7997,-5.7997,-5.7997,-5.7997,-5.7997,-5.7997,-5.7997,-5.7997,-5.7997,-5.7997,-5.7997,-5.7997,-5.7997,-5.7997,-5.7997,-5.7997,-5.7997,-5.7997,-5.7997,-5.7997,-5.7997,-5.7997,-5.7997,-5.7997,-5.7997,-5.7997,-5.7997,-5.7997,-5.7997,-5.7997,-5.7997,-5.7997,-5.7997,-5.7997,-5.7997,-5.7997,-5.7997,-5.7997,-5.7997,-5.7997,-5.7997,-5.7997,-5.7997,-5.7997,-5.7997,-5.7997,-5.7997,-5.7997,-5.7997,-5.7997,-5.332,-5.2266,-5.1641,-5.664,-5.7969,-5.8672,-6.1133,-6.1719,-6.1719,-6.1719,-6.1719,-6.1719,-6.1719,-6.164,-6.155,-6.1334,-6.1244,-6.1126,-6.0834,-6.0781,-5.9858,-5.7407,-5.706,-5.506,-5.0125,-5.4175,-5.8099,-6.0512,-6.0742,-6.0781,-6.0781,-6.0781,-6.0781,-6.0781,-6.0781,-6.0781,-6.0781,-6.0781,-6.0781,-6.0781,-6.0781,-6.0781,-6.0781,-6.0781,-6.0781,-6.0781,-6.0781,-6.0781,-6.0781,-6.0781,-6.0781,-6.0781,-6.0781,-6.0781,-6.0769,-6.0757,-5.9885,-5.8713,-5.8713,-5.8397,-5.7997,-5.7997,-5.7997,-5.7997,-5.7997,-5.7997,-5.7997,-5.7997,-5.7997,-5.7997,-5.7997,-5.7997,-5.7997,-5.7997,-5.7997,-5.7997,-5.7997,-5.7997,-5.7997,-5.7997,-5.7997,-5.7997,-5.7997,-5.7997,-5.7997,-5.7997,-5.7997,-5.7997,-5.7997,-5.7997,-5.7997,-5.7997,-5.7997,-5.7997,-5.7997,-5.7997,-5.7997,-5.7997,-5.7997,-5.7997,-5.7997,-5.7997,-5.7997,-5.7997,-5.7997,-5.7997,-5.7997,-5.7997,-5.7997,-5.7997,-5.7997,-5.7997,-5.1719,-5.3359,-5.5742,-5.7461,-5.918,-6.0664,-6.1484,-6.1719,-6.1719,-6.1719,-6.0351,-5.918,-5.918,-5.7773,-5.7058,-5.8475,-5.7776,-5.7928,-6.0437,-5.8858,-5.7934,-5.9358,-5.7049,-5.578,-5.6857,-5.6983,-5.6637,-5.5818,-5.8896,-6.0781,-6.0781,-6.0781,-6.0781,-6.0781,-6.0781,-6.0781,-6.0781,-6.0781,-6.1089,-6.1678,-6.1678,-6.1678,-6.1639,-6.105,-6.0781,-6.0781,-6.0781,-6.0781,-6.0781,-6.0781,-6.0781,-6.0781,-6.0781,-6.0781,-6.0781,-6.0781,-6.0311,-5.9576,-5.9266,-5.8855,-5.8418,-5.8097,-5.7997,-5.7997,-5.7997,-5.7997,-5.7997,-5.7997,-5.7997,-5.7997,-5.7997,-5.7997,-5.7997,-5.7997,-5.7997,-5.7997,-5.7997,-5.7997,-5.7997,-5.7997,-5.7997,-5.7997,-5.7997,-5.7997,-5.7997,-5.7997,-5.7997,-5.7997,-5.7997,-5.7997,-5.7997,-5.7997,-5.7997,-5.7997,-5.7997,-5.7997,-5.7997,-5.7997,-5.7997,-5.7997,-5.7997,-5.7997,-5.7997,-5.7997,-5.7997,-5.7997,-5.7997,-5.7997,-5.7997,-5.7997,-5.7997,-5.7997,-5.2891,-5.5351,-5.8125,-5.9023,-6.0508,-6.1719,-6.1719,-6.1719,-6.1719,-6.1719,-6.039,-5.8984,-5.8086,-5.6523,-5.5847,-5.718,-5.652,-5.6989,-6.0322,-5.8896,-5.8011,-5.9292,-5.7049,-5.6088,-5.7896,-5.7445,-5.6434,-5.5126,-5.805,-5.9896,-5.9896,-5.9896,-6.0165,-6.0781,-6.0781,-6.0935,-6.1243,-6.1243,-6.1704,-6.2512,-6.2512,-6.2512,-6.2512,-6.1935,-6.1204,-6.0358,-6.0973,-6.0742,-5.9935,-6.055,-6.0781,-6.0781,-6.0781,-6.0781,-6.0781,-6.0781,-6.061,-6.0269,-5.9609,-5.9084,-5.8632,-5.8164,-5.7997,-5.7997,-5.7997,-5.7997,-5.7997,-5.7997,-5.7997,-5.7997,-5.7997,-5.7997,-5.7997,-5.7997,-5.7997,-5.7997,-5.7997,-5.7997,-5.7997,-5.7997,-5.7997,-5.7997,-5.7997,-5.7997,-5.7997,-5.7997,-5.7997,-5.7997,-5.7997,-5.7997,-5.7997,-5.7997,-5.7997,-5.7997,-5.7997,-5.7997,-5.7997,-5.7997,-5.7997,-5.7997,-5.7997,-5.7997,-5.7997,-5.7997,-5.7997,-5.7997,-5.7997,-5.7997,-5.7997,-5.7997,-5.7997,-5.7997,-5.6445,-5.793,-5.8672,-6.1094,-6.1719,-6.1719,-6.1719,-6.1719,-6.164,-6.1523,-6.1406,-6.0547,-5.7969,-5.7383,-5.7291,-5.7219,-5.7124,-5.7892,-6.0322,-6.0589,-5.9665,-5.733,-5.706,-5.6126,-5.3818,-5.578,-5.7511,-5.8242,-5.8396,-5.8434,-5.8434,-5.8434,-5.9165,-6.0819,-6.0858,-6.1281,-6.2139,-6.2216,-6.2589,-6.3346,-6.3346,-6.3346,-6.3346,-6.332,-6.1973,-5.9781,-6.1435,-6.0781,-5.8627,-6.0204,-6.0819,-6.0781,-6.0781,-6.0781,-6.0781,-6.0781,-6.0781,-6.0659,-5.976,-5.9121,-5.8652,-5.8164,-5.7997,-5.7997,-5.7997,-5.7997,-5.7997,-5.7997,-5.7997,-5.7997,-5.7997,-5.7997,-5.7997,-5.7997,-5.7997,-5.7997,-5.7997,-5.7997,-5.7997,-5.7997,-5.7997,-5.7997,-5.7997,-5.7997,-5.7997,-5.7997,-5.7997,-5.7997,-5.7997,-5.7997,-5.7997,-5.7997,-5.7997,-5.7997,-5.7997,-5.7997,-5.7997,-5.7997,-5.7997,-5.7997,-5.7997,-5.7997,-5.7997,-5.7997,-5.7997,-5.7997,-5.7997,-5.7997,-5.7997,-5.7997,-5.7997,-5.7997,-5.5976,-5.8281,-6.0898,-6.1523,-6.1719,-6.1719,-6.1719,-6.1719,-6.1172,-5.9258,-5.7305,-5.5195,-5.2617,-5.0501,-5.0296,-5.3913,-5.3372,-5.3986,-5.8325,-5.7819,-5.7242,-5.7896,-5.7973,-5.8204,-5.8781,-5.9435,-5.9396,-5.8396,-5.9473,-6.0165,-6.0165,-6.0165,-6.0666,-6.1716,-6.1793,-6.2166,-6.2974,-6.3628,-6.4089,-6.4282,-6.4282,-6.4282,-6.4243,-6.3589,-6.2974,-6.2358,-6.282,-6.2281,-6.1166,-6.1601,-6.1408,-6.0781,-6.0781,-6.0781,-6.0781,-6.0781,-6.0781,-6.0734,-6.0132,-5.9609,-5.9065,-5.826,-5.7997,-5.7997,-5.7997,-5.7997,-5.7997,-5.7997,-5.7997,-5.7997,-5.7997,-5.7997,-5.7997,-5.7997,-5.7997,-5.7997,-5.7997,-5.7997,-5.7997,-5.7997,-5.7997,-5.7997,-5.7997,-5.7997,-5.7997,-5.7997,-5.7997,-5.7997,-5.7997,-5.7997,-5.7997,-5.7997,-5.7997,-5.7997,-5.7997,-5.7997,-5.7997,-5.7997,-5.7997,-5.7997,-5.7997,-5.7997,-5.7997,-5.7997,-5.7997,-5.7997,-5.7997,-5.7997,-5.7997,-5.7997,-5.7997,-5.7997,-5.8086,-5.9883,-6.1719,-6.1719,-6.1719,-6.1406,-6.0273,-6.0039,-5.9297,-5.6719,-5.5039,-5.3086,-5.0156,-4.862,-4.8947,-5.2414,-5.2387,-5.3447,-5.7698,-5.7473,-5.7203,-5.8165,-5.8319,-5.8973,-6.0627,-6.0781,-6.0396,-5.9473,-5.9588,-5.9704,-5.9704,-6.005,-6.0781,-6.2062,-6.2435,-6.3012,-6.3858,-6.4743,-6.5166,-6.5166,-6.5166,-6.5166,-6.5166,-6.4666,-6.382,-6.282,-6.3551,-6.2974,-6.1562,-6.1947,-6.1831,-6.132,-6.0935,-6.0781,-6.0781,-6.0781,-6.0781,-6.0734,-6.0283,-5.9808,-5.9266,-5.8528,-5.8186,-5.7997,-5.7997,-5.7997,-5.7997,-5.7997,-5.7997,-5.7997,-5.7997,-5.7997,-5.7997,-5.7997,-5.7997,-5.7997,-5.7997,-5.7997,-5.7997,-5.7997,-5.7997,-5.7997,-5.7997,-5.7997,-5.7997,-5.7997,-5.7997,-5.7997,-5.7997,-5.7997,-5.7997,-5.7997,-5.7997,-5.7997,-5.7997,-5.7997,-5.7997,-5.7997,-5.7997,-5.7997,-5.7997,-5.7997,-5.7997,-5.7997,-5.7997,-5.7997,-5.7997,-5.7997,-5.7997,-5.7997,-5.7997,-5.7997,-6.082,-6.1523,-6.1719,-6.1719,-6.1719,-6.1133,-5.8906,-5.8125,-5.7148,-5.4531,-5.3633,-5.2461,-4.9609,-4.948,-5.0394,-5.2186,-5.3007,-5.4306,-5.6928,-5.778,-5.805,-5.7819,-5.8088,-5.8973,-6.0627,-6.0589,-6.055,-6.0781,-5.9435,-5.8627,-5.8627,-5.9396,-6.0627,-6.237,-6.3205,-6.4012,-6.4782,-6.5513,-6.5897,-6.5897,-6.5897,-6.5897,-6.5897,-6.5897,-6.4666,-6.2678,-6.4128,-6.3435,-6.1358,-6.2127,-6.2293,-6.2024,-6.1281,-6.0896,-6.0781,-6.0781,-6.0781,-6.0746,-6.0338,-5.9855,-5.9319,-5.8855,-5.8375,-5.7997,-5.7997,-5.7997,-5.7997,-5.7997,-5.7997,-5.7997,-5.7997,-5.7997,-5.7997,-5.7997,-5.7997,-5.7997,-5.7997,-5.7997,-5.7997,-5.7997,-5.7997,-5.7997,-5.7997,-5.7997,-5.7997,-5.7997,-5.7997,-5.7997,-5.7997,-5.7997,-5.7997,-5.7997,-5.7997,-5.7997,-5.7997,-5.7997,-5.7997,-5.7997,-5.7997,-5.7997,-5.7997,-5.7997,-5.7997,-5.7997,-5.7997,-5.7997,-5.7997,-5.7997,-5.7997,-5.7997,-5.7997,-5.7997,-5.9883,-6.0625,-6.1719,-6.1719,-6.1719,-6.1562,-6.1133,-5.9414,-5.7148,-5.4531,-5.1758,-4.9805,-4.9961,-4.9402,-4.9892,-5.2894,-5.3379,-5.3088,-5.2136,-5.5021,-5.6703,0.0,-5.7011,-5.8973,-6.0627,-5.955,-5.9319,-6.0704,-6.0512,-6.0358,-6.0358,-6.1166,-6.2397,-6.4128,-6.5013,-6.5513,-6.5667,-6.582,-6.5897,-6.5897,-6.5897,-6.5897,-6.5897,-6.5897,-6.5667,-6.5243,-6.5551,-6.5013,-6.3935,-6.4089,-6.3358,-6.2101,-6.1947,-6.1435,-6.0781,-6.0781,-6.0781,-6.0781,-6.0722,-6.0118,-5.9319,-5.8855,-5.8375,-5.7997,-5.7997,-5.7997,-5.7997,-5.7997,-5.7997,-5.7997,-5.7997,-5.7997,-5.7997,-5.7997,-5.7997,-5.7997,-5.7997,-5.7997,-5.7997,-5.7997,-5.7997,-5.7997,-5.7997,-5.7997,-5.7997,-5.7997,-5.7997,-5.7997,-5.7997,-5.7997,-5.7997,-5.7997,-5.7997,-5.7997,-5.7997,-5.7997,-5.7997,-5.7997,-5.7997,-5.7997,-5.7997,-5.7997,-5.7997,-5.7997,-5.7997,-5.7997,-5.7997,-5.7997,-5.7997,-5.7997,-5.7997,-5.7997,-5.9648,-6.043,-6.1719,-6.1719,-6.1719,-6.1015,-5.832,0.0,0.0,-5.0234,-4.8008,-4.6719,-4.6211,-4.6432,-4.7894,-5.1657,-5.288,-5.3674,-5.4552,-5.6395,-5.7396,-5.6588,-5.755,-5.8627,-5.9435,-5.8781,-5.8627,-5.9435,-5.9511,-6.0089,-6.1408,-6.2704,-6.3974,-6.5243,-6.5667,-6.5897,-6.5897,-6.5897,-6.5897,-6.5897,-6.5897,-6.5897,-6.5897,-6.5897,-6.5897,-6.5897,-6.5897,-6.4897,-6.3358,-6.4243,-6.3089,-6.0819,-6.1755,-6.1562,-6.0781,-6.0781,-6.0781,-6.0781,-6.0781,-6.0175,-5.9354,-5.9121,-5.857,-5.7997,-5.7997,-5.7997,-5.7997,-5.7997,-5.7997,-5.7997,-5.7997,-5.7997,-5.7997,-5.7997,-5.7997,-5.7997,-5.7997,-5.7997,-5.7997,-5.7997,-5.7997,-5.7997,-5.7997,-5.7997,-5.7997,-5.7997,-5.7997,-5.7997,-5.7997,-5.7997,-5.7997,-5.7997,-5.7997,-5.7997,-5.7997,-5.7997,-5.7997,-5.7997,-5.7997,-5.7997,-5.7997,-5.7997,-5.7997,-5.7997,-5.7997,-5.7997,-5.7997,-5.7997,-5.7997,-5.7997,-5.7997,-5.7997,-5.9961,-6.0703,-6.1719,-6.1719,-6.1719,-6.0508,-5.5898,-5.4414,-5.25,-4.7187,-4.5351,-4.4609,-4.4141,-4.4796,-4.6735,-5.0903,-5.2149,-5.3699,-5.6785,-5.7203,-5.7396,-5.7973,-5.8204,0.0,-5.8819,-5.8511,-5.8434,-5.8819,-5.9165,-6.0242,-6.2243,-6.3782,-6.5013,-6.5859,-6.5897,-6.5897,-6.5897,-6.5897,-6.5897,-6.5897,-6.5897,-6.5897,-6.5897,-6.5897,-6.5897,-6.5897,-6.5897,-6.4436,-6.2255,-6.4089,-6.2743,-5.9704,-6.1589,-6.1704,-6.0781,-6.0781,-6.0781,-6.0781,-6.0781,-6.0175,-5.9389,-5.9389,-5.8756,-5.7997,-5.7997,-5.7997,-5.7997,-5.7997,-5.7997,-5.7997,-5.7997,-5.7997,-5.7997,-5.7997,-5.7997,-5.7997,-5.7997,-5.7997,-5.7997,-5.7997,-5.7997,-5.7997,-5.7997,-5.7997,-5.7997,-5.7997,-5.7997,-5.7997,-5.7997,-5.7997,-5.7997,-5.7997,-5.7997,-5.7997,-5.7997,-5.7997,-5.7997,-5.7997,-5.7997,-5.7997,-5.7997,-5.7997,-5.7997,-5.7997,-5.7997,-5.7997,-5.7997,-5.7997,-5.7997,-5.7997,-5.7997,-5.7997,-6.0898,-6.1562,-6.1719,-6.1719,-6.1719,-6.0976,-5.8164,0.0,-5.3203,-5.0312,-4.6562,-4.4961,-4.8789,-4.832,-4.8658,-5.2718,-5.1522,-5.0951,-5.335,-5.3664,-5.4549,-5.683,0.0,0.0,-6.0435,-5.9204,-5.8934,-6.0473,-6.1973,-6.2935,-6.3166,-6.4089,-6.5013,-6.5859,-6.5897,-6.5897,-6.5897,-6.5897,-6.5897,-6.5897,-6.5897,-6.5897,-6.5897,-6.5897,-6.5897,-6.5897,-6.5897,-6.4436,-6.2293,-6.4743,-6.3281,-5.9742,-6.2243,-6.2204,-6.0781,-6.0781,-6.0781,-6.0781,-6.0781,-6.0175,-5.9389,-5.9389,-5.8756,-5.7997,-5.7997,-5.7997,-5.7997,-5.7997,-5.7997,-5.7997,-5.7997,-5.7997,-5.7997,-5.7997,-5.7997,-5.7997,-5.7997,-5.7997,-5.7997,-5.7997,-5.7997,-5.7997,-5.7997,-5.7997,-5.7997,-5.7997,-5.7997,-5.7997,-5.7997,-5.7997,-5.7997,-5.7997,-5.7997,-5.7997,-5.7997,-5.7997,-5.7997,-5.7997,-5.7997,-5.7997,-5.7997,-5.7997,-5.7997,-5.7997,-5.7997,-5.7997,-5.7997,-5.7997,-5.7997,-5.7997,-5.7997,-5.7997,-5.7851,-5.9726,-6.1719,-6.1719,-6.1719,-6.0625,-5.6484,0.0,-5.2695,-4.8047,-4.5703,-4.4844,-4.6055,-4.6133,-4.702,-5.0057,-5.0106,0.0,-5.4968,-5.5472,-5.6434,-5.8973,-5.9588,-5.9665,-5.9319,-5.8704,-5.8781,-5.9935,-6.1127,-6.2474,-6.4012,-6.4897,-6.5551,-6.5897,-6.5897,-6.5897,-6.5897,-6.5897,-6.5897,-6.5897,-6.5897,-6.5897,-6.5897,-6.5897,-6.5897,-6.5897,-6.5897,-6.3589,-6.0127,-6.4205,-6.2474,-5.7627,-6.1704,-6.2281,-6.0781,-6.0781,-6.0781,-6.0781,-6.0781,-6.0365,-5.9792,-5.9475,-5.8971,-5.8354,-5.8074,-5.7997,-5.7997,-5.7997,-5.7997,-5.7997,-5.7997,-5.7997,-5.7997,-5.7997,-5.7997,-5.7997,-5.7997,-5.7997,-5.7997,-5.7997,-5.7997,-5.7997,-5.7997,-5.7997,-5.7997,-5.7997,-5.7997,-5.7997,-5.7997,-5.7997,-5.7997,-5.7997,-5.7997,-5.7997,-5.7997,-5.7997,-5.7997,-5.7997,-5.7997,-5.7997,-5.7997,-5.7997,-5.7997,-5.7997,-5.7997,-5.7997,-5.7997,-5.7997,-5.7997,-5.7997,-5.7997,-5.7997,-5.6172,-5.8828,-6.1719,-6.1719,-6.1133,-5.9414,0.0,0.0,-5.1445,-4.6406,-4.5195,-4.4883,-4.4531,-4.4725,-4.5796,-4.8448,0.0,-5.1132,-5.5304,-5.5857,-5.6819,-5.9358,-5.9665,-5.9511,-5.9088,-5.905,-5.9473,-6.055,-6.1204,-6.2551,-6.4859,-6.5551,-6.5897,-6.5897,-6.5897,-6.5897,-6.5897,-6.5897,-6.5897,-6.5897,-6.5897,-6.5513,-6.4782,-6.5551,-6.5474,-6.482,-6.5551,-6.3435,-5.9742,-6.4089,-6.232,-5.7242,-6.1589,-6.2281,-6.0781,-6.0781,-6.0781,-6.0781,-6.0781,-6.0495,-6.0006,-5.9543,-5.9065,-5.8611,-5.8142,-5.7997,-5.7997,-5.7997,-5.7997,-5.7997,-5.7997,-5.7997,-5.7997,-5.7997,-5.7997,-5.7997,-5.7997,-5.7997,-5.7997,-5.7997,-5.7997,-5.7997,-5.7997,-5.7997,-5.7997,-5.7997,-5.7997,-5.7997,-5.7997,-5.7997,-5.7997,-5.7997,-5.7997,-5.7997,-5.7997,-5.7997,-5.7997,-5.7997,-5.7997,-5.7997,-5.7997,-5.7997,-5.7997,-5.7997,-5.7997,-5.7997,-5.7997,-5.7997,-5.7997,-5.7997,-5.7997,-5.7997,-5.7187,-5.9765,-6.1719,-6.1719,-5.9805,-5.7265,0.0,-5.2031,-4.9492,-4.6836,-4.5586,-4.5273,-4.6133,-4.5456,-4.5866,-4.9177,-4.9621,0.0,-5.2887,-5.3241,-5.4164,-5.6753,-5.706,-5.8022,-6.0512,-6.0781,-6.1473,-6.3115,-6.3281,-6.4051,-6.5782,-6.5897,-6.5897,-6.5897,-6.5897,-6.5897,-6.5897,-6.5897,-6.5897,-6.5897,-6.5897,-6.4589,-6.2216,-6.4743,-6.4512,-6.2293,-6.482,-6.4436,-6.2255,-6.482,-6.3358,-5.9704,-6.2281,-6.2281,-6.0781,-6.0781,-6.0781,-6.0781,-6.0781,-6.0495,-6.0006,-5.9543,-5.9065,-5.8611,-5.8142,-5.7997,-5.7997,-5.7997,-5.7997,-5.7997,-5.7997,-5.7997,-5.7997,-5.7997,-5.7997,-5.7997,-5.7997,-5.7997,-5.7997,-5.7997,-5.7997,-5.7997,-5.7997,-5.7997,-5.7997,-5.7997,-5.7997,-5.7997,-5.7997,-5.7997,-5.7997,-5.7997,-5.7997,-5.7997,-5.7997,-5.7997,-5.7997,-5.7997,-5.7997,-5.7997,-5.7997,-5.7997,-5.7997,-5.7997,-5.7997,-5.7997,-5.7997,-5.7997,-5.7997,-5.7997,-5.7997,-5.7997,-5.2422,-5.4492,-5.6445,-5.6445,-5.582,-5.457,-5.1992,-5.0781,-4.9453,-4.6836,-4.6094,-4.5976,-4.625,-4.5963,-4.6568,-4.9255,-4.966,0.0,0.0,0.0,0.0,-5.9281,-5.9588,-5.9896,-6.0704,-5.9742,-6.0281,-6.3077,-6.2243,-6.2858,-6.5743,-6.5897,-6.5897,-6.5897,-6.5897,-6.5897,-6.5897,-6.5897,-6.5897,-6.5897,-6.5897,-6.4551,-6.2178,-6.4743,-6.4512,-6.2255,-6.4782,-6.4436,-6.2255,-6.4205,-6.282,-5.9704,-6.1704,-6.1781,-6.0781,-6.0781,-6.0781,-6.0781,-6.0781,-6.0722,-6.0456,-5.968,-5.9302,-5.9047,-5.8238,-5.7997,-5.7997,-5.7997,-5.7997,-5.7997,-5.7997,-5.7997,-5.7997,-5.7997,-5.7997,-5.7997,-5.7997,-5.7997,-5.7997,-5.7997,-5.7997,-5.7997,-5.7997,-5.7997,-5.7997,-5.7997,-5.7997,-5.7997,-5.7997,-5.7997,-5.7997,-5.7997,-5.7997,-5.7997,-5.7997,-5.7997,-5.7997,-5.7997,-5.7997,-5.7997,-5.7997,-5.7997,-5.7997,-5.7997,-5.7997,-5.7997,-5.7997,-5.7997,-5.7997,-5.7997,-5.7997,-5.7997,-4.9922,-5.207,-5.3984,-5.3984,-5.3281,-5.2148,-5.0547,-4.9453,-4.8281,-4.6641,-4.707,-4.7461,-4.6484,-4.6969,-4.7671,-4.8171,-4.9762,-5.1708,-5.3839,-5.5241,-5.6626,-5.8242,-5.9281,-6.0127,-6.0742,-5.9858,-6.0242,-6.2666,-6.2166,-6.282,-6.5282,-6.5705,-6.5897,-6.5897,-6.5897,-6.5897,-6.5897,-6.5897,-6.5897,-6.5897,-6.5897,-6.4551,-6.2178,-6.4743,-6.4512,-6.2255,-6.4782,-6.5013,0.0,-6.432,-6.3166,-6.1012,-6.1793,-6.1562,-6.0781,-6.0781,-6.0781,-6.0781,-6.0781,-6.0781,-6.0659,-5.9916,-5.9424,-5.9009,-5.8216,-5.7997,-5.7997,-5.7997,-5.7997,-5.7997,-5.7997,-5.7997,-5.7997,-5.7997,-5.7997,-5.7997,-5.7997,-5.7997,-5.7997,-5.7997,-5.7997,-5.7997,-5.7997,-5.7997,-5.7997,-5.7997,-5.7997,-5.7997,-5.7997,-5.7997,-5.7997,-5.7997,-5.7997,-5.7997,-5.7997,-5.7997,-5.7997,-5.7997,-5.7997,-5.7997,-5.7997,-5.7997,-5.7997,-5.7997,-5.7997,-5.7997,-5.7997,-5.7997,-5.7997,-5.7997,-5.7997,-5.7997,0.0,-5.1641,-5.3437,-5.3437,-5.168,-4.9922,-4.9922,-4.8047,0.0,-4.6523,-4.8516,-4.9453,-4.6992,-4.8462,-4.9205,-4.6571,-5.0124,-5.2395,-5.0087,-5.2664,-5.4703,-5.4587,-5.6896,-5.905,-6.0473,-6.0742,-6.1166,-6.2024,-6.2781,-6.3628,-6.4551,-6.5359,-6.582,-6.5897,-6.5897,-6.5897,-6.5897,-6.5897,-6.582,-6.5628,-6.582,-6.4474,-6.1908,-6.4666,-6.4512,-6.2255,-6.4782,-6.5859,-6.5743,-6.4859,-6.4012,-6.3128,-6.232,-6.1524,-6.0781,-6.0781,-6.0781,-6.0781,-6.0781,-6.0781,-6.0734,-6.0203,-5.9424,-5.8611,-5.8142,-5.7997,-5.7997,-5.7997,-5.7997,-5.7997,-5.7997,-5.7997,-5.7997,-5.7997,-5.7997,-5.7997,-5.7997,-5.7997,-5.7997,-5.7997,-5.7997,-5.7997,-5.7997,-5.7997,-5.7997,-5.7997,-5.7997,-5.7997,-5.7997,-5.7997,-5.7997,-5.7997,-5.7997,-5.7997,-5.7997,-5.7997,-5.7997,-5.7997,-5.7997,-5.7997,-5.7997,-5.7997,-5.7997,-5.7997,-5.7997,-5.7997,-5.7997,-5.7997,-5.7997,-5.7997,-5.7997,-5.7997,-4.7031,0.0,-4.8125,-4.8125,-4.7656,-4.7226,0.0,-4.6758,-4.6875,0.0,-4.9766,-4.9999,-4.9278,-5.1073,-5.1841,-4.9181,-5.1224,-5.3241,-5.328,-5.5665,-5.6896,-5.5588,-5.8242,-5.9858,-5.8973,-6.005,-6.1166,-6.2024,-6.2293,-6.3012,-6.4512,-6.4782,-6.5205,-6.5859,-6.5897,-6.5897,-6.5897,-6.5897,-6.4897,-6.3024,-6.4974,-6.3551,-5.9358,-6.3858,-6.4512,-6.2255,-6.4782,-6.5513,-6.4859,-6.3974,-6.3128,-6.2281,-6.1435,-6.0973,-6.0781,-6.0781,-6.0781,-6.0781,-6.0781,-6.0781,-6.0647,-5.9839,-5.9158,-5.8611,-5.8142,-5.7997,-5.7997,-5.7997,-5.7997,-5.7997,-5.7997,-5.7997,-5.7997,-5.7997,-5.7997,-5.7997,-5.7997,-5.7997,-5.7997,-5.7997,-5.7997,-5.7997,-5.7997,-5.7997,-5.7997,-5.7997,-5.7997,-5.7997,-5.7997,-5.7997,-5.7997,-5.7997,-5.7997,-5.7997,-5.7997,-5.7997,-5.7997,-5.7997,-5.7997,-5.7997,-5.7997,-5.7997,-5.7997,-5.7997,-5.7997,-5.7997,-5.7997,-5.7997,-5.7997,-5.7997,-5.7997,-5.7997,-4.6289,-4.6289,-4.6601,-4.7773,-4.7187,-4.6601,-4.7812,0.0,0.0,0.0,0.0,-5.0155,-5.0008,-5.1027,-5.1369,-4.9857,-5.0966,-5.2741,-5.478,-5.6242,-5.6742,-5.5818,-5.7319,-5.8434,-5.8319,-5.9819,-6.1012,-6.1485,-6.187,-6.2524,-6.3397,-6.4166,-6.482,-6.5282,-6.5705,-6.5897,-6.5897,-6.5897,-6.482,-6.2666,-6.4859,-6.4051,-6.0704,-6.4282,-6.5128,-6.382,-6.3628,-6.3974,-6.4397,-6.2012,-6.1435,-6.2024,-6.1127,-6.0781,-6.0781,-6.0781,-6.0781,-6.0781,-6.0781,-6.0781,-6.0647,-5.9728,-5.9212,-5.8894,-5.8194,-5.7997,-5.7997,-5.7997,-5.7997,-5.7997,-5.7997,-5.7997,-5.7997,-5.7997,-5.7997,-5.7997,-5.7997,-5.7997,-5.7997,-5.7997,-5.7997,-5.7997,-5.7997,-5.7997,-5.7997,-5.7997,-5.7997,-5.7997,-5.7997,-5.7997,-5.7997,-5.7997,-5.7997,-5.7997,-5.7997,-5.7997,-5.7997,-5.7997,-5.7997,-5.7997,-5.7997,-5.7997,-5.7997,-5.7997,-5.7997,-5.7997,-5.7997,-5.7997,-5.7997,-5.7997,-5.7997,-5.7997,-4.6289,-4.6289,-4.6914,-4.9531,-4.8242,-4.6992,-4.9609,0.0,0.0,0.0,0.0,0.0,-5.0584,-5.1101,-5.1102,-4.9783,-5.0524,-5.2289,-5.5126,-5.5857,-5.6011,-5.5742,-5.6165,-5.6973,-5.8165,-5.9819,-6.0781,-6.0781,-6.1473,-6.1947,-6.2101,-6.3435,-6.4282,-6.4397,-6.5128,-6.5513,-6.5513,-6.5782,-6.4974,-6.3128,-6.5013,-6.4936,-6.3166,-6.5051,-6.582,-6.5551,-6.2627,-6.2474,-6.3935,-6.0358,-6.005,-6.1831,-6.1089,-6.0781,-6.0781,-6.0781,-6.0781,-6.0781,-6.0781,-6.0781,-6.0647,-5.9728,-5.9389,-5.9212,-5.8282,-5.7997,-5.7997,-5.7997,-5.7997,-5.7997,-5.7997,-5.7997,-5.7997,-5.7997,-5.7997,-5.7997,-5.7997,-5.7997,-5.7997,-5.7997,-5.7997,-5.7997,-5.7997,-5.7997,-5.7997,-5.7997,-5.7997,-5.7997,-5.7997,-5.7997,-5.7997,-5.7997,-5.7997,-5.7997,-5.7997,-5.7997,-5.7997,-5.7997,-5.7997,-5.7997,-5.7997,-5.7997,-5.7997,-5.7997,-5.7997,-5.7997,-5.7997,-5.7997,-5.7997,-5.7997,-5.7997,-5.807,-4.6289,-4.6289,-4.6914,-4.9531,-4.8242,-4.6992,-4.9609,0.0,0.0,0.0,0.0,0.0,-5.3182,-5.6656,-5.7314,-5.0533,-5.1963,-5.4087,-5.4626,-5.6549,-5.7357,-5.5895,-5.8242,-5.955,-5.8396,-5.9819,-6.0781,-6.0781,-6.0935,-6.132,-6.2062,-6.2332,-6.2781,-6.3462,-6.3628,-6.3705,-6.3705,-6.5166,-6.4666,-6.2332,-6.4743,-6.4628,-6.237,-6.4782,-6.5513,-6.4782,-6.4243,-6.3435,-6.2447,-6.1793,-6.132,-6.0973,-6.0858,-6.0781,-6.0781,-6.0781,-6.0781,-6.0781,-6.0781,-6.0781,-6.0647,-5.9728,-5.9389,-5.9212,-5.8282,-5.7997,-5.7997,-5.7997,-5.7997,-5.7997,-5.7997,-5.7997,-5.7997,-5.7997,-5.7997,-5.7997,-5.7997,-5.7997,-5.7997,-5.7997,-5.7997,-5.7997,-5.7997,-5.7997,-5.7997,-5.7997,-5.7997,-5.7997,-5.7997,-5.7997,-5.7997,-5.7997,-5.7997,-5.7997,-5.7997,-5.7997,-5.7997,-5.7997,-5.7997,-5.7997,-5.7997,-5.7997,-5.7997,-5.7997,-5.7997,-5.7997,-5.7997,-5.7997,-5.7997,-5.7997,-5.7997,-5.8364,-4.6289,-4.6289,-4.7266,-5.125,-4.9258,-4.7734,-5.3125,-5.0195,0.0,0.0,0.0,0.0,-5.3775,-5.4675,-5.4343,-5.2464,-5.5395,-5.7588,-5.6665,-5.755,-5.8011,-5.7203,-5.8473,-5.9165,-5.8357,-5.9819,-6.0781,-6.0781,-6.0781,-6.0973,-6.1358,-6.1831,-6.2293,-6.2627,-6.3089,-6.3308,-6.3308,-6.4089,-6.3435,-6.1396,-6.3512,-6.3397,-6.1473,-6.3551,-6.4282,-6.382,-6.1973,-6.155,-6.1947,-6.01,-5.9908,-6.0781,-6.0781,-6.0781,-6.0781,-6.0781,-6.0781,-6.0781,-6.0781,-6.0781,-6.0647,-5.9728,-5.9389,-5.9212,-5.8282,-5.7997,-5.7997,-5.7997,-5.7997,-5.7997,-5.7997,-5.7997,-5.7997,-5.7997,-5.7997,-5.7997,-5.7997,-5.7997,-5.7997,-5.7997,-5.7997,-5.7997,-5.7997,-5.7997,-5.7997,-5.7997,-5.7997,-5.7997,-5.7997,-5.7997,-5.7997,-5.7997,-5.7997,-5.7997,-5.7997,-5.7997,-5.7997,-5.7997,-5.7997,-5.7997,-5.7997,-5.7997,-5.7997,-5.7997,-5.7997,-5.7997,-5.7997,-5.7997,-5.829,-5.8864,-5.8864,-5.9208,-4.6289,-4.6289,-4.7383,-5.1953,-4.9687,-4.8359,-5.6133,-5.2031,-4.875,-5.6286,-5.2715,-4.9692,-5.4534,-5.2873,-5.1782,-5.4888,-5.8088,-5.9896,-5.9011,-5.8896,-5.8896,-5.8896,-5.8896,-5.8896,-5.8896,-6.005,-6.0781,-6.0781,-6.0781,-6.0781,-6.0781,-6.1435,-6.1793,-6.1793,-6.2397,-6.2704,-6.2704,-6.2704,-6.2281,-6.1396,-6.2704,-6.2627,-6.1435,-6.2704,-6.3205,-6.2897,-6.0319,-6.0165,-6.1601,-5.8984,-5.905,-6.0781,-6.0781,-6.0781,-6.0781,-6.0781,-6.0781,-6.0781,-6.0781,-6.0781,-6.0647,-5.9728,-5.9389,-5.9212,-5.8282,-5.7997,-5.7997,-5.7997,-5.7997,-5.7997,-5.7997,-5.7997,-5.7997,-5.7997,-5.7997,-5.7997,-5.7997,-5.7997,-5.7997,-5.7997,-5.7997,-5.7997,-5.7997,-5.7997,-5.7997,-5.7997,-5.7997,-5.7997,-5.7997,-5.7997,-5.7997,-5.7997,-5.7997,-5.7997,-5.7997,-5.7997,-5.7997,-5.801,-5.7997,-5.7997,-5.7997,-5.7997,-5.7997,-5.7997,-5.8764,-5.9117,-5.9117,-5.8887,-5.9158,-5.9989,-5.9856,-6.0113,-4.6289,-4.6289,-4.6953,-4.9766,-4.8359,-4.8359,-5.6133,-5.25,-4.9412,-5.6209,-5.5918,-5.496,-5.6728,-5.5459,-5.4993,-5.7588,-5.828,-5.8973,-6.0435,-6.0627,-6.0627,-6.0627,-6.0627,-6.0627,-6.0627,-6.0742,-6.0781,-6.0781,-6.0781,-6.0781,-6.0781,-6.0858,-6.0896,-6.0896,-6.0935,-6.0973,-6.0973,-6.0973,-6.1704,-6.3128,-6.3231,-6.3231,-6.3128,-6.3231,-6.2897,-6.2178,-6.1947,-6.1485,-6.0858,-6.0627,-6.0627,-6.0781,-6.0781,-6.0781,-6.0781,-6.0781,-6.0781,-6.0781,-6.0781,-6.0781,-6.0647,-5.9728,-5.9389,-5.9212,-5.8282,-5.7997,-5.7997,-5.7997,-5.7997,-5.7997,-5.7997,-5.7997,-5.7997,-5.7997,-5.7997,-5.7997,-5.7997,-5.7997,-5.7997,-5.7997,-5.7997,-5.7997,-5.7997,-5.7997,-5.7997,-5.7997,-5.7997,-5.7997,-5.7997,-5.7997,-5.7997,-5.7997,-5.7997,-5.7997,-5.7997,-5.7997,-5.7987,-5.8004,-5.7987,-5.7997,-5.7997,-5.7997,-5.7997,-5.7997,-6.0913,-6.2432,-6.2432,-6.1469,-6.1005,-6.1042,-6.0553,-6.075,-4.6289,-4.6289,-4.7305,-5.1523,-4.9414,-4.8359,-5.6133,-5.3313,-5.1148,-5.8623,-5.6035,-5.2751,-5.3721,-5.5545,-5.7165,-5.8127,-5.9165,-6.0089,-6.0704,-6.0781,-6.0781,-6.0781,-6.0781,-6.0781,-6.0781,-6.0781,-6.0781,-6.0781,-6.0781,-6.0781,-6.0781,-6.0781,-6.0781,-6.0781,-6.0781,-6.0781,-6.0781,-6.0781,-6.1127,-6.1743,-6.1743,-6.1743,-6.1743,-6.1743,-6.1589,-6.1281,-6.1281,-6.1089,-6.0781,-6.0781,-6.0781,-6.0781,-6.0781,-6.0781,-6.0781,-6.0781,-6.0781,-6.0781,-6.0781,-6.0781,-6.0647,-5.9728,-5.9389,-5.9212,-5.8282,-5.7997,-5.7997,-5.7997,-5.7997,-5.7997,-5.7997,-5.7997,-5.7997,-5.7997,-5.7997,-5.7997,-5.7997,-5.7997,-5.7997,-5.7997,-5.7997,-5.7997,-5.7997,-5.7997,-5.7997,-5.7997,-5.7997,-5.7997,-5.7997,-5.8437,-5.8767,-5.8767,-5.9208,-5.9501,-5.9501,-5.9197,-5.899,-5.898,-5.838,-5.799,-5.7993,-5.7993,-5.8954,-6.0953,-6.219,-6.2472,-6.1787,-6.1384,-6.1299,-6.1435,-6.1251,-6.1594,-4.6289,-4.6289,-4.7344,-5.1719,0.0,-4.832,-5.605,-5.3914,-5.2283,-5.9308,-5.7114,-5.3955,-5.3916,-5.6319,-5.8319,-5.8319,-5.9242,-6.0204,-6.0742,-6.0781,-6.0781,-6.0781,-6.0781,-6.0781,-6.0781,-6.0781,-6.0781,-6.0781,-6.0781,-6.0781,-6.0781,-6.0781,-6.0781,-6.0781,-6.0781,-6.0781,-6.0781,-6.0781,-6.0781,-6.0781,-6.0781,-6.0781,-6.0781,-6.0781,-6.0781,-6.0781,-6.0781,-6.0781,-6.0781,-6.0781,-6.0781,-6.0781,-6.0781,-6.0781,-6.0781,-6.0781,-6.0781,-6.0781,-6.0781,-6.0781,-6.0647,-5.9728,-5.9492,-5.9407,-5.8348,-5.8194,-5.8375,-5.8074,-5.8097,-5.8209,-5.8042,-5.7997,-5.7997,-5.7997,-5.7997,-5.7997,-5.7997,-5.7997,-5.7997,-5.7997,-5.7997,-5.7997,-5.7997,-5.8217,-5.84,-5.84,-5.8584,-5.8767,-5.8767,-5.9245,-5.9588,-5.9588,-6.0089,-6.0419,-6.0419,-5.9907,-5.9663,-5.9822,-5.8688,-5.7995,-5.8007,-5.9005,-6.0553,-6.278,-6.2793,-6.245,-6.1691,-6.1704,-6.1802,-6.1998,-6.1998,-6.2291,-4.6328,-4.6328,-4.6914,-4.9531,-4.8242,-4.8318,-5.5853,-5.4267,-5.2636,-5.767,-5.983,-6.0292,-5.8588,-5.8319,-5.8319,-5.8319,-5.8319,-5.8896,-6.055,-6.0781,-6.0781,-6.0781,-6.0781,-6.0781,-6.0781,-6.0781,-6.0781,-6.0781,-6.0781,-6.0781,-6.0781,-6.0781,-6.0781,-6.0781,-6.0781,-6.0781,-6.0781,-6.0781,-6.0781,-6.0781,-6.0781,-6.0781,-6.0781,-6.0781,-6.0781,-6.0781,-6.0781,-6.0781,-6.0781,-6.0781,-6.0781,-6.0781,-6.0781,-6.0781,-6.0781,-6.0781,-6.0781,-6.0781,-6.0781,-6.0781,-6.0647,-5.9728,-5.9744,-5.9839,-5.8439,-5.8673,-5.9194,-5.826,-5.8311,-5.8591,-5.8119,-5.7997,-5.7997,-5.7997,-5.7997,-5.7997,-5.7997,-5.7997,-5.7997,-5.7997,-5.7997,-5.7997,-5.8033,-5.8694,-5.9184,-5.9184,-5.9905,-6.0419,-6.0419,-6.0419,-6.0419,-6.0419,-6.0419,-6.0419,-6.0419,-5.9944,-5.9883,-6.0408,-5.8933,-5.8057,-5.8044,-6.1116,-6.2817,-6.2817,-6.2818,-6.2806,-6.2806,-6.2818,-6.278,-6.278,-6.278,-6.278,-4.8555,-4.7695,-4.6914,-4.9531,-4.9609,-4.992,-5.3244,-5.3496,0.0,-5.7779,-5.8897,-5.8636,-5.6823,-5.8434,-5.9665,-5.8511,-5.9281,-6.0242,-6.0742,-6.0781,-6.0781,-6.0781,-6.0781,-6.0781,-6.0781,-6.0781,-6.0781,-6.0781,-6.0781,-6.0781,-6.0781,-6.0781,-6.0781,-6.0781,-6.0781,-6.0781,-6.0781,-6.0781,-6.0781,-6.0781,-6.0781,-6.0781,-6.0781,-6.0781,-6.0781,-6.0781,-6.0781,-6.0781,-6.0781,-6.0781,-6.0781,-6.0781,-6.0781,-6.0781,-6.0781,-6.0781,-6.0781,-6.0781,-6.0781,-6.0781,-6.0722,-6.0103,-5.9977,-5.9901,-5.8815,-5.8693,-5.8776,-5.8186,-5.8097,-5.8186,-5.8042,-5.7997,-5.7997,-5.7997,-5.7997,-5.7997,-5.7997,-5.7997,-5.818,-5.8731,-5.8841,-5.9024,-5.9612,-5.9905,-6.0052,-6.0052,-6.0272,-6.0603,-6.1153,-6.1227,-6.1447,-6.2034,-6.2108,-6.2108,-6.2108,-6.1936,-6.1911,-6.2095,-6.1642,-6.1397,-6.1385,-6.2316,-6.2806,-6.2806,-6.2818,-6.2793,-6.2793,-6.2805,-6.278,-6.278,-6.278,-6.278,-4.9766,-4.9062,-4.8711,-5.2344,-5.1912,-5.1117,-5.3007,-5.4074,-5.5551,-5.8758,-5.9428,-5.907,-5.7929,-5.9396,-6.0473,-5.9473,-6.0127,-6.0781,-6.0781,-6.0781,-6.0781,-6.0781,-6.0781,-6.0781,-6.0781,-6.0781,-6.0781,-6.0781,-6.0781,-6.0781,-6.0781,-6.0781,-6.0781,-6.0781,-6.0781,-6.0781,-6.0781,-6.0781,-6.0781,-6.0781,-6.0781,-6.0781,-6.0781,-6.0781,-6.0781,-6.0781,-6.0781,-6.0781,-6.0781,-6.0781,-6.0781,-6.0781,-6.0781,-6.0781,-6.0781,-6.0781,-6.0781,-6.0781,-6.0781,-6.0781,-6.0734,-6.0231,-6.0217,-6.0189,-5.9248,-5.9102,-5.9102,-5.8482,-5.8282,-5.8238,-5.8065,-5.8253,-5.84,-5.807,-5.8253,-5.8474,-5.8474,-5.8731,-5.9098,-5.9575,-5.9661,-5.9832,-6.0309,-6.0676,-6.0896,-6.0896,-6.1153,-6.152,-6.1998,-6.2071,-6.2254,-6.2743,-6.278,-6.278,-6.278,-6.278,-6.278,-6.278,-6.278,-6.278,-6.278,-6.278,-6.278,-6.278,-6.278,-6.278,-6.278,-6.278,-6.278,-6.278,-6.278,-6.278,-5.0469,-5.0391,-5.1328,-5.6015,-5.4165,-5.1947,-5.4796,-5.579,-5.7012,-6.0179,-6.0689,-6.0627,-6.0781,-6.0781,-6.0781,-6.0781,-6.0781,-6.0781,-6.0781,-6.0781,-6.0781,-6.0781,-6.0781,-6.0781,-6.0781,-6.0781,-6.0781,-6.0781,-6.0781,-6.0781,-6.0781,-6.0781,-6.0781,-6.0781,-6.0781,-6.0781,-6.0781,-6.0781,-6.0781,-6.0781,-6.0781,-6.0781,-6.0781,-6.0781,-6.0781,-6.0781,-6.0781,-6.0781,-6.0781,-6.0781,-6.0781,-6.0781,-6.0781,-6.0781,-6.0781,-6.0781,-6.0781,-6.0781,-6.0781,-6.0781,-6.0734,-6.0311,-6.0456,-6.0634,-5.976,-5.9744,-5.9855,-5.8971,-5.871,-5.864,-5.8207,-5.8731,-5.9111,-5.84,-5.8767,-5.9294,-5.9294,-5.9905,-6.0419,-6.0493,-6.0529,-6.0529,-6.0603,-6.1227,-6.1704,-6.1704,-6.2328,-6.278,-6.278,-6.278,-6.278,-6.278,-6.278,-6.278,-6.278,-6.278,-6.278,-6.278,-6.278,-6.278,-6.278,-6.278,-6.278,-6.278,-6.278,-6.278,-6.278,-6.278,-6.278,-6.278,-6.278,-6.278,-5.2656,-5.1719,-5.0469,-5.1562,-5.1438,-5.2552,-5.8389,-5.8712,-5.8371,-6.051,-5.983,-5.9242,-6.055,-6.0781,-6.0781,-6.0781,-6.0781,-6.0781,-6.0781,-6.0781,-6.0781,-6.0781,-6.0781,-6.0781,-6.0781,-6.0781,-6.0781,-6.0781,-6.0781,-6.0781,-6.0781,-6.0781,-6.0781,-6.0781,-6.0781,-6.0781,-6.0781,-6.0781,-6.0781,-6.0781,-6.0781,-6.0781,-6.0781,-6.0781,-6.0781,-6.0781,-6.0781,-6.0781,-6.0781,-6.0781,-6.0781,-6.0781,-6.0781,-6.0781,-6.0781,-6.0781,-6.0781,-6.0781,-6.0781,-6.0781,-6.0769,-6.0671,-6.0734,-6.0671,-6.0132,-5.9776,-5.9424,-5.8855,-5.8863,-5.9076,-5.8974,-5.9538,-6.0126,-5.9905,-6.0015,-6.0162,-6.0162,-6.0272,-6.0603,-6.1227,-6.1337,-6.1557,-6.2181,-6.2438,-6.2548,-6.2548,-6.2695,-6.278,-6.278,-6.278,-6.278,-6.278,-6.278,-6.278,-6.278,-6.278,-6.278,-6.278,-6.278,-6.278,-6.278,-6.278,-6.278,-6.278,-6.278,-6.278,-6.278,-6.278,-6.278,-6.278,-6.278,-6.278,-5.1836,-5.2109,-5.2381,-5.3871,-5.502,-5.6497,-5.909,-5.9584,-5.9749,-6.071,-6.0162,-5.9742,-6.0627,-6.0781,-6.0781,-6.0781,-6.0781,-6.0781,-6.0781,-6.0781,-6.0781,-6.0781,-6.0781,-6.0781,-6.0781,-6.0781,-6.0781,-6.0781,-6.0781,-6.0781,-6.0781,-6.0781,-6.0781,-6.0781,-6.0781,-6.0781,-6.0781,-6.0781,-6.0781,-6.0781,-6.0781,-6.0781,-6.0781,-6.0781,-6.0781,-6.0781,-6.0781,-6.0781,-6.0781,-6.0781,-6.0781,-6.0781,-6.0781,-6.0781,-6.0781,-6.0781,-6.0781,-6.0781,-6.0781,-6.0781,-6.0781,-6.0781,-6.0781,-6.0757,-6.0508,-6.0118,-5.9739,-5.9628,-5.9587,-5.9553,-5.9719,-6.0382,-6.097,-6.097,-6.097,-6.097,-6.097,-6.13,-6.1667,-6.2108,-6.2181,-6.2328,-6.2732,-6.278,-6.278,-6.278,-6.278,-6.278,-6.278,-6.278,-6.278,-6.278,-6.278,-6.278,-6.278,-6.278,-6.278,-6.278,-6.278,-6.278,-6.278,-6.278,-6.278,-6.278,-6.278,-6.278,-6.278,-6.278,-6.278,-6.278,-6.278,-6.278,-5.0195,-5.2031,-5.4674,-5.7736,-5.91,-5.9541,-5.8886,-5.9473,-6.0281,-6.0704,-6.0781,-6.0781,-6.0781,-6.0781,-6.0781,-6.0781,-6.0781,-6.0781,-6.0781,-6.0781,-6.0781,-6.0781,-6.0781,-6.0781,-6.0781,-6.0781,-6.0781,-6.0781,-6.0781,-6.0781,-6.0781,-6.0781,-6.0781,-6.0781,-6.0781,-6.0781,-6.0781,-6.0781,-6.0781,-6.0781,-6.0781,-6.0781,-6.0781,-6.0781,-6.0781,-6.0781,-6.0781,-6.0781,-6.0781,-6.0781,-6.0781,-6.0781,-6.0781,-6.0781,-6.0781,-6.0781,-6.0781,-6.0781,-6.0781,-6.0781,-6.0781,-6.0781,-6.0781,-6.0781,-6.0781,-6.0506,-6.0228,-6.0516,-6.0393,-6.0262,-6.0538,-6.119,-6.1814,-6.1814,-6.1814,-6.1814,-6.1814,-6.2328,-6.278,-6.278,-6.278,-6.278,-6.278,-6.278,-6.278,-6.278,-6.278,-6.278,-6.278,-6.278,-6.278,-6.278,-6.278,-6.278,-6.278,-6.278,-6.278,-6.278,-6.278,-6.278,-6.278,-6.278,-6.278,-6.278,-6.278,-6.278,-6.278,-6.278,-6.278,-6.278,-6.278,-6.278,-5.0195,0.0,-5.442,0.0,-5.5959,-5.5474,-5.9529,-5.8934,-5.8138,-6.0319,-6.0781,-6.0781,-6.0781,-6.0781,-6.0781,-6.0781,-6.0781,-6.0781,-6.0781,-6.0781,-6.0781,-6.0781,-6.0781,-6.0781,-6.0781,-6.0781,-6.0781,-6.0781,-6.0781,-6.0781,-6.0781,-6.0781,-6.0781,-6.0781,-6.0781,-6.0781,-6.0781,-6.0781,-6.0781,-6.0781,-6.0781,-6.0781,-6.0781,-6.0781,-6.0781,-6.0781,-6.0781,-6.0781,-6.0781,-6.0781,-6.0781,-6.0781,-6.0781,-6.0781,-6.0781,-6.0781,-6.0781,-6.0781,-6.0781,-6.0781,-6.0781,-6.0781,-6.0781,-6.0781,-6.0781,-6.0695,-6.0536,-6.0579,-6.0953,-6.136,-6.1435,-6.2034,-6.2658,-6.2658,-6.2658,-6.2658,-6.2658,-6.2707,-6.278,-6.278,-6.278,-6.278,-6.278,-6.278,-6.278,-6.278,-6.278,-6.278,-6.278,-6.278,-6.278,-6.278,-6.278,-6.278,-6.278,-6.278,-6.278,-6.278,-6.278,-6.278,-6.278,-6.278,-6.278,-6.278,-6.278,-6.278,-6.278,-6.278,-6.278,-6.278,-6.278,-6.278,-5.1469,-5.1911,-5.2916,0.0,-5.6498,-5.4776,-5.9756,-5.8925,-5.7824,-6.0277,-6.0781,-6.0781,-6.0781,-6.0781,-6.0781,-6.0781,-6.0781,-6.0781,-6.0781,-6.0781,-6.0781,-6.0781,-6.0781,-6.0781,-6.0781,-6.0781,-6.0781,-6.0781,-6.0781,-6.0781,-6.0781,-6.0781,-6.0781,-6.0781,-6.0781,-6.0781,-6.0781,-6.0781,-6.0781,-6.0781,-6.0781,-6.0781,-6.0781,-6.0781,-6.0781,-6.0781,-6.0781,-6.0781,-6.0781,-6.0781,-6.0781,-6.0781,-6.0781,-6.0781,-6.0781,-6.0781,-6.0781,-6.0781,-6.0781,-6.0781,-6.0781,-6.0781,-6.0781,-6.0781,-6.0781,-6.0884,-6.1039,-6.1218,-6.164,-6.2022,-6.2218,-6.2548,-6.278,-6.278,-6.278,-6.278,-6.278,-6.278,-6.278,-6.278,-6.278,-6.278,-6.278,-6.278,-6.278,-6.278,-6.278,-6.278,-6.278,-6.278,-6.278,-6.278,-6.278,-6.278,-6.278,-6.278,-6.278,-6.278,-6.278,-6.278,-6.278,-6.278,-6.278,-6.278,-6.278,-6.278,-6.278,-6.278,-6.278,-6.278,-6.278,-6.278,0.0,0.0,-5.1369,-5.7754,-5.5877,-5.3628,0.0,-5.7559,-5.6869,-5.9326,-6.0358,-6.0781,-6.0781,-6.0781,-6.0781,-6.0781,-6.0781,-6.0781,-6.0781,-6.0781,-6.0781,-6.0781,-6.0781,-6.0781,-6.0781,-6.0781,-6.0781,-6.0781,-6.0781,-6.0781,-6.0781,-6.0781,-6.0781,-6.0781,-6.0781,-6.0781,-6.0781,-6.0781,-6.0781,-6.0781,-6.0781,-6.0781,-6.0781,-6.0781,-6.0781,-6.0781,-6.0781,-6.0781,-6.0781,-6.0781,-6.0781,-6.0781,-6.0781,-6.0781,-6.0781,-6.0781,-6.0781,-6.0781,-6.0781,-6.0781,-6.0781,-6.0781,-6.0781,-6.0808,-6.0903,-6.1148,-6.1484,-6.1845,-6.216,-6.2493,-6.272,-6.278,-6.278,-6.278,-6.278,-6.278,-6.278,-6.278,-6.278,-6.278,-6.278,-6.278,-6.278,-6.278,-6.278,-6.278,-6.278,-6.278,-6.278,-6.278,-6.278,-6.278,-6.278,-6.278,-6.278,-6.278,-6.278,-6.278,-6.278,-6.278,-6.278,-6.278,-6.278,-6.278,-6.278,-6.278,-6.278,-6.278,-6.278,-6.278,-6.278,-6.278,0.0,-4.9193,0.0,-5.328,-5.1802,-5.0373,-5.3172,-5.3599,-5.4136,-5.6676,-5.9138,-6.0781,-6.0781,-6.0781,-6.0781,-6.0781,-6.0781,-6.0781,-6.0781,-6.0781,-6.0781,-6.0781,-6.0781,-6.0781,-6.0781,-6.0781,-6.0781,-6.0781,-6.0781,-6.0781,-6.0781,-6.0781,-6.0781,-6.0781,-6.0781,-6.0781,-6.0781,-6.0781,-6.0781,-6.0781,-6.0781,-6.0781,-6.0781,-6.0781,-6.0781,-6.0781,-6.0781,-6.0781,-6.0781,-6.0781,-6.0781,-6.0781,-6.0781,-6.0781,-6.0781,-6.0781,-6.0781,-6.0781,-6.0781,-6.0781,-6.0781,-6.0781,-6.0781,-6.0875,-6.1158,-6.1506,-6.1826,-6.2176,-6.2535,-6.2793,-6.2805,-6.278,-6.278,-6.278,-6.278,-6.278,-6.278,-6.278,-6.278,-6.278,-6.278,-6.278,-6.278,-6.278,-6.278,-6.278,-6.278,-6.278,-6.278,-6.278,-6.278,-6.278,-6.278,-6.278,-6.278,-6.278,-6.278,-6.278,-6.278,-6.278,-6.278,-6.278,-6.278,-6.278,-6.278,-6.278,-6.278,-6.278,-6.278,-6.278,-6.278,-6.278,0.0,0.0,0.0,-5.1793,-4.9905,-4.8231,-5.246,-5.3373,-5.356,-5.4388,-5.7896,-6.0281,-5.8676,-5.9704,-6.0781,-6.0781,-6.0781,-6.0781,-6.0781,-6.0781,-6.0781,-6.0781,-6.0781,-6.0781,-6.0781,-6.0781,-6.0781,-6.0781,-5.9292,-5.9061,-6.0704,-5.9254,-5.9088,-6.0742,-6.0781,-6.0781,-6.0781,-6.0781,-6.0781,-6.0781,-6.0781,-6.0781,-6.0781,-6.0781,-6.0781,-6.0781,-6.0781,-6.0781,-6.0781,-6.0781,-6.0781,-6.0781,-6.0781,-6.0781,-6.0781,-6.0781,-6.0781,-6.0781,-6.0781,-6.0781,-6.0781,-6.0781,-6.0942,-6.1124,-6.1247,-6.1684,-6.2164,-6.2252,-6.2526,-6.278,-6.278,-6.278,-6.278,-6.278,-6.278,-6.278,-6.278,-6.278,-6.278,-6.278,-6.278,-6.278,-6.278,-6.278,-6.278,-6.278,-6.278,-6.278,-6.278,-6.278,-6.278,-6.278,-6.278,-6.278,-6.278,-6.278,-6.278,-6.278,-6.278,-6.278,-6.278,-6.278,-6.278,-6.278,-6.278,-6.278,-6.278,-6.278,-6.278,-6.278,-6.278,-6.278,-4.4981,0.0,0.0,0.0,-4.7695,-4.6705,-5.0072,-5.2152,-5.3299,-5.3233,-5.7242,-6.0281,-5.8599,-5.9665,-6.0781,-6.0781,-6.0781,-6.0781,-6.0781,-6.0781,-6.0781,-6.0781,-6.0781,-6.0781,-6.0781,-6.0781,-6.0781,-6.0781,-5.9254,-5.9023,-6.0704,-5.9215,-5.905,-6.0742,-6.0781,-6.0781,-6.0781,-6.0781,-6.0781,-6.0781,-6.0781,-6.0781,-6.0781,-6.0781,-6.0781,-6.0781,-6.0781,-6.0781,-6.0781,-6.0781,-6.0781,-6.0781,-6.0781,-6.0781,-6.0781,-6.0781,-6.0781,-6.0781,-6.0781,-6.0781,-6.0781,-6.0781,-6.1031,-6.1325,-6.1413,-6.1845,-6.2315,-6.245,-6.2643,-6.278,-6.278,-6.278,-6.278,-6.278,-6.278,-6.278,-6.278,-6.278,-6.278,-6.278,-6.278,-6.278,-6.278,-6.278,-6.278,-6.278,-6.278,-6.278,-6.278,-6.278,-6.278,-6.278,-6.278,-6.278,-6.278,-6.278,-6.278,-6.278,-6.278,-6.278,-6.278,-6.278,-6.278,-6.278,-6.278,-6.278,-6.278,-6.278,-6.278,-6.278,-6.278,-6.278,0.0,0.0,0.0,-4.4414,-4.5017,-4.5616,-4.5768,-4.9586,-5.3087,-5.3087,-5.7126,-6.0704,-6.0704,-6.0742,-6.0781,-6.0781,-6.0781,-6.0781,-6.0781,-6.0781,-6.0781,-6.0781,-6.0781,-6.0781,-6.0781,-6.0781,-6.0781,-6.0781,-6.0742,-6.0704,-6.0781,-6.0781,-6.0781,-6.0781,-6.0781,-6.0781,-6.0781,-6.0781,-6.0781,-6.0781,-6.0781,-6.0781,-6.0781,-6.0781,-6.0781,-6.0781,-6.0781,-6.0781,-6.0781,-6.0781,-6.0781,-6.0781,-6.0781,-6.0781,-6.0781,-6.0781,-6.0781,-6.0781,-6.0781,-6.0781,-6.0781,-6.0808,-6.1056,-6.1377,-6.1725,-6.2044,-6.2354,-6.2696,-6.278,-6.278,-6.278,-6.278,-6.278,-6.278,-6.278,-6.278,-6.278,-6.278,-6.278,-6.278,-6.278,-6.278,-6.278,-6.278,-6.278,-6.278,-6.278,-6.278,-6.278,-6.278,-6.278,-6.278,-6.278,-6.278,-6.278,-6.278,-6.278,-6.278,-6.278,-6.278,-6.278,-6.278,-6.278,-6.278,-6.278,-6.278,-6.278,-6.278,-6.278,-6.278,-6.278,-6.278,-4.1046,0.0,0.0,0.0,0.0,0.0,-4.5517,-4.8132,-5.0433,-5.0433,-5.4511,-5.8061,-5.8061,-5.955,-6.0781,-6.0781,-6.0781,-6.0781,-6.0781,-6.0781,-6.0781,-6.0781,-6.0781,-6.0781,-6.0781,-6.0781,-6.0781,-6.0781,-5.9088,-5.8869,-6.0704,-6.0781,-6.0781,-6.0781,-6.0781,-6.0781,-6.0781,-6.0781,-6.0781,-6.0781,-6.0781,-6.0781,-6.0781,-6.0781,-6.0781,-6.0781,-6.0781,-6.0781,-6.0781,-6.0781,-6.0781,-6.0781,-6.0781,-6.0781,-6.0781,-6.0781,-6.0781,-6.0781,-6.0781,-6.0781,-6.0861,-6.1092,-6.14,-6.1745,-6.2061,-6.2406,-6.2671,-6.2757,-6.278,-6.278,-6.278,-6.278,-6.278,-6.278,-6.278,-6.278,-6.278,-6.278,-6.278,-6.278,-6.278,-6.278,-6.278,-6.278,-6.278,-6.278,-6.278,-6.278,-6.278,-6.278,-6.278,-6.278,-6.278,-6.278,-6.278,-6.278,-6.278,-6.278,-6.278,-6.278,-6.278,-6.278,-6.278,-6.278,-6.278,-6.278,-6.278,-6.278,-6.278,-6.278,-6.278,-6.278,0.0,0.0,0.0,-4.3585,0.0,0.0,-4.5479,-4.8394,-5.0971,-5.0971,-5.5049,-5.8253,-5.7203,-5.8204,-5.9204,-5.9204,-5.9204,-5.9588,-6.0666,-6.0781,-6.0781,-6.0781,-6.0781,-6.0781,-6.0781,-6.0781,-6.0781,-6.0781,-5.9396,-5.9254,-6.0704,-6.0781,-6.0781,-6.0781,-6.0781,-6.0781,-6.0781,-6.0781,-6.0781,-6.0781,-6.0781,-6.0781,-6.0781,-6.0781,-6.0781,-6.0781,-6.0781,-6.0781,-6.0781,-6.0781,-6.0781,-6.0781,-6.0781,-6.0781,-6.0781,-6.0781,-6.0781,-6.0781,-6.0781,-6.105,-6.1373,-6.158,-6.1955,-6.2391,-6.2571,-6.2717,-6.278,-6.278,-6.278,-6.278,-6.278,-6.278,-6.278,-6.278,-6.278,-6.278,-6.278,-6.278,-6.278,-6.278,-6.278,-6.278,-6.278,-6.278,-6.278,-6.278,-6.278,-6.278,-6.278,-6.278,-6.278,-6.278,-6.278,-6.278,-6.278,-6.278,-6.278,-6.278,-6.278,-6.278,-6.278,-6.278,-6.278,-6.278,-6.278,-6.2989,-6.3356,-6.2989,-6.278,-6.278,-6.3172,-6.3356,0.0,0.0,0.0,-4.4278,-4.4893,0.0,-4.5594,-4.9086,-5.2433,-5.2741,-5.6395,-5.8934,-5.6923,-5.6588,-5.6599,-5.6599,-5.6588,-5.7473,-6.0012,-6.0627,-6.0704,-6.0396,-6.0627,-6.0781,-6.0781,-6.0781,-6.0781,-6.0781,-6.0781,-6.0781,-6.0781,-6.0781,-6.0781,-6.0781,-6.0781,-6.0781,-6.0781,-6.0781,-6.0781,-6.0781,-6.0781,-6.0781,-6.0781,-6.0781,-6.0781,-6.0781,-6.0781,-6.0781,-6.0781,-6.0781,-6.0781,-6.0781,-6.0781,-6.0781,-6.0781,-6.0781,-6.0781,-6.0781,-6.0781,-6.1334,-6.2028,-6.2029,-6.2521,-6.3013,-6.3068,-6.2947,-6.278,-6.278,-6.278,-6.278,-6.278,-6.278,-6.278,-6.278,-6.278,-6.278,-6.278,-6.278,-6.278,-6.278,-6.278,-6.278,-6.278,-6.278,-6.278,-6.278,-6.278,-6.278,-6.278,-6.278,-6.278,-6.278,-6.278,-6.278,-6.278,-6.278,-6.278,-6.278,-6.278,-6.278,-6.278,-6.289,-6.2952,-6.2952,-6.3,-6.3466,-6.4237,-6.3392,-6.2989,-6.3074,-6.387,-6.4237,-4.2893,-4.3085,-4.3508,-4.4124,-4.4432,0.0,-4.5441,-4.6364,-4.7663,-4.9702,-5.0933,-5.2087,-5.3664,-5.3933,-5.3933,-5.3933,-5.3933,-5.4818,-5.7368,-5.9511,-6.005,-5.7984,-5.955,-6.0781,-6.0781,-6.0781,-6.0781,-6.0781,-6.0781,-6.0781,-6.0781,-6.0781,-6.0781,-6.0781,-6.0781,-6.0781,-6.0781,-6.0781,-6.0781,-6.0781,-6.0781,-6.0781,-6.0781,-6.0781,-6.0781,-6.0781,-6.0781,-6.0781,-6.0781,-6.0781,-6.0781,-6.0781,-6.0781,-6.0781,-6.0781,-6.0781,-6.0781,-6.0781,-6.0781,-6.1096,-6.1506,-6.1771,-6.2128,-6.2519,-6.2794,-6.2831,-6.278,-6.278,-6.278,-6.278,-6.278,-6.278,-6.278,-6.278,-6.278,-6.278,-6.278,-6.278,-6.278,-6.278,-6.278,-6.278,-6.278,-6.278,-6.278,-6.278,-6.278,-6.278,-6.278,-6.278,-6.278,-6.278,-6.278,-6.278,-6.278,-6.278,-6.278,-6.278,-6.278,-6.278,-6.278,-6.3466,-6.3833,-6.3833,-6.4494,-6.4897,-6.5081,-6.4237,-6.4163,-6.4824,-6.5007,-6.5081,-4.3816,-4.4008,-4.4432,-4.4863,-4.494,0.0,0.0,-4.6595,-4.7855,-4.9125,-5.0394,-5.1318,-5.1318,-5.1318,-5.1318,-5.1318,-5.1318,-5.1741,-5.301,-5.6511,-5.8896,-5.8907,-6.0012,-6.0781,-6.0781,-6.0781,-6.0781,-6.0781,-6.0781,-6.0781,-6.0781,-6.0781,-6.0781,-6.0781,-6.0781,-6.0781,-6.0781,-6.0781,-6.0781,-6.0781,-6.0781,-6.0781,-6.0781,-6.0781,-6.0781,-6.0781,-6.0781,-6.0781,-6.0781,-6.0781,-6.0781,-6.0781,-6.0781,-6.0781,-6.0781,-6.0781,-6.0781,-6.0858,-6.1281,-6.167,-6.2048,-6.2601,-6.288,-6.2984,-6.3137,-6.3014,-6.278,-6.278,-6.278,-6.278,-6.278,-6.278,-6.278,-6.278,-6.278,-6.278,-6.278,-6.278,-6.278,-6.278,-6.278,-6.278,-6.278,-6.278,-6.278,-6.278,-6.278,-6.278,-6.278,-6.3172,-6.3466,-6.3466,-6.3833,-6.4053,-6.4053,-6.4053,-6.4053,-6.4053,-6.4053,-6.4053,-6.4053,-6.4457,-6.4714,-6.4714,-6.5081,-6.5521,-6.5888,-6.5485,-6.5301,-6.5301,-6.5705,-6.5888,-4.4739,-4.5056,-4.5594,-4.5594,-4.5594,-4.5594,0.0,0.0,0.0,-4.8663,-5.0317,-5.1125,-4.9048,-4.8663,-4.8663,-4.8663,-4.8663,-4.8856,-4.9317,-5.2933,-5.6319,-5.8357,-5.905,-5.9319,-5.9319,-5.9781,-6.0281,-6.0742,-6.0781,-6.0781,-6.0781,-6.0781,-6.0781,-6.0781,-6.0781,-6.0781,-6.0781,-6.0781,-6.0781,-6.0781,-6.0781,-6.0781,-6.0781,-6.0781,-6.0781,-6.0781,-6.0781,-6.0781,-6.0781,-6.0781,-6.0781,-6.0781,-6.0781,-6.0781,-6.0781,-6.0781,-6.0896,-6.1127,-6.187,-6.2358,-6.2823,-6.3432,-6.3559,-6.3453,-6.3453,-6.3144,-6.278,-6.278,-6.278,-6.278,-6.278,-6.278,-6.278,-6.278,-6.278,-6.278,-6.278,-6.278,-6.278,-6.278,-6.278,-6.278,-6.278,-6.278,-6.2853,-6.3025,-6.3062,-6.3135,-6.3257,-6.3906,-6.431,-6.431,-6.4897,-6.5301,-6.5301,-6.5301,-6.5301,-6.5301,-6.5301,-6.5301,-6.5301,-6.5448,-6.5595,-6.5778,-6.5778,-6.6072,-6.6733,-6.6733,-6.6402,-6.5778,-6.6439,-6.6733,-4.5479,-4.5518,-4.5594,-4.5594,-4.5594,-4.5594,-4.5594,0.0,-4.6018,-4.6018,0.0,-4.6364,-4.6095,0.0,0.0,-4.6018,-4.6018,-4.6826,-4.9086,-4.9894,-5.0356,-5.0664,-5.2702,-5.4049,-5.4049,-5.6088,-5.8369,-6.0627,-6.0781,-6.0781,-6.0781,-6.0781,-6.0781,-6.0781,-6.0781,-6.0781,-6.0781,-6.0781,-6.0781,-6.0781,-6.0781,-6.0781,-6.0781,-6.0781,-6.0781,-6.0781,-6.0781,-6.0781,-6.0781,-6.0781,-6.0781,-6.0781,-6.0781,-6.0781,-6.0781,-6.0781,-6.1281,-6.1985,-6.2062,-6.2519,-6.3066,-6.3142,-6.3035,-6.2904,-6.2904,-6.2855,-6.278,-6.278,-6.278,-6.278,-6.278,-6.278,-6.278,-6.278,-6.278,-6.278,-6.278,-6.278,-6.278,-6.278,-6.278,-6.278,-6.278,-6.278,-6.3062,-6.3833,-6.3943,-6.42,-6.4934,-6.5118,-6.5154,-6.5154,-6.5264,-6.5301,-6.5301,-6.5301,-6.5301,-6.5301,-6.5301,-6.5301,-6.5301,-6.5999,-6.6696,-6.7393,-6.743,-6.7467,-6.754,-6.754,-6.7504,-6.743,-6.7504,-6.754,-4.7394,-4.7778,-4.7778,-4.7778,-4.7778,-4.7778,-4.7778,-4.6672,-4.5594,-4.5594,0.0,0.0,0.0,0.0,0.0,0.0,-4.5594,-4.5979,-4.7057,-4.721,-4.8279,-5.1241,-5.2549,-5.378,-5.5241,-5.5049,-5.5857,-5.8407,-5.8599,-5.8599,-5.8599,-6.0012,-6.0781,-6.0781,-6.0781,-6.0781,-6.0781,-6.0781,-6.0781,-6.0781,-6.0781,-6.0781,-6.0781,-6.0781,-6.0781,-6.0781,-6.0781,-6.0781,-6.0781,-6.0781,-6.0781,-6.0781,-6.0781,-6.0781,-6.0781,-6.0781,-6.137,-6.2142,-6.2322,-6.2693,-6.3088,-6.2966,-6.2849,-6.278,-6.278,-6.278,-6.278,-6.278,-6.278,-6.278,-6.278,-6.278,-6.278,-6.278,-6.278,-6.278,-6.278,-6.278,-6.278,-6.278,-6.278,-6.2989,-6.3466,-6.3539,-6.3686,-6.4016,-6.4494,-6.4934,-6.5264,-6.5705,-6.5999,-6.5999,-6.6402,-6.6696,-6.6696,-6.6696,-6.6696,-6.6696,-6.6696,-6.6696,-6.6696,-6.7026,-6.7357,-6.7687,-6.7687,-6.7687,-6.7687,-6.7687,-6.7687,-6.7687,-6.7687,-6.7687,-4.9933,-5.0433,-5.0279,-4.9586,-4.9394,-4.9202,-4.8509,-4.6941,-4.5594,-4.5594,-4.5594,0.0,0.0,0.0,-4.5594,0.0,0.0,-4.5594,-4.5594,-4.5594,-4.698,-5.0664,-5.1741,-5.2895,-5.4752,-5.3895,-5.3972,-5.5818,-5.6599,-5.6983,-5.6983,-5.9396,-6.0781,-6.0781,-6.0781,-6.0781,-6.0781,-6.0781,-6.0781,-6.0781,-6.0781,-6.0781,-6.0781,-6.0781,-6.0781,-6.0781,-6.0781,-6.0781,-6.0781,-6.0781,-6.0781,-6.0781,-6.0781,-6.0935,-6.1166,-6.1166,-6.1606,-6.2298,-6.2786,-6.3069,-6.3191,-6.2889,-6.278,-6.278,-6.278,-6.278,-6.278,-6.278,-6.278,-6.278,-6.278,-6.278,-6.278,-6.278,-6.278,-6.278,-6.278,-6.278,-6.278,-6.278,-6.2989,-6.3356,-6.398,-6.409,-6.4237,-6.4677,-6.5264,-6.5705,-6.5925,-6.6476,-6.6843,-6.6843,-6.7357,-6.7687,-6.7687,-6.7687,-6.7687,-6.7687,-6.7687,-6.7687,-6.7687,-6.7687,-6.7687,-6.7687,-6.7687,-6.7687,-6.7687,-6.7687,-6.7687,-6.7687,-6.7687,-6.7687,-5.3049,-5.3087,-5.251,-5.001,-4.9394,-4.874,-4.6287,-4.5671,-4.5594,-4.5594,-4.5594,-4.5594,-4.5594,-4.5594,0.0,0.0,0.0,0.0,0.0,-4.5594,-4.5671,-4.5825,-4.8009,-4.9548,-4.9625,-5.1818,-5.3241,-5.3318,-5.5588,-5.6983,-5.6983,-5.9396,-6.0781,-6.0781,-6.0781,-6.0781,-6.0781,-6.0781,-6.0781,-6.0781,-6.0781,-6.0781,-6.0781,-6.0781,-6.0781,-6.0781,-6.0781,-6.0781,-6.0781,-6.0781,-6.0781,-6.0781,-6.0781,-6.132,-6.2062,-6.2062,-6.2297,-6.2696,-6.3482,-6.3689,-6.3505,-6.2965,-6.278,-6.278,-6.278,-6.278,-6.278,-6.278,-6.278,-6.278,-6.278,-6.278,-6.278,-6.278,-6.278,-6.278,-6.278,-6.278,-6.278,-6.278,-6.3466,-6.4053,-6.409,-6.409,-6.464,-6.6182,-6.6439,-6.6733,-6.7504,-6.7677,-6.765,-6.765,-6.7677,-6.7687,-6.7687,-6.7687,-6.7687,-6.7687,-6.7687,-6.7687,-6.7687,-6.7687,-6.7687,-6.7687,-6.7687,-6.7687,-6.7687,-6.7687,-6.7687,-6.7687,-6.7687,-6.7687,-5.5269,-5.5703,-5.5511,-5.4636,-5.3164,-5.1702,-5.0818,-4.8009,-4.5594,-4.5594,-4.5594,-4.5594,-4.5594,-4.5594,0.0,0.0,0.0,0.0,0.0,-4.5594,-4.5594,-4.5594,-4.6364,-4.7548,-4.924,-4.8663,-4.8856,-5.0548,-5.1471,-5.1972,-5.1972,-5.5983,-5.828,-5.828,-5.9935,-6.0781,-6.0781,-6.0781,-6.0781,-6.0781,-6.0781,-6.0781,-6.0781,-6.0781,-6.0781,-6.0781,-6.0781,-6.0781,-6.0781,-6.0781,-6.0781,-6.0781,-6.0781,-6.132,-6.2065,-6.1707,-6.2328,-6.3442,-6.3615,-6.3435,-6.3038,-6.2855,-6.278,-6.278,-6.278,-6.278,-6.278,-6.278,-6.278,-6.278,-6.278,-6.278,-6.278,-6.278,-6.278,-6.278,-6.278,-6.278,-6.2989,-6.3539,-6.3906,-6.442,-6.5485,-6.5705,-6.5852,-6.6402,-6.6953,-6.7393,-6.765,-6.7687,-6.7687,-6.7687,-6.7687,-6.7687,-6.7687,-6.7687,-6.7687,-6.7687,-6.7687,-6.7687,-6.7687,-6.7687,-6.7687,-6.7687,-6.7687,-6.7687,-6.7687,-6.7687,-6.7687,-6.7687,-6.7687,-6.7687,-5.7896,-5.8357,-5.8138,-5.7214,-5.578,-5.4318,-5.3395,-5.0664,-4.8279,-4.8279,-4.8279,-4.8009,-4.7134,-4.6941,0.0,0.0,0.0,0.0,0.0,-4.5594,-4.5594,-4.5594,-4.6402,-4.7249,-4.7971,-4.7394,-4.7249,-4.7971,-4.8894,-4.9394,-4.9394,-5.4252,-5.7011,-5.7011,-5.9473,-6.0781,-6.0781,-6.0781,-6.0781,-6.0781,-6.0781,-6.0781,-6.0781,-6.0781,-6.0781,-6.0781,-6.0781,-6.0781,-6.0781,-6.0781,-6.0781,-6.0819,-6.1127,-6.1781,-6.2476,-6.1936,-6.2591,-6.3689,-6.3407,-6.311,-6.278,-6.278,-6.278,-6.278,-6.278,-6.278,-6.278,-6.278,-6.278,-6.278,-6.278,-6.278,-6.278,-6.278,-6.278,-6.278,-6.278,-6.3062,-6.3429,-6.398,-6.4567,-6.5264,-6.6329,-6.6733,-6.6916,-6.6916,-6.7357,-6.7687,-6.7687,-6.7687,-6.7687,-6.7687,-6.7687,-6.7687,-6.7687,-6.7687,-6.7687,-6.7687,-6.7687,-6.7687,-6.7687,-6.7687,-6.7834,-6.8128,-6.7834,-6.7834,-6.8128,-6.7834,-6.7687,-6.7687,-6.7687,-6.7687]},{"header":{"parameterUnit":"m.s-1","parameterCategory":1,"la1":30.6,"la2":29.2853,"lo1":-89.7004,"lo2":-87.6739,"dy":0.0162,"dx":0.0183,"nx":112,"ny":82,"refTime":"2024-03-10T12:00:00:Z","depth":0,"parameterNumber":3,"parameterNumberName":"V-component_of_WINDS"},"data":[0.0,0.0,0.0,0.0,0.0,0.0,0.0,0.0,0.0,0.0,0.0,0.0,0.0,0.0,0.0,0.0,0.0,0.0,0.0,0.0,0.0,0.0,0.0,0.0,0.0,0.0,0.0,0.0,0.0,0.0,0.0,0.0,0.0,0.0,0.0,0.0,0.0,0.0,0.0,0.0,0.0,0.0,0.0,0.0,0.0,0.0,0.0,0.0,0.0,0.0,0.0,0.0,0.0,0.0,0.0,0.0,0.0,0.0,0.0,0.0,0.0,0.0,0.0,0.0,0.0,0.0,0.0,0.0,0.0,0.0,0.0,0.0,0.0,0.0,0.0,0.0,0.0,0.0,0.0,0.0,0.0,0.0,0.0,0.0,0.0,0.0,0.0,0.0,0.0,0.0,1.0539,1.0383,1.0798,1.1108,1.1108,1.085,1.0209,0.8959,0.0,0.0,0.0,0.0,0.0,0.0,0.0,0.0,0.0,0.0,0.0,0.0,0.0,0.0,0.0,0.0,0.0,0.0,0.0,0.0,0.0,0.0,0.0,0.0,0.0,0.0,0.0,0.0,0.0,0.0,0.0,0.0,0.0,0.0,0.0,0.0,0.0,0.0,0.0,0.0,0.0,0.0,0.0,0.0,0.0,0.0,0.0,0.0,0.0,0.0,0.0,0.0,0.0,0.0,0.0,0.0,0.0,0.0,0.0,0.0,0.0,0.0,0.0,0.0,0.0,0.0,0.0,0.0,0.0,0.0,0.0,0.0,0.0,0.0,0.0,0.0,0.0,0.0,0.0,0.0,0.0,0.0,0.0,0.0,0.0,0.0,0.0,0.0,0.0,0.0,0.0,0.0,0.0,0.0,0.0,0.0,0.0,0.0,0.0,0.0,0.0,0.0,0.0,0.0,1.0132,1.2491,1.2865,1.2931,1.2931,1.1571,1.0209,0.8959,0.0,0.0,0.0,0.0,0.0,0.0,0.0,0.0,0.0,0.0,0.0,0.0,0.0,0.0,0.0,0.0,0.0,0.0,0.0,0.0,0.0,0.0,0.0,0.0,0.0,0.0,0.0,0.0,0.0,0.0,0.0,0.0,0.0,0.0,0.0,0.0,0.0,0.0,0.0,0.0,0.0,0.0,0.0,0.0,0.0,0.0,0.0,0.0,0.0,0.0,0.0,0.0,0.0,0.0,0.0,0.0,0.0,0.0,0.0,0.0,0.0,0.0,0.0,0.0,0.0,0.0,0.0,0.0,0.0,0.0,0.0,0.0,0.0,0.0,0.0,0.0,0.0,0.0,0.0,0.0,0.0,0.0,0.0,0.0,0.0,0.0,0.0,0.0,0.0,0.0,0.0,0.0,0.0,0.0,0.0,0.0,0.0,0.0,0.0,0.0,0.0,0.0,0.0,1.2338,1.3551,1.5897,1.5265,1.4362,1.339,1.2545,1.1203,0.9015,0.8885,0.0,0.0,0.0,0.0,0.0,0.0,0.0,0.0,0.0,0.0,0.0,0.0,0.0,0.0,0.0,0.0,0.0,0.0,0.0,0.0,0.0,0.0,0.0,0.0,0.0,0.0,0.0,0.0,0.0,0.0,0.0,0.0,0.0,0.0,0.0,0.0,0.0,0.0,0.0,0.0,0.0,0.0,0.0,0.0,0.0,0.0,0.0,0.0,0.0,0.0,0.0,0.0,0.0,0.0,0.0,0.0,0.0,0.0,0.0,0.0,0.0,0.0,0.0,0.0,0.0,0.0,0.0,0.0,0.0,0.0,0.0,0.0,0.0,0.0,0.0,0.0,0.0,0.0,0.0,0.0,0.0,0.0,0.0,0.0,0.0,0.0,0.0,0.0,0.0,0.0,0.0,0.0,0.0,0.0,0.0,0.0,0.0,0.0,0.0,0.0,0.0,0.0,1.5459,1.7155,1.8349,1.7345,1.5978,1.4623,1.4166,1.2628,0.9724,0.9497,0.0,0.0,0.0,0.0,0.0,0.0,0.0,0.0,0.0,0.0,0.0,0.0,0.0,0.0,0.0,0.0,0.0,0.0,0.0,0.0,0.0,0.0,0.0,0.0,0.0,0.0,0.0,0.0,0.0,0.0,0.0,0.0,0.0,0.0,0.0,0.0,0.0,0.0,0.0,0.0,0.0,0.0,0.0,0.0,0.0,0.0,0.0,0.0,0.0,0.0,0.0,0.0,0.0,0.0,0.0,0.0,0.0,0.0,0.0,0.0,0.0,0.0,0.0,0.0,0.0,0.0,0.0,0.0,0.0,0.0,0.0,0.0,0.0,0.0,0.0,0.0,0.0,0.0,0.0,0.0,0.0,0.0,0.0,0.0,0.0,0.0,0.0,0.0,0.0,0.0,0.0,0.0,0.0,0.0,0.0,0.0,0.0,0.0,0.0,0.0,0.0,0.0,1.6069,1.8984,1.8534,1.8372,1.8244,1.8116,1.6625,1.4475,1.1478,1.1209,0.0,0.0,0.0,0.0,0.0,0.0,0.0,0.0,0.0,0.0,0.0,0.0,0.0,0.0,0.0,0.0,0.0,0.0,0.0,0.0,0.0,0.0,0.0,0.0,0.0,0.0,0.0,0.0,0.0,0.0,0.0,0.0,0.0,0.0,0.0,0.0,0.0,0.0,0.0,0.0,0.0,0.0,0.0,0.0,0.0,0.0,0.0,0.0,0.0,0.0,0.0,0.0,0.0,0.0,0.0,0.0,0.0,0.0,0.0,0.0,0.0,0.0,0.0,0.0,0.0,0.0,0.0,0.0,0.0,0.0,0.0,0.0,0.0,0.0,0.0,0.0,0.0,0.0,0.0,0.0,0.0,0.0,0.0,0.0,0.0,0.0,0.0,0.0,0.0,0.0,0.0,0.0,0.0,0.0,0.0,0.0,0.0,0.0,0.0,0.0,0.0,0.0,1.7894,2.0367,2.0157,2.0132,1.9674,1.8576,1.7923,1.5769,1.1621,0.0,0.0,0.0,0.0,0.0,0.0,0.0,0.0,0.0,0.0,0.0,0.0,0.0,0.0,0.0,0.0,0.0,0.0,0.0,0.0,0.0,0.0,0.0,0.0,0.0,0.0,0.0,0.0,0.0,0.0,0.0,0.0,0.0,0.0,0.0,0.0,0.0,0.0,0.0,0.0,0.0,0.0,0.0,0.0,0.0,0.0,0.0,0.0,0.0,0.0,0.0,0.0,0.0,0.0,0.0,0.0,0.0,0.0,0.0,0.0,0.0,0.0,0.0,0.0,0.0,0.0,0.0,0.0,0.0,0.0,0.0,0.0,0.0,0.0,0.0,0.0,0.0,0.0,0.0,0.0,0.0,0.0,0.0,0.0,0.0,0.0,0.0,0.0,0.0,0.0,0.0,0.0,0.0,0.0,0.0,0.0,0.0,0.0,0.0,0.0,0.0,0.0,1.5755,1.8919,2.1109,2.1109,2.1109,2.0589,1.9419,1.9355,1.7392,1.2903,0.0,0.0,0.0,0.0,0.0,0.0,0.0,0.0,0.0,0.0,0.0,0.0,0.0,0.0,0.0,0.0,0.0,0.0,0.0,0.0,0.0,0.0,0.0,0.0,0.0,0.0,0.0,0.0,0.0,0.0,0.0,0.0,0.0,0.0,0.0,0.0,0.0,0.0,0.0,0.0,0.0,0.0,0.0,0.0,0.0,0.0,0.0,0.0,0.0,0.0,0.0,0.0,0.0,0.0,0.0,0.0,0.0,0.0,0.0,0.0,0.0,0.0,0.0,0.0,0.0,0.0,0.0,0.0,0.0,0.0,0.0,0.0,0.0,0.0,0.0,0.0,0.0,0.0,0.0,0.0,0.0,0.0,0.0,0.0,0.0,0.0,0.0,0.0,0.0,0.0,0.0,0.0,0.0,0.0,0.0,0.0,0.0,0.0,0.0,0.0,0.0,0.0,1.5743,1.8919,2.1109,2.1109,2.1109,2.1109,2.1109,2.1109,1.9481,0.0,0.0,0.0,0.0,0.0,0.0,0.0,0.0,0.0,0.0,0.0,0.0,0.0,0.0,0.0,0.0,0.0,0.0,0.0,0.0,0.0,0.0,0.0,0.0,0.0,0.0,0.0,0.0,0.0,0.0,0.0,0.0,0.0,0.0,0.0,0.0,0.0,0.0,0.0,0.0,0.0,0.0,0.0,0.0,0.0,0.0,0.0,0.0,0.0,0.0,0.0,0.0,0.0,0.0,0.0,0.0,0.0,0.0,0.0,0.0,0.0,0.0,0.0,0.0,0.0,0.0,0.0,0.0,0.0,0.0,0.0,0.0,0.0,0.0,0.0,0.0,0.0,0.0,0.0,0.0,0.0,0.0,0.0,0.0,0.0,0.0,0.0,0.0,0.0,0.0,0.0,0.0,0.0,0.0,0.0,0.0,0.0,0.0,0.0,0.0,0.0,0.0,0.0,1.6639,1.9344,2.1109,2.1109,2.1109,2.1109,2.1109,2.1109,1.9449,1.5497,0.0,0.0,0.0,0.0,0.0,0.0,0.0,0.0,0.0,0.0,0.0,0.0,0.0,0.0,0.0,0.0,0.0,0.0,0.0,0.0,0.0,0.0,0.0,0.0,0.0,0.0,0.0,0.0,0.0,0.0,0.0,0.0,0.0,0.0,0.0,0.0,0.0,0.0,0.0,0.0,0.0,0.0,0.0,0.0,0.0,0.0,0.0,0.0,0.0,0.0,0.0,0.0,0.0,0.0,0.0,0.0,0.0,0.0,0.0,0.0,0.0,0.0,0.0,0.0,0.0,0.0,0.0,0.0,0.0,0.0,0.0,0.0,0.0,0.0,0.0,0.0,0.0,0.0,0.0,0.0,0.0,0.0,0.0,0.0,0.0,0.0,0.0,0.0,0.0,0.0,0.0,0.0,0.0,0.0,0.0,0.0,0.0,0.0,0.0,0.0,0.0,0.0,1.7038,1.9466,2.1109,2.1109,2.1109,2.1109,2.1109,2.1109,1.9853,1.6863,0.0,0.0,0.0,0.0,0.0,0.0,0.0,0.0,0.0,0.0,0.0,0.0,0.0,0.0,0.0,0.0,0.0,0.0,0.0,0.0,0.0,0.0,0.0,0.0,0.0,0.0,0.0,0.0,0.0,0.0,0.0,0.0,0.0,0.0,0.0,0.0,0.0,0.0,0.0,0.0,0.0,0.0,0.0,0.0,0.0,0.0,0.0,0.0,0.0,0.0,0.0,0.0,0.0,0.0,0.0,0.0,0.0,0.0,0.0,0.0,0.0,0.0,0.0,0.0,0.0,0.0,0.0,0.0,0.0,0.0,0.0,0.0,0.0,0.0,0.0,0.0,0.0,0.0,0.0,0.0,0.0,0.0,0.0,0.0,0.0,0.0,0.0,0.0,0.0,0.0,0.0,0.0,0.0,0.0,0.0,0.0,0.0,0.0,0.0,0.0,0.0,0.0,1.6998,1.9452,2.1109,2.1109,2.1109,2.1109,2.1109,2.1109,2.0481,1.9011,0.0,0.0,0.0,0.0,0.0,0.0,0.0,0.0,0.0,0.0,0.0,0.0,0.0,0.0,0.0,0.0,0.0,0.0,0.0,0.0,0.0,0.0,0.0,0.0,0.0,0.0,0.0,0.0,0.0,0.0,0.0,0.0,0.0,0.0,0.0,0.0,0.0,0.0,0.0,0.0,0.0,0.0,0.0,0.0,0.0,0.0,0.0,0.0,0.0,0.0,0.0,0.0,0.0,0.0,0.0,0.0,0.0,0.0,0.0,0.0,0.9184,0.8601,0.0,0.0,0.0,0.0,0.0,0.0,0.0,0.0,0.0,0.0,0.0,0.0,0.0,0.0,0.0,0.0,0.0,0.0,0.0,0.0,0.0,0.0,0.0,0.0,0.0,0.0,0.0,0.0,0.0,0.0,0.0,0.0,0.0,0.0,0.0,0.0,0.0,0.0,0.0,0.0,1.6757,1.9319,2.1109,2.1109,2.1109,2.1109,2.1109,2.1109,2.0481,1.9011,1.8401,0.0,0.0,0.0,0.0,0.0,0.0,0.0,0.0,0.0,0.0,0.0,0.0,0.0,0.0,0.0,0.0,0.0,0.0,0.0,0.0,0.0,0.0,0.0,0.0,0.0,0.0,0.0,0.0,0.0,0.0,0.0,0.0,0.0,0.0,0.0,0.0,0.0,0.0,0.0,0.0,0.0,0.0,0.0,0.0,0.0,0.0,0.0,0.0,0.0,0.0,0.0,0.0,0.0,0.0,0.0,0.0,0.0,0.0,0.0,0.9367,0.9123,0.0,0.0,0.0,0.0,0.0,0.0,0.0,0.0,0.0,0.0,0.0,0.0,0.0,0.0,0.0,0.0,0.0,0.0,0.0,0.0,0.0,0.0,0.0,0.0,0.0,0.0,0.0,0.0,0.0,0.0,0.0,0.0,0.0,0.0,0.0,0.0,0.0,0.0,0.0,0.0,1.67,1.9279,2.1109,2.1109,2.1109,2.1109,2.1109,2.1109,2.0788,2.0027,1.9319,0.0,0.0,0.0,0.0,0.0,0.0,0.0,0.0,0.0,0.0,0.0,0.0,0.0,0.0,0.0,0.0,0.0,0.0,0.0,0.0,0.0,0.0,0.0,0.0,0.0,0.0,0.0,0.0,0.0,0.0,0.0,0.0,0.0,0.0,0.0,0.0,0.0,0.0,0.0,0.0,0.0,0.0,0.0,0.0,0.0,0.0,0.0,0.0,0.0,0.0,0.0,0.0,0.0,0.9578,0.9612,0.9612,0.9483,0.9487,0.9501,0.9707,0.9822,0.9781,0.9235,0.0,0.0,0.0,0.0,0.0,0.0,0.0,0.0,0.0,0.0,0.0,0.0,0.0,0.0,0.0,0.0,0.0,0.0,0.0,0.0,0.0,0.0,1.5793,1.7754,1.8036,1.7727,1.6984,0.0,0.0,0.0,0.0,0.0,0.0,0.0,0.0,0.0,0.0,0.0,1.67,1.9279,2.1109,2.1109,2.1109,2.1109,2.1109,2.1109,2.1109,2.1109,1.9973,1.9185,0.0,0.0,0.0,0.0,0.0,0.0,0.0,0.0,0.0,0.0,0.0,0.0,0.0,0.0,0.0,0.0,0.0,0.0,0.0,0.0,0.0,0.0,0.0,0.0,0.0,0.0,0.0,0.0,0.0,0.0,0.0,0.0,0.2336,0.2331,0.0,0.0,0.0,0.0,0.0,0.0,0.0,0.0,0.0,0.0,0.0,0.0,0.0,0.9293,0.9293,0.9741,0.9903,0.9903,1.0358,1.0541,1.0541,1.0521,1.0514,1.0487,1.0019,0.0,0.9815,0.9734,0.0,0.0,0.0,0.0,0.0,0.0,0.0,0.0,0.0,0.0,0.0,0.0,0.0,0.0,0.0,0.0,0.0,0.0,0.0,0.0,0.0,0.0,2.027,2.054,1.9867,1.9412,2.0231,1.7886,1.5853,1.678,1.6107,1.511,0.0,0.0,0.0,0.0,0.0,0.0,1.67,1.9279,2.1109,2.1109,2.1109,2.1109,2.1109,2.1109,2.1109,2.1109,2.0922,2.0254,1.8971,2.0147,0.0,0.0,0.0,0.0,0.0,0.0,0.0,0.0,0.0,0.0,0.0,0.0,0.0,0.0,0.0,0.0,0.0,0.0,0.0,0.0,0.0,0.0,0.0,0.0,0.0,0.0,0.0,0.0,0.0,0.1562,0.2704,0.2729,0.3364,0.4029,0.0,0.0,0.0,0.0,0.0,0.0,0.0,0.0,0.0,0.9374,0.9625,0.9754,0.9754,1.0202,1.0361,1.0426,1.0629,1.0717,1.0717,1.0717,1.0717,1.0704,1.0439,1.0324,1.0304,0.9958,0.9822,0.9768,0.0,0.0,0.0,0.0,0.8265,0.8646,0.9632,1.0992,1.2467,1.3203,0.0,0.0,0.0,0.0,0.0,0.0,0.0,1.6936,1.826,1.9359,2.0294,2.0949,2.0722,2.0481,2.1002,1.9372,1.7889,1.8103,1.7194,1.5979,1.4736,1.5204,0.0,0.0,0.0,1.7956,1.7956,1.98,2.1109,2.1109,2.1109,2.1109,2.1109,2.1109,2.1109,2.1109,2.1109,2.0815,2.0174,2.0762,2.012,0.0,0.0,0.0,0.0,0.0,0.0,0.0,0.0,0.0,0.0,0.0,0.0,0.0,0.0,0.0,0.0,0.0,0.0,0.0,0.0,0.0,0.0,0.0,0.0,0.0,0.0,0.0,0.0,0.1952,0.3374,0.3396,0.468,0.5665,0.0,0.0,0.0,0.0,0.0,0.0,0.9544,0.9551,0.9605,0.972,1.0046,1.0159,1.0159,1.0555,1.0717,1.0717,1.0717,1.0717,1.0717,1.0717,1.0717,1.0717,1.0717,1.0717,1.0683,1.0236,1.0053,1.0039,0.9883,0.9551,0.9087,0.8939,0.9252,0.9998,1.1276,1.3258,1.5287,1.5771,1.6773,1.7477,1.5874,0.0,0.0,0.0,0.0,1.8023,1.9135,1.9645,2.0027,2.0909,2.1109,2.1109,2.1109,2.0187,1.9386,1.9466,1.8531,1.7326,1.5885,1.6553,0.0,1.5297,1.7275,1.8918,1.8918,2.0201,2.1109,2.1109,2.1109,2.1109,2.1109,2.1109,2.1109,2.1109,2.1109,2.1109,2.1109,2.1109,2.0601,1.9506,0.0,0.0,0.0,0.0,0.0,0.0,0.0,0.0,0.0,0.0,0.0,0.0,0.0,0.0,0.0,0.0,0.0,0.0,0.0,0.0,0.0,0.0,0.0,0.0,0.0,0.0,0.0,0.0,0.0,0.5236,0.6817,0.0,0.0,0.0,0.0,0.9142,0.9367,0.9564,0.993,1.0019,1.0215,1.0636,1.0677,1.0683,1.0683,1.0711,1.0717,1.0717,1.0717,1.0717,1.0717,1.0717,1.0717,1.0717,1.0717,1.0717,1.0717,1.0683,1.0677,1.0616,1.0046,0.9802,0.9707,0.9087,1.0311,1.2269,1.2329,1.3871,1.6111,1.778,1.8519,1.8592,1.7411,1.7078,0.0,0.0,1.817,1.9336,1.9403,2.0187,2.1042,2.1096,2.1109,2.1109,2.1109,2.0187,1.9693,2.0788,2.0054,1.9132,1.8771,0.0,1.8303,1.682,1.7929,1.8918,1.8918,2.0201,2.1109,2.1109,2.1109,2.1109,2.1109,2.1109,2.1109,2.1109,2.1109,2.1109,2.1109,2.1109,2.1069,2.1002,1.9639,0.0,0.0,0.0,0.0,0.0,0.0,0.0,0.0,0.0,0.0,0.0,0.0,0.0,0.0,0.0,0.0,0.0,0.0,0.0,0.0,0.0,0.0,0.0,0.0,0.0,0.0,0.0,0.0,0.5382,0.6719,0.0,0.9873,0.9417,0.9292,0.9761,1.008,1.031,1.0408,1.048,1.0555,1.0717,1.0717,1.0717,1.0717,1.0717,1.0717,1.0717,1.0717,1.0717,1.0717,1.0717,1.0717,1.0717,1.0717,1.0717,1.0717,1.0717,1.0717,1.0697,1.0487,1.0399,1.05,1.1401,1.2269,1.33,1.5564,1.6858,1.7859,1.961,2.025,2.0254,1.9826,1.9693,1.9693,1.9693,2.008,2.0494,2.0494,2.0802,2.1109,2.1109,2.1109,2.1109,2.1109,2.0788,2.0615,2.1029,2.016,1.9265,1.8971,1.9706,1.9826,1.8357,1.9386,2.0334,2.0334,2.0788,2.1109,2.1109,2.1109,2.1109,2.1109,2.1109,2.1109,2.1109,2.1109,2.1109,2.1109,2.1109,2.1109,2.1109,2.0601,1.9399,0.0,0.0,0.0,0.0,0.0,0.0,0.0,0.0,0.0,0.0,0.0,0.0,0.0,0.0,0.0,0.0,0.0,0.0,0.0,0.0,0.0,0.0,0.0,0.0,0.0,0.2849,0.5058,0.5393,0.7228,0.8985,1.0149,1.0213,1.0213,1.0213,1.0555,1.0717,1.0717,1.0717,1.0717,1.0717,1.0717,1.0717,1.0717,1.0717,1.0717,1.0717,1.0717,1.0717,1.0717,1.0717,1.0636,1.0435,1.0656,1.0636,1.0507,1.0656,1.0717,1.0717,1.0717,1.0717,1.0916,1.2676,1.3643,1.4688,1.818,1.9355,1.9546,2.0716,2.1109,2.1109,2.1109,2.1109,2.1109,2.1109,2.1109,2.1109,2.1109,2.1109,2.1109,2.1109,2.1109,2.1109,2.1109,2.0722,2.0521,2.1015,2.0481,1.9733,1.9038,1.9733,1.9867,1.8397,1.8998,1.9626,1.9626,2.0067,2.0374,2.0374,2.0815,2.1109,2.1109,2.0655,2.0575,2.1082,2.0641,2.0588,2.1082,2.0641,2.0321,2.0227,1.9733,1.8811,1.7448,0.0,0.0,0.0,0.0,0.0,0.0,0.0,0.0,0.0,0.0,0.0,0.0,0.0,0.0,0.0,0.0,0.0,0.0,0.0,0.0,0.0,0.0,0.0,0.0275,0.3151,0.5405,0.5475,0.8491,1.0651,1.0717,1.0717,1.0717,1.0717,1.0717,1.0717,1.0717,1.0711,1.0704,1.0697,1.0704,1.0704,1.0697,1.0711,1.0717,1.0717,1.0717,1.0717,1.0717,1.0717,1.048,1.0031,1.0534,1.0473,1.0169,1.0541,1.0717,1.0717,1.0717,1.0717,1.0916,1.2742,1.4493,1.656,1.9903,2.1082,2.1109,2.1109,2.1109,2.1109,2.1109,2.1109,2.1109,2.1109,2.1109,2.1109,2.1109,2.1109,2.1109,2.1109,2.1109,2.1109,2.1109,2.0,1.9412,2.0828,2.1109,2.0655,1.9239,1.8998,1.8504,1.7061,1.6847,0.0,1.6847,1.8103,1.8998,1.8998,2.0227,2.1056,2.1109,1.976,1.9546,2.1015,1.9773,1.9626,2.1056,1.9746,1.8865,1.8584,1.7114,1.7208,1.8918,0.0,0.0,0.0,0.0,0.0,0.0,0.0,0.0,0.0,0.0,0.0,0.0,0.0,0.0,0.0,0.0,0.0,0.0,0.0,0.0,0.0,0.1393,0.2364,0.2001,0.3653,0.5467,0.708,0.8172,0.9238,1.0585,1.0717,1.0717,1.0717,1.0717,1.0717,1.0717,1.0521,1.0351,1.0172,1.0344,1.0344,1.0172,1.0555,1.0717,1.0717,1.0717,1.0717,1.0717,1.0717,1.0656,1.0541,1.067,1.0649,1.0548,1.067,1.0717,1.0717,1.0717,1.0717,1.1049,1.4101,1.7076,1.9688,1.9832,2.0401,2.1109,2.1109,2.1109,2.1109,2.1109,2.1109,2.1109,2.1109,2.1109,2.1109,2.1109,2.1109,2.1109,2.1109,2.1109,2.1109,2.1109,2.0788,2.0628,2.1029,2.1109,2.0975,2.0575,2.0508,2.0374,1.996,1.9893,1.9893,1.9893,2.0254,2.0508,2.0508,1.992,1.996,2.1015,1.976,1.9546,2.1015,2.0735,2.0695,2.1096,2.0722,2.0468,2.0388,1.8945,1.8437,0.0,0.0,0.0,0.0,0.0,0.0,0.0,0.0,0.0,0.0,0.0,0.0,0.0,0.0,0.0,0.0,0.0,0.0,0.0,0.0,0.0,0.0,0.1502,0.2975,0.3737,0.51,0.658,0.7872,0.8701,0.9576,1.0585,1.0717,1.0717,1.0717,1.0717,1.0717,1.0717,1.0561,1.0337,0.9997,1.0317,1.0331,0.999,1.0493,1.0717,1.0717,1.0717,1.0717,1.0717,1.0717,1.0616,1.0453,1.0636,1.0616,1.0388,1.0643,1.0717,1.0717,0.0,0.0,0.0,0.0,1.8116,2.1015,2.0334,2.0548,2.1109,2.1109,2.1109,2.1109,2.1109,2.0762,2.0374,2.0374,2.0013,1.9746,2.0254,2.0374,2.0508,2.0989,2.1109,2.1109,2.1109,2.0628,2.0374,2.0989,2.0615,0.0,2.1002,2.0601,1.9987,1.9359,1.9265,1.9265,1.9265,1.9813,2.0201,2.0201,1.9973,2.0187,2.1042,1.976,0.0,0.0,0.0,2.0201,2.0201,2.008,0.0,0.0,0.0,1.8183,1.8918,1.805,0.0,0.0,1.7609,1.6954,0.0,0.0,0.0,0.0,0.0,0.0,0.0,0.0,0.0,0.0,0.0,0.0,0.0,0.0,0.0,0.0,0.1848,0.366,0.5468,0.7231,0.8296,0.8296,0.9709,1.0717,1.0717,1.0717,1.0717,1.0717,1.0717,1.0717,1.0717,1.069,0.0,0.0,0.0,1.0473,0.999,1.0493,1.0717,1.0717,1.0717,1.0717,1.0717,1.0717,1.0507,1.021,1.0548,1.0429,1.0092,1.0555,1.0717,1.0717,1.0717,1.0916,1.1622,1.4651,1.8024,2.1096,2.0962,0.0,0.0,2.1109,2.1109,2.1109,2.1109,2.0388,1.9559,1.9559,1.8798,1.8223,1.9292,1.9559,1.9826,2.0869,2.1109,2.1109,2.1109,2.0094,1.9559,2.0855,2.0054,1.9586,2.0882,2.0027,1.8718,1.7395,1.7194,1.7194,1.7194,1.8357,1.9172,1.9172,2.0187,0.0,2.1096,1.976,1.9546,2.1015,1.9893,1.9172,1.9172,1.8918,1.829,1.7221,1.6954,1.7595,1.9172,1.9172,1.984,2.1042,1.8424,1.7916,0.0,0.0,0.0,0.0,0.0,0.0,0.0,0.0,0.0,0.0,0.0,0.0,0.0,0.0,0.0,0.1923,0.3672,0.551,0.7222,0.9039,1.018,1.018,1.0518,1.0717,1.0717,1.0717,1.0717,1.0717,1.0717,1.0717,1.0717,1.0493,1.027,1.0122,1.0256,1.0263,0.999,1.0493,1.0717,1.0717,1.0717,0.0,1.0717,1.0717,1.067,1.0595,1.0683,1.067,1.0595,1.0683,1.0717,1.0717,1.0717,1.2413,1.4864,1.4622,1.7302,2.0975,2.0027,2.0321,2.1109,2.1109,2.1109,2.1109,2.1109,2.0949,0.0,2.0775,2.0601,2.0481,2.0708,2.0775,2.0828,2.1056,2.1109,2.1109,2.1109,2.0882,2.0775,2.1056,2.0882,2.0775,2.1056,2.0869,2.0588,2.0307,2.0254,2.0254,2.0254,2.0508,2.0681,2.0681,1.988,1.9826,2.1002,1.976,1.9546,2.1015,2.0842,2.0681,2.0681,2.0628,2.0494,2.0267,2.0201,2.0347,2.0681,2.0681,2.0828,2.1096,2.0521,2.0414,0.0,0.0,0.0,0.0,0.0,0.0,0.0,0.0,0.0,0.0,0.0,0.0,0.0,0.0,0.062,0.2384,0.4187,0.6,0.7749,0.9576,1.0717,1.0717,1.0717,1.0717,1.0717,1.0717,1.0717,1.0717,1.0717,1.0717,1.0717,1.0582,1.0365,1.0122,1.0344,1.0358,0.999,1.0493,1.0717,1.0717,1.0717,1.0717,1.0717,1.0717,1.0717,1.0717,1.0717,1.0717,1.0717,1.0717,1.0717,1.0717,1.0717,1.28,1.5927,1.6232,1.8378,2.1029,2.0441,2.0615,2.1109,2.1109,2.1109,2.1109,2.1109,2.0708,2.0241,2.0241,1.98,1.9479,2.008,2.0241,2.0388,2.0975,2.1109,2.1109,2.1109,2.1109,2.1109,2.1109,2.1109,2.1109,2.1109,2.1109,2.1109,2.1109,2.1109,2.1109,2.1109,2.1109,2.1109,2.1109,2.0454,2.0321,2.1042,2.0441,2.0334,2.1056,2.1109,2.1109,2.1109,2.1109,2.1109,2.1109,2.1109,2.1109,2.1109,2.1109,2.1109,2.1109,2.1109,2.1109,0.0,0.0,0.0,0.0,0.0,0.0,0.0,0.0,0.0,0.0,0.0,0.0,0.0,0.0,0.0683,0.2856,0.4435,0.6133,0.8209,0.9775,1.0717,1.0717,1.0717,1.0717,1.0717,1.0717,1.0717,1.0717,1.0717,1.0717,1.0717,1.0717,1.0555,1.0258,1.0534,1.0548,1.0118,1.0541,1.0717,1.0717,1.0717,1.0717,1.0717,1.0717,1.0717,1.0717,1.0717,1.0717,1.0717,1.0717,1.0717,1.0717,1.1049,1.2931,1.5589,1.7345,1.9291,2.1109,2.1109,2.1109,2.1109,2.1109,2.1109,2.1109,2.1109,2.0454,1.9706,1.9706,1.9011,1.849,1.9452,1.9706,1.9947,2.0882,2.1109,2.1109,2.1109,2.1109,2.1109,2.1109,2.1109,2.1109,2.1109,2.1109,2.1109,2.1109,2.1109,2.1109,2.1109,2.1109,2.1109,2.1109,2.1109,2.1109,2.1109,2.1109,2.1109,2.1109,2.1109,2.1109,2.1109,2.1109,2.1109,2.1109,2.1109,2.1109,2.1109,2.1109,2.1109,2.1109,2.1109,2.1109,0.0,0.0,0.0,0.0,0.0,0.0,0.0,0.0,0.0,0.0,0.0,0.0,0.0,0.0,0.1131,0.4525,0.5265,0.6544,0.9908,1.0585,1.0717,1.0717,1.0717,1.0717,1.0717,1.0717,1.0717,1.0717,1.0717,1.0717,1.0717,1.0717,1.0697,1.0643,1.0697,1.0697,1.0643,1.0697,1.0717,1.0717,1.0717,1.0717,1.0717,1.0717,1.0717,1.0717,1.0717,1.0717,1.0717,1.0717,1.0717,1.085,1.2413,1.3259,1.3774,1.5524,1.8244,2.1109,2.1109,2.1109,2.1109,2.1109,2.1109,2.1109,2.1109,2.1015,2.0909,2.0909,2.0815,2.0748,2.0882,2.0909,2.0949,2.1082,2.1109,2.1109,2.1109,2.1109,2.1109,2.1109,2.1109,2.1109,2.1109,2.1109,2.1109,2.1109,2.1109,2.1109,2.1109,2.1109,2.1109,2.1109,2.1109,2.1109,2.1109,2.1109,2.1109,2.1109,2.1109,2.1109,2.1109,2.1109,2.1109,2.1109,2.1109,2.1109,2.1109,2.1109,2.1109,2.1109,2.1109,2.1109,0.0,0.0,0.0,0.0,0.0,0.0,0.0,0.0,0.0,0.0,0.0,0.0,0.0,0.0,0.1188,0.4815,0.5423,0.664,1.0227,1.0717,1.0717,1.0717,1.0487,1.0267,1.0267,1.0568,1.0616,1.0287,1.0575,1.0717,1.0717,1.0717,1.0717,1.0717,1.0717,1.0717,1.0717,1.0717,1.0717,1.0717,1.0717,1.0717,1.0717,1.0717,1.0717,1.0717,1.0717,1.0717,1.0717,1.0717,1.0717,1.0784,1.1505,1.2413,1.3513,1.5265,1.7474,1.961,1.961,2.0259,2.1109,2.1109,2.1109,2.1109,2.1109,2.1109,2.1109,2.1109,2.1109,2.1109,2.1109,2.1109,2.1109,2.1109,2.1109,2.1109,2.1109,2.1109,2.1109,2.1109,2.1109,2.1109,2.1109,2.1109,2.1109,2.1109,2.1109,2.1109,2.1109,2.1109,2.1109,2.1109,2.1109,2.1109,2.1109,2.1109,2.1109,2.1109,2.1109,2.1109,2.1109,2.1109,2.1109,2.1109,2.1109,2.1109,2.1109,2.1109,2.1109,2.1109,2.1109,2.1109,0.0,0.0,0.0,0.0,0.0,0.0,0.0,0.0,0.0,0.0,0.0,0.0,0.0,0.0,0.1182,0.4812,0.5402,0.661,1.022,1.0717,1.0677,1.0548,1.0186,0.9889,0.9647,1.0195,1.0453,1.0186,1.0534,1.0717,1.0717,1.0717,1.0717,1.0717,1.0717,1.0717,1.0717,1.0717,1.0717,1.0717,1.0717,1.0717,1.0717,1.0717,1.0717,1.0717,1.0717,1.0717,1.0717,1.0717,1.0717,1.0717,1.0717,1.1505,1.2742,1.397,1.6172,1.8512,1.8512,1.961,2.1109,2.1109,2.1109,2.1109,2.1109,2.1109,2.1109,2.1109,2.1109,2.1109,2.1109,2.1109,2.1109,2.1109,2.1109,2.1109,2.1109,2.1109,2.1109,2.1109,2.1109,2.1109,2.1109,2.1109,2.1109,2.1109,2.1109,2.1109,2.1109,2.1109,2.1109,2.1109,2.1109,2.1109,2.1109,2.1109,2.1109,2.1109,2.1109,2.1109,2.1109,2.1109,2.1109,2.1109,2.1109,2.1109,2.1109,2.1109,2.1109,2.1109,2.1109,2.1109,0.0,0.0,0.0,0.0,0.0,0.0,0.0,0.0,0.0,0.0,0.0,0.0,0.0,0.0,0.1209,0.4827,0.5426,0.6627,1.018,1.0717,1.0555,1.0058,0.9997,0.9647,0.8838,0.9492,1.0179,1.067,1.0711,1.0717,1.0717,1.0717,1.0717,1.0717,1.0717,1.0717,1.0717,1.0717,1.0717,1.0717,1.0717,1.0717,1.0717,1.0717,1.0717,1.0717,1.0717,1.0717,1.0717,1.0717,1.0717,1.0717,1.0717,1.0717,1.0784,1.085,1.4101,1.8512,1.8512,1.961,2.1109,2.1109,2.1109,2.1109,2.1109,2.1109,2.1109,2.1109,2.1109,2.1109,2.1109,2.1109,2.1109,2.1109,2.1109,2.1109,2.1109,2.1109,2.1109,2.1109,2.1109,2.1109,2.1109,2.1109,2.1109,2.1109,2.1109,2.1109,2.1109,2.1109,2.1109,2.1109,2.1109,2.1109,2.1109,2.1109,2.1109,2.1109,2.1109,2.1109,2.1109,2.1109,2.1109,2.1109,2.1109,2.1109,2.1109,2.1109,2.1109,2.1109,2.1109,2.1109,0.0,0.0,0.0,0.0,0.0,0.0,0.0,0.0,0.0,0.0,0.0,0.0,0.0,0.0,0.1183,0.4795,0.5182,0.6408,1.0182,1.0378,1.0215,1.0466,1.0059,0.9836,1.0025,0.9984,0.9923,0.9842,1.0385,1.0717,1.0717,1.0717,1.0717,1.0717,1.0717,1.0717,1.0717,1.0717,1.0772,1.0806,1.0806,1.0806,1.0799,1.0765,1.0717,1.0717,1.0717,1.0717,1.0717,1.0717,1.0717,1.0717,1.0717,1.0717,1.0717,1.0717,1.2545,1.52,1.6366,1.7923,1.9546,2.0716,2.1109,2.1109,2.1109,2.1109,2.1109,2.1109,2.1109,2.1109,2.1109,2.1109,2.1109,2.1109,2.1109,2.1109,2.1109,2.1109,2.1109,2.1109,2.1109,2.1109,2.1109,2.1109,2.1109,2.1109,2.1109,2.1109,2.1109,2.1109,2.1109,2.1109,2.1109,2.1109,2.1109,2.1109,2.1109,2.1109,2.1109,2.1109,2.1109,2.1109,2.1109,2.1109,2.1109,2.1109,2.1109,2.1109,2.1109,2.1109,2.1109,2.1109,0.0,0.0,0.0,0.0,0.0,0.0,0.0,0.0,0.0,0.0,0.0,0.0,0.0,0.0,0.1158,0.4814,0.5193,0.6367,1.0162,1.0385,1.0229,1.0388,1.0059,0.989,1.0209,1.0065,0.9951,0.972,1.0236,1.0561,1.0561,1.0561,1.0609,1.0717,1.0717,1.0744,1.0799,1.0799,1.088,1.1023,1.1023,1.1023,1.1023,1.0921,1.0792,1.0643,1.0751,1.0711,1.0568,1.0677,1.0717,1.0717,1.0717,1.0717,1.0717,1.0717,1.1439,1.2742,1.507,1.7012,1.8768,2.0526,2.1109,2.1109,2.1109,2.1109,2.1109,2.1109,2.1109,2.1109,2.1109,2.1109,2.1109,2.1109,2.1109,2.1109,2.1109,2.1109,2.1109,2.1109,2.1109,2.1109,2.1109,2.1109,2.1109,2.1109,2.1109,2.1109,2.1109,2.1109,2.1109,2.1109,2.1109,2.1109,2.1109,2.1109,2.1109,2.1109,2.1109,2.1109,2.1109,2.1109,2.1109,2.1109,2.1109,2.1109,2.1109,2.1109,2.1109,2.1109,2.1109,2.1109,0.0,0.0,0.0,0.0,0.0,0.0,0.0,0.0,0.0,0.0,0.0,0.0,0.0,0.0063,0.125,0.4817,0.5438,0.6724,1.0162,1.0683,1.0521,1.0044,0.9997,0.9897,0.949,0.9836,1.0141,1.027,1.0297,1.0304,1.0304,1.0304,1.0432,1.0724,1.0731,1.0806,1.0887,1.09,1.1036,1.1241,1.1241,1.1241,1.1241,1.1165,1.0928,1.0541,1.0833,1.0717,1.0337,1.0616,1.0724,1.0717,1.0717,1.0717,1.0717,1.0717,1.0717,1.1174,1.4623,1.6883,1.8704,2.0526,2.1109,2.1109,2.1109,2.1109,2.1109,2.1109,2.1109,2.1109,2.1109,2.1109,2.1109,2.1109,2.1109,2.1109,2.1109,2.1109,2.1109,2.1109,2.1109,2.1109,2.1109,2.1109,2.1109,2.1109,2.1109,2.1109,2.1109,2.1109,2.1109,2.1109,2.1109,2.1109,2.1109,2.1109,2.1109,2.1109,2.1109,2.1109,2.1109,2.1109,2.1109,2.1109,2.1109,2.1109,2.1109,2.1109,2.1109,2.1109,2.1109,2.1109,0.0,0.0,0.0,0.0,0.0,0.0,0.0,0.0,0.0,0.0,0.0,0.0,0.0,0.0826,0.2361,0.4954,0.6022,0.7407,1.0022,1.0195,1.0093,1.0209,1.0222,1.0263,1.0365,1.048,1.0473,1.0297,1.0487,1.0609,1.0609,1.0609,1.0697,1.0813,1.0826,1.0962,1.1104,1.1219,1.1301,1.1335,1.1335,1.1335,1.1328,1.1212,1.1104,1.0995,1.1077,1.0982,1.0785,1.0793,1.0759,1.0717,1.0717,1.0717,1.0717,1.0717,1.0717,1.0982,1.3193,1.507,1.7076,2.0132,2.1109,2.1109,2.1109,2.1109,2.1109,2.1109,2.1109,2.1109,2.1109,2.1109,2.1109,2.1109,2.1109,2.1109,2.1109,2.1109,2.1109,2.1109,2.1109,2.1109,2.1109,2.1109,2.1109,2.1109,2.1109,2.1109,2.1109,2.1109,2.1109,2.1109,2.1109,2.1109,2.1109,2.1109,2.1109,2.1109,2.1109,2.1109,2.1109,2.1109,2.1109,2.1109,2.1109,2.1109,2.1109,2.1109,2.1109,2.1109,2.1109,2.1109,0.0,0.0,0.0,0.0,0.0,0.0,0.0,0.0,0.0,0.0,0.0,0.0,0.0,0.1114,0.2726,0.5047,0.6374,0.7869,0.9979,1.0134,1.0086,1.0256,1.0283,1.0399,1.069,1.0717,1.0649,1.0487,1.0507,1.0527,1.0527,1.0588,1.0717,1.0873,1.1009,1.1111,1.126,1.1416,1.1491,1.1491,1.1491,1.1491,1.1491,1.1402,1.1253,1.1077,1.1206,1.1104,1.0786,1.0853,1.0833,1.0812,1.0744,1.0717,1.0717,1.0717,1.0717,1.0982,1.2676,1.4428,1.6366,1.9088,2.0462,2.1109,2.1109,2.1109,2.1109,2.1109,2.1109,2.1109,2.1109,2.1109,2.1109,2.1109,2.1109,2.1109,2.1109,2.1109,2.1109,2.1109,2.1109,2.1109,2.1109,2.1109,2.1109,2.1109,2.1109,2.1109,2.1109,2.1109,2.1109,2.1109,2.1109,2.1109,2.1109,2.1109,2.1109,2.1109,2.1109,2.1109,2.1109,2.1109,2.1109,2.1109,2.1109,2.1109,2.1109,2.1109,2.1109,2.1109,2.1109,2.1109,0.0,0.0,0.0,0.0,0.0,0.0,0.0,0.0,0.0,0.0,0.0,0.0,0.0,0.108,0.2751,0.4967,0.645,0.7935,0.9846,1.0188,1.0236,1.0195,1.0243,1.0399,1.069,1.0683,1.0677,1.0717,1.048,1.0337,1.0337,1.0473,1.069,1.0927,1.1145,1.1287,1.1423,1.1552,1.1619,1.1619,1.1619,1.1619,1.1619,1.1619,1.1402,1.0981,1.1307,1.1185,1.0819,1.0955,1.0914,1.0867,1.0806,1.0738,1.0717,1.0717,1.0717,1.0916,1.2413,1.4232,1.6172,1.7923,1.9674,2.1109,2.1109,2.1109,2.1109,2.1109,2.1109,2.1109,2.1109,2.1109,2.1109,2.1109,2.1109,2.1109,2.1109,2.1109,2.1109,2.1109,2.1109,2.1109,2.1109,2.1109,2.1109,2.1109,2.1109,2.1109,2.1109,2.1109,2.1109,2.1109,2.1109,2.1109,2.1109,2.1109,2.1109,2.1109,2.1109,2.1109,2.1109,2.1109,2.1109,2.1109,2.1109,2.1109,2.1109,2.1109,2.1109,2.1109,2.1109,2.1109,0.0,0.0,0.0,0.0,0.0,0.0,0.0,0.0,0.0,0.0,0.0,0.0,0.0,0.1078,0.2615,0.4511,0.5964,0.7343,0.89,0.964,0.9998,0.0,1.0053,1.0399,1.069,1.05,1.046,1.0704,1.067,1.0643,1.0643,1.0785,1.1002,1.1307,1.1463,1.1552,1.1579,1.1606,1.1619,1.1619,1.1619,1.1619,1.1619,1.1619,1.1579,1.1504,1.1558,1.1463,1.1274,1.1301,1.1172,1.088,1.0853,1.0833,1.0717,1.0717,1.0717,1.0717,1.1049,1.3259,1.6172,1.7923,1.9674,2.1109,2.1109,2.1109,2.1109,2.1109,2.1109,2.1109,2.1109,2.1109,2.1109,2.1109,2.1109,2.1109,2.1109,2.1109,2.1109,2.1109,2.1109,2.1109,2.1109,2.1109,2.1109,2.1109,2.1109,2.1109,2.1109,2.1109,2.1109,2.1109,2.1109,2.1109,2.1109,2.1109,2.1109,2.1109,2.1109,2.1109,2.1109,2.1109,2.1109,2.1109,2.1109,2.1109,2.1109,2.1109,2.1109,2.1109,2.1109,2.1109,0.0,0.0,0.0,0.0,0.0,0.0,0.0,0.0,0.0,0.0,0.0,0.0,0.0,0.1114,0.2667,0.4747,0.62,0.7663,0.9374,0.9944,1.012,0.9978,1.0148,1.0337,1.048,1.0365,1.0337,1.048,1.0493,1.0595,1.0759,1.1056,1.128,1.1504,1.1579,1.1619,1.1619,1.1619,1.1619,1.1619,1.1619,1.1619,1.1619,1.1619,1.1619,1.1619,1.1619,1.1443,1.1172,1.1328,1.1124,1.0724,1.082,1.0786,1.0717,1.0717,1.0717,1.0717,1.0717,1.2997,1.6043,1.6883,1.896,2.1109,2.1109,2.1109,2.1109,2.1109,2.1109,2.1109,2.1109,2.1109,2.1109,2.1109,2.1109,2.1109,2.1109,2.1109,2.1109,2.1109,2.1109,2.1109,2.1109,2.1109,2.1109,2.1109,2.1109,2.1109,2.1109,2.1109,2.1109,2.1109,2.1109,2.1109,2.1109,2.1109,2.1109,2.1109,2.1109,2.1109,2.1109,2.1109,2.1109,2.1109,2.1109,2.1109,2.1109,2.1109,2.1109,2.1109,2.1109,2.1109,0.0,0.0,0.0,0.0,0.0,0.0,0.0,0.0,0.0,0.0,0.0,0.0,0.0,0.088,0.2398,0.4845,0.6057,0.7487,0.9757,1.0086,1.012,1.0222,1.0263,0.0,1.0371,1.0317,1.0304,1.0371,1.0432,1.0622,1.0975,1.1246,1.1463,1.1613,1.1619,1.1619,1.1619,1.1619,1.1619,1.1619,1.1619,1.1619,1.1619,1.1619,1.1619,1.1619,1.1619,1.1362,1.0907,1.1301,1.1063,1.0527,1.086,1.088,1.0717,1.0717,1.0717,1.0717,1.0717,1.2997,1.5913,1.5913,1.8244,2.1109,2.1109,2.1109,2.1109,2.1109,2.1109,2.1109,2.1109,2.1109,2.1109,2.1109,2.1109,2.1109,2.1109,2.1109,2.1109,2.1109,2.1109,2.1109,2.1109,2.1109,2.1109,2.1109,2.1109,2.1109,2.1109,2.1109,2.1109,2.1109,2.1109,2.1109,2.1109,2.1109,2.1109,2.1109,2.1109,2.1109,2.1109,2.1109,2.1109,2.1109,2.1109,2.1109,2.1109,2.1109,2.1109,2.1109,2.1109,2.1109,0.0,0.0,0.0,0.0,0.0,0.0,0.0,0.0,0.0,0.0,0.0,0.0,0.0,0.0105,0.1168,0.4265,0.4508,0.5524,0.8988,0.9462,0.9618,0.9957,0.0,0.0,1.0656,1.0439,1.0392,1.0663,1.0928,1.1097,1.1138,1.1301,1.1463,1.1613,1.1619,1.1619,1.1619,1.1619,1.1619,1.1619,1.1619,1.1619,1.1619,1.1619,1.1619,1.1619,1.1619,1.1362,1.0914,1.1416,1.1158,1.0534,1.0975,1.0968,1.0717,1.0717,1.0717,1.0717,1.0717,1.2997,1.5913,1.5913,1.8244,2.1109,2.1109,2.1109,2.1109,2.1109,2.1109,2.1109,2.1109,2.1109,2.1109,2.1109,2.1109,2.1109,2.1109,2.1109,2.1109,2.1109,2.1109,2.1109,2.1109,2.1109,2.1109,2.1109,2.1109,2.1109,2.1109,2.1109,2.1109,2.1109,2.1109,2.1109,2.1109,2.1109,2.1109,2.1109,2.1109,2.1109,2.1109,2.1109,2.1109,2.1109,2.1109,2.1109,2.1109,2.1109,2.1109,2.1109,2.1109,2.1109,0.0,0.0,0.0,0.0,0.0,0.0,0.0,0.0,0.0,0.0,0.0,0.0,0.0,0.0,0.1026,0.4214,0.4549,0.0,0.926,0.9781,0.9951,1.0399,1.0507,1.0521,1.046,1.0351,1.0365,1.0568,1.0778,1.1016,1.1287,1.1443,1.1558,1.1619,1.1619,1.1619,1.1619,1.1619,1.1619,1.1619,1.1619,1.1619,1.1619,1.1619,1.1619,1.1619,1.1619,1.1212,1.0602,1.1321,1.1016,1.0161,1.088,1.0982,1.0717,1.0717,1.0717,1.0717,1.0717,1.2281,1.4493,1.5589,1.7538,1.9737,2.0779,2.1109,2.1109,2.1109,2.1109,2.1109,2.1109,2.1109,2.1109,2.1109,2.1109,2.1109,2.1109,2.1109,2.1109,2.1109,2.1109,2.1109,2.1109,2.1109,2.1109,2.1109,2.1109,2.1109,2.1109,2.1109,2.1109,2.1109,2.1109,2.1109,2.1109,2.1109,2.1109,2.1109,2.1109,2.1109,2.1109,2.1109,2.1109,2.1109,2.1109,2.1109,2.1109,2.1109,2.1109,2.1109,2.1109,2.1109,0.0,0.0,0.0,0.0,0.0,0.0,0.0,0.0,0.0,0.0,0.0,0.0,0.0,0.0342,0.1499,0.4239,0.0,0.6335,0.9379,0.9849,1.0019,1.0466,1.0521,1.0493,1.0419,1.0412,1.0487,1.0677,1.0792,1.1029,1.1436,1.1558,1.1619,1.1619,1.1619,1.1619,1.1619,1.1619,1.1619,1.1619,1.1619,1.1552,1.1423,1.1558,1.1545,1.143,1.1558,1.1185,1.0534,1.1301,1.0989,1.0093,1.086,1.0982,1.0717,1.0717,1.0717,1.0717,1.0717,1.1828,1.3578,1.5329,1.7076,1.8832,2.0589,2.1109,2.1109,2.1109,2.1109,2.1109,2.1109,2.1109,2.1109,2.1109,2.1109,2.1109,2.1109,2.1109,2.1109,2.1109,2.1109,2.1109,2.1109,2.1109,2.1109,2.1109,2.1109,2.1109,2.1109,2.1109,2.1109,2.1109,2.1109,2.1109,2.1109,2.1109,2.1109,2.1109,2.1109,2.1109,2.1109,2.1109,2.1109,2.1109,2.1109,2.1109,2.1109,2.1109,2.1109,2.1109,2.1109,2.1109,0.0,0.0,0.0,0.0,0.0,0.0,0.0,0.0,0.0,0.0,0.0,0.0,0.0,0.1091,0.2554,0.4411,0.5818,0.0,0.9147,0.9388,0.9551,0.9943,0.9997,1.0166,1.067,1.0717,1.0839,1.12,1.1158,1.1294,1.1599,1.1619,1.1619,1.1619,1.1619,1.1619,1.1619,1.1619,1.1619,1.1619,1.1619,1.1389,1.09,1.1416,1.1375,1.0914,1.143,1.1362,1.0907,1.143,1.1172,1.0527,1.0982,1.0982,1.0717,1.0717,1.0717,1.0717,1.0717,1.1828,1.3578,1.5329,1.7076,1.8832,2.0589,2.1109,2.1109,2.1109,2.1109,2.1109,2.1109,2.1109,2.1109,2.1109,2.1109,2.1109,2.1109,2.1109,2.1109,2.1109,2.1109,2.1109,2.1109,2.1109,2.1109,2.1109,2.1109,2.1109,2.1109,2.1109,2.1109,2.1109,2.1109,2.1109,2.1109,2.1109,2.1109,2.1109,2.1109,2.1109,2.1109,2.1109,2.1109,2.1109,2.1109,2.1109,2.1109,2.1109,2.1109,2.1109,2.1109,2.1109,0.0,0.0,0.0,0.0,0.0,0.0,0.0,0.0,0.0,0.0,0.0,0.0,0.0,0.1103,0.2593,0.4418,0.5823,0.0,0.0,0.0,0.0,1.0453,1.0507,1.0561,1.0704,1.0534,1.0629,1.1193,1.0975,1.1084,1.1592,1.1619,1.1619,1.1619,1.1619,1.1619,1.1619,1.1619,1.1619,1.1619,1.1619,1.1382,1.0894,1.1416,1.1375,1.0907,1.1423,1.1362,1.0907,1.1321,1.1077,1.0527,1.088,1.0894,1.0717,1.0717,1.0717,1.0717,1.0717,1.1049,1.2025,1.4949,1.6237,1.728,2.0195,2.1109,2.1109,2.1109,2.1109,2.1109,2.1109,2.1109,2.1109,2.1109,2.1109,2.1109,2.1109,2.1109,2.1109,2.1109,2.1109,2.1109,2.1109,2.1109,2.1109,2.1109,2.1109,2.1109,2.1109,2.1109,2.1109,2.1109,2.1109,2.1109,2.1109,2.1109,2.1109,2.1109,2.1109,2.1109,2.1109,2.1109,2.1109,2.1109,2.1109,2.1109,2.1109,2.1109,2.1109,2.1109,2.1109,2.1109,0.0,0.0,0.0,0.0,0.0,0.0,0.0,0.0,0.0,0.0,0.0,0.0,0.0,0.1486,0.3125,0.4267,0.6275,0.8132,0.9372,0.9741,0.9985,1.027,1.0453,1.0602,1.0711,1.0555,1.0622,1.105,1.0962,1.1077,1.1511,1.1586,1.1619,1.1619,1.1619,1.1619,1.1619,1.1619,1.1619,1.1619,1.1619,1.1382,1.0894,1.1416,1.1375,1.0907,1.1423,1.1463,0.0,1.1341,1.1138,1.0758,1.0826,1.0786,1.0717,1.0717,1.0717,1.0717,1.0717,1.0717,1.1174,1.397,1.5784,1.7409,2.0259,2.1109,2.1109,2.1109,2.1109,2.1109,2.1109,2.1109,2.1109,2.1109,2.1109,2.1109,2.1109,2.1109,2.1109,2.1109,2.1109,2.1109,2.1109,2.1109,2.1109,2.1109,2.1109,2.1109,2.1109,2.1109,2.1109,2.1109,2.1109,2.1109,2.1109,2.1109,2.1109,2.1109,2.1109,2.1109,2.1109,2.1109,2.1109,2.1109,2.1109,2.1109,2.1109,2.1109,2.1109,2.1109,2.1109,2.1109,0.0,0.0,0.0,0.0,0.0,0.0,0.0,0.0,0.0,0.0,0.0,0.0054,0.0103,0.2275,0.4089,0.4177,0.71,0.9239,0.8832,0.9286,0.9646,0.9625,1.0032,1.0412,1.0663,1.0711,1.0785,1.0867,1.107,1.1219,1.1382,1.1525,1.1606,1.1619,1.1619,1.1619,1.1619,1.1619,1.1606,1.1572,1.1606,1.1369,1.0847,1.1402,1.1375,1.0907,1.1423,1.1613,1.1592,1.1436,1.1287,1.1131,1.0989,1.0779,1.0717,1.0717,1.0717,1.0717,1.0717,1.0717,1.0982,1.2865,1.5784,1.8832,2.0589,2.1109,2.1109,2.1109,2.1109,2.1109,2.1109,2.1109,2.1109,2.1109,2.1109,2.1109,2.1109,2.1109,2.1109,2.1109,2.1109,2.1109,2.1109,2.1109,2.1109,2.1109,2.1109,2.1109,2.1109,2.1109,2.1109,2.1109,2.1109,2.1109,2.1109,2.1109,2.1109,2.1109,2.1109,2.1109,2.1109,2.1109,2.1109,2.1109,2.1109,2.1109,2.1109,2.1109,2.1109,2.1109,2.1109,2.1109,0.0,0.0,0.0,0.0,0.0,0.0,0.0,0.0,0.0,0.0,0.0,0.0327,0.1344,0.318,0.4878,0.5875,0.7941,0.9388,0.9395,0.9815,1.0032,0.9802,1.027,1.0555,1.0399,1.0588,1.0785,1.0867,1.0914,1.1111,1.1375,1.1423,1.1497,1.1613,1.1619,1.1619,1.1619,1.1619,1.1443,1.1042,1.1457,1.1206,1.0466,1.126,1.1375,1.0907,1.1423,1.1552,1.1436,1.128,1.1131,1.0982,1.0833,1.0751,1.0717,1.0717,1.0717,1.0717,1.0717,1.0717,1.124,1.4297,1.6754,1.8832,2.0589,2.1109,2.1109,2.1109,2.1109,2.1109,2.1109,2.1109,2.1109,2.1109,2.1109,2.1109,2.1109,2.1109,2.1109,2.1109,2.1109,2.1109,2.1109,2.1109,2.1109,2.1109,2.1109,2.1109,2.1109,2.1109,2.1109,2.1109,2.1109,2.1109,2.1109,2.1109,2.1109,2.1109,2.1109,2.1109,2.1109,2.1109,2.1109,2.1109,2.1109,2.1109,2.1109,2.1109,2.1109,2.1109,2.1109,2.1109,0.0,0.0,0.0,0.0,0.0,0.0,0.0,0.0,0.0,0.0,0.0,0.0383,0.1746,0.3289,0.489,0.6453,0.8072,0.93,0.9659,0.9917,1.0005,0.9842,1.0107,1.0304,1.0283,1.0548,1.0758,1.0772,1.084,1.0954,1.1179,1.1314,1.143,1.1511,1.1586,1.1619,1.1619,1.1619,1.143,1.105,1.1436,1.1294,1.0704,1.1335,1.1484,1.1253,1.1219,1.128,1.1355,1.0934,1.0833,1.0867,1.0778,1.0717,1.0717,1.0717,1.0717,1.0717,1.0717,1.0717,1.124,1.4754,1.656,1.7795,2.0322,2.1109,2.1109,2.1109,2.1109,2.1109,2.1109,2.1109,2.1109,2.1109,2.1109,2.1109,2.1109,2.1109,2.1109,2.1109,2.1109,2.1109,2.1109,2.1109,2.1109,2.1109,2.1109,2.1109,2.1109,2.1109,2.1109,2.1109,2.1109,2.1109,2.1109,2.1109,2.1109,2.1109,2.1109,2.1109,2.1109,2.1109,2.1109,2.1109,2.1109,2.1109,2.1109,2.1109,2.1109,2.1109,2.1109,2.1109,0.0,0.0,0.0,0.0,0.0,0.0,0.0,0.0,0.0,0.0,0.0,0.0,0.2043,0.3349,0.4808,0.672,0.8115,0.9161,0.972,0.9849,0.9876,0.9829,0.9903,1.0046,1.0256,1.0548,1.0717,1.0717,1.0839,1.0853,1.088,1.1185,1.1335,1.1355,1.1484,1.1552,1.1552,1.1599,1.1457,1.1131,1.1463,1.145,1.1138,1.147,1.1606,1.1558,1.1043,1.1016,1.1274,1.0643,1.0588,1.0833,1.0772,1.0717,1.0717,1.0717,1.0717,1.0717,1.0717,1.0717,1.124,1.4754,1.5913,1.656,2.0068,2.1109,2.1109,2.1109,2.1109,2.1109,2.1109,2.1109,2.1109,2.1109,2.1109,2.1109,2.1109,2.1109,2.1109,2.1109,2.1109,2.1109,2.1109,2.1109,2.1109,2.1109,2.1109,2.1109,2.1109,2.1109,2.1109,2.1109,2.1109,2.1109,2.1109,2.1109,2.1109,2.1109,2.1109,2.1109,2.1109,2.1109,2.1109,2.1109,2.1109,2.1109,2.1109,2.1109,2.1109,2.1109,2.1109,2.1136,0.0,0.0,0.0,0.0,0.0,0.0,0.0,0.0,0.0,0.0,0.0,0.0,0.3253,0.4521,0.5898,0.806,0.8987,0.9537,0.9632,0.9971,1.0114,0.9856,1.027,1.05,1.0297,1.0548,1.0717,1.0717,1.0744,1.0812,1.0873,1.0921,1.107,1.1261,1.1219,1.1233,1.1233,1.1491,1.1402,1.0921,1.1416,1.1396,1.0927,1.1423,1.1552,1.1423,1.1328,1.1185,1.0941,1.0826,1.0812,1.0751,1.0731,1.0717,1.0717,1.0717,1.0717,1.0717,1.0717,1.0717,1.124,1.4754,1.5913,1.656,2.0068,2.1109,2.1109,2.1109,2.1109,2.1109,2.1109,2.1109,2.1109,2.1109,2.1109,2.1109,2.1109,2.1109,2.1109,2.1109,2.1109,2.1109,2.1109,2.1109,2.1109,2.1109,2.1109,2.1109,2.1109,2.1109,2.1109,2.1109,2.1109,2.1109,2.1109,2.1109,2.1109,2.1109,2.1109,2.1109,2.1109,2.1109,2.1109,2.1109,2.1109,2.1109,2.1109,2.1109,2.1109,2.1109,2.1109,2.1243,0.0,0.0,0.0,0.0,0.0,0.0,0.0,0.0,0.0,0.0,0.0,0.0,0.376,0.5204,0.6793,0.8838,0.9768,1.0154,0.9992,1.0148,1.0229,1.0086,1.031,1.0432,1.029,1.0548,1.0717,1.0717,1.0717,1.0751,1.0819,1.0833,1.0914,1.1043,1.1124,1.1234,1.1234,1.1301,1.1185,1.0826,1.1199,1.1179,1.0839,1.1206,1.1335,1.1253,1.0928,1.0853,1.0853,1.053,1.0496,1.0717,1.0717,1.0717,1.0717,1.0717,1.0717,1.0717,1.0717,1.0717,1.124,1.4754,1.5913,1.656,2.0068,2.1109,2.1109,2.1109,2.1109,2.1109,2.1109,2.1109,2.1109,2.1109,2.1109,2.1109,2.1109,2.1109,2.1109,2.1109,2.1109,2.1109,2.1109,2.1109,2.1109,2.1109,2.1109,2.1109,2.1109,2.1109,2.1109,2.1109,2.1109,2.1109,2.1109,2.1109,2.1109,2.1109,2.1109,2.1109,2.1109,2.1109,2.1109,2.1109,2.1109,2.1109,2.1109,2.1109,2.1216,2.1352,2.1352,2.155,0.0,0.0,0.0,0.0,0.0,0.0,0.0,0.0,0.0106,0.0553,0.1438,0.2713,0.4591,0.6258,0.7912,0.9493,1.0243,1.0561,1.0405,1.0385,1.0385,1.0385,1.0385,1.0385,1.0385,1.0588,1.0717,1.0717,1.0717,1.0717,1.0717,1.0833,1.0826,1.0826,1.1002,1.1056,1.1056,1.1056,1.0982,1.0826,1.1056,1.1043,1.0833,1.1056,1.1145,1.109,1.0636,1.0609,1.0793,1.0334,1.0412,1.0717,1.0717,1.0717,1.0717,1.0717,1.0717,1.0717,1.0717,1.0717,1.124,1.4754,1.5913,1.656,2.0068,2.1109,2.1109,2.1109,2.1109,2.1109,2.1109,2.1109,2.1109,2.1109,2.1109,2.1109,2.1109,2.1109,2.1109,2.1109,2.1109,2.1109,2.1109,2.1109,2.1109,2.1109,2.1109,2.1109,2.1109,2.1109,2.1109,2.1109,2.1109,2.1109,2.1109,2.1109,2.1109,2.1186,2.1109,2.1109,2.1109,2.1109,2.1109,2.1109,2.1171,2.1225,2.1225,2.1288,2.1459,2.1686,2.1712,2.1805,0.0,0.0,0.0,0.0,0.0,0.0,0.0,0.0,0.0485,0.2147,0.2564,0.3602,0.6589,0.8412,0.9573,1.0154,1.0276,1.0399,1.0656,1.069,1.069,1.069,1.069,1.069,1.069,1.0711,1.0717,1.0717,1.0717,1.0717,1.0717,1.0731,1.0738,1.0738,1.0744,1.0751,1.0751,1.0751,1.088,1.1131,1.122,1.122,1.1131,1.122,1.109,1.0894,1.0853,1.0772,1.0731,1.069,1.069,1.0717,1.0717,1.0717,1.0717,1.0717,1.0717,1.0717,1.0717,1.0717,1.124,1.4754,1.5913,1.656,2.0068,2.1109,2.1109,2.1109,2.1109,2.1109,2.1109,2.1109,2.1109,2.1109,2.1109,2.1109,2.1109,2.1109,2.1109,2.1109,2.1109,2.1109,2.1109,2.1109,2.1109,2.1109,2.1109,2.1109,2.1109,2.1109,2.1109,2.1109,2.1109,2.1109,2.1109,2.1109,2.1249,2.1543,2.1249,2.1109,2.1109,2.1109,2.1109,2.1109,2.1421,2.1573,2.1573,2.1843,2.1978,2.1992,2.1965,2.2111,0.0,0.0,0.0,0.0,0.0,0.0,0.0,0.0872,0.1563,0.1087,0.3305,0.5952,0.8149,0.9357,1.008,1.0249,1.0432,1.0595,1.0704,1.0717,1.0717,1.0717,1.0717,1.0717,1.0717,1.0717,1.0717,1.0717,1.0717,1.0717,1.0717,1.0717,1.0717,1.0717,1.0717,1.0717,1.0717,1.0717,1.0778,1.0887,1.0887,1.0887,1.0887,1.0887,1.086,1.0806,1.0806,1.0772,1.0717,1.0717,1.0717,1.0717,1.0717,1.0717,1.0717,1.0717,1.0717,1.0717,1.0717,1.0717,1.124,1.4754,1.5913,1.656,2.0068,2.1109,2.1109,2.1109,2.1109,2.1109,2.1109,2.1109,2.1109,2.1109,2.1109,2.1109,2.1109,2.1109,2.1109,2.1109,2.1109,2.1109,2.1109,2.1109,2.1109,2.1109,2.1109,2.1109,2.1109,2.1269,2.139,2.139,2.155,2.1657,2.1657,2.1692,2.169,2.1832,2.1538,2.1466,2.1683,2.1683,2.1676,2.166,2.1794,2.1816,2.188,2.1964,2.2084,2.2284,2.2218,2.2418,0.0,0.0,0.0,0.0,0.0,0.0158,0.0734,0.1824,0.2511,0.1812,0.5122,0.8425,0.9386,0.993,1.0283,1.0283,1.0446,1.0616,1.0711,1.0717,1.0717,1.0717,1.0717,1.0717,1.0717,1.0717,1.0717,1.0717,1.0717,1.0717,1.0717,1.0717,1.0717,1.0717,1.0717,1.0717,1.0717,1.0717,1.0717,1.0717,1.0717,1.0717,1.0717,1.0717,1.0717,1.0717,1.0717,1.0717,1.0717,1.0717,1.0717,1.0717,1.0717,1.0717,1.0717,1.0717,1.0717,1.0717,1.0717,1.0717,1.124,1.4754,1.5524,1.5848,1.9877,2.0322,1.9674,2.0779,2.0716,2.0399,2.0982,2.1109,2.1109,2.1109,2.1109,2.1109,2.1109,2.1109,2.1109,2.1109,2.1109,2.1109,2.1109,2.1189,2.1256,2.1256,2.1323,2.139,2.139,2.1563,2.1762,2.1762,2.1871,2.1991,2.1991,2.2027,2.2011,2.2144,2.1943,2.19,2.1977,2.1988,2.1965,2.2001,2.2082,2.2115,2.2149,2.223,2.2418,2.2565,2.2565,2.2672,0.0,0.0,0.0,0.0,0.0,0.0474,0.2255,0.2725,0.3219,0.5045,0.8209,1.0563,1.0331,1.0283,1.0283,1.0283,1.0283,1.0385,1.0677,1.0717,1.0717,1.0717,1.0717,1.0717,1.0717,1.0717,1.0717,1.0717,1.0717,1.0717,1.0717,1.0717,1.0717,1.0717,1.0717,1.0717,1.0717,1.0717,1.0717,1.0717,1.0717,1.0717,1.0717,1.0717,1.0717,1.0717,1.0717,1.0717,1.0717,1.0717,1.0717,1.0717,1.0717,1.0717,1.0717,1.0717,1.0717,1.0717,1.0717,1.0717,1.124,1.4754,1.4688,1.4297,1.9483,1.864,1.6625,2.0132,1.9865,1.8896,2.0652,2.1109,2.1109,2.1109,2.1109,2.1109,2.1109,2.1109,2.1109,2.1109,2.1109,2.1109,2.1122,2.1363,2.1614,2.1614,2.1804,2.1991,2.1991,2.1991,2.1991,2.1991,2.1991,2.1991,2.1991,2.204,2.2092,2.2361,2.2401,2.2286,2.1991,2.2018,2.2014,2.2014,2.2245,2.2395,2.2395,2.2709,2.2928,2.2928,2.2928,2.2928,0.0,0.0,0.0,0.0,0.0,0.0436,0.1976,0.2511,0.0,0.6328,0.7819,0.8829,0.9764,1.0304,1.0521,1.0317,1.0453,1.0622,1.0711,1.0717,1.0717,1.0717,1.0717,1.0717,1.0717,1.0717,1.0717,1.0717,1.0717,1.0717,1.0717,1.0717,1.0717,1.0717,1.0717,1.0717,1.0717,1.0717,1.0717,1.0717,1.0717,1.0717,1.0717,1.0717,1.0717,1.0717,1.0717,1.0717,1.0717,1.0717,1.0717,1.0717,1.0717,1.0717,1.0717,1.0717,1.0717,1.0717,1.0717,1.0717,1.1049,1.3325,1.3709,1.4036,1.8052,1.8576,1.818,2.0462,2.0716,2.0462,2.0982,2.1109,2.1109,2.1109,2.1109,2.1109,2.1109,2.1109,2.1176,2.1376,2.1416,2.1483,2.1697,2.1804,2.1857,2.1857,2.1937,2.2058,2.2258,2.2285,2.2365,2.2579,2.2605,2.2605,2.2605,2.2619,2.2687,2.2754,2.2741,2.2727,2.2646,2.2604,2.2627,2.2627,2.2709,2.2777,2.2777,2.2859,2.2928,2.2928,2.2928,2.2928,0.0,0.0,0.0,0.0,0.0453,0.1283,0.2894,0.3959,0.5471,0.8258,0.8815,0.9092,1.0019,1.0473,1.0663,1.0487,1.0602,1.0717,1.0717,1.0717,1.0717,1.0717,1.0717,1.0717,1.0717,1.0717,1.0717,1.0717,1.0717,1.0717,1.0717,1.0717,1.0717,1.0717,1.0717,1.0717,1.0717,1.0717,1.0717,1.0717,1.0717,1.0717,1.0717,1.0717,1.0717,1.0717,1.0717,1.0717,1.0717,1.0717,1.0717,1.0717,1.0717,1.0717,1.0717,1.0717,1.0717,1.0717,1.0717,1.0717,1.0982,1.2734,1.28,1.2931,1.6431,1.6947,1.6947,1.9355,2.0068,2.0195,2.0919,2.1203,2.1256,2.1136,2.1203,2.1283,2.1283,2.1376,2.151,2.1683,2.1789,2.1777,2.1951,2.2084,2.2164,2.2164,2.2258,2.2392,2.2565,2.2592,2.2659,2.2914,2.2928,2.2928,2.2928,2.2928,2.2928,2.2928,2.2928,2.2928,2.2928,2.2928,2.2928,2.2928,2.2928,2.2928,2.2928,2.2928,2.2928,2.2928,2.2928,2.2928,0.0,0.0,0.0,0.0,0.1241,0.295,0.4734,0.6541,0.833,1.007,1.0565,1.069,1.0717,1.0717,1.0717,1.0717,1.0717,1.0717,1.0717,1.0717,1.0717,1.0717,1.0717,1.0717,1.0717,1.0717,1.0717,1.0717,1.0717,1.0717,1.0717,1.0717,1.0717,1.0717,1.0717,1.0717,1.0717,1.0717,1.0717,1.0717,1.0717,1.0717,1.0717,1.0717,1.0717,1.0717,1.0717,1.0717,1.0717,1.0717,1.0717,1.0717,1.0717,1.0717,1.0717,1.0717,1.0717,1.0717,1.0717,1.0717,1.0982,1.2545,1.2025,1.1306,1.4623,1.4688,1.4232,1.7538,1.8652,1.9124,2.0755,2.1376,2.1588,2.1256,2.139,2.1655,2.1655,2.1804,2.1991,2.2017,2.2031,2.2031,2.2058,2.2285,2.2458,2.2458,2.2686,2.2928,2.2928,2.2928,2.2928,2.2928,2.2928,2.2928,2.2928,2.2928,2.2928,2.2928,2.2928,2.2928,2.2928,2.2928,2.2928,2.2928,2.2928,2.2928,2.2928,2.2928,2.2928,2.2928,2.2928,2.2928,0.0,0.0,0.0,0.0,0.219,0.4829,0.6846,0.8578,0.9506,0.8706,0.9543,1.0446,1.0677,1.0717,1.0717,1.0717,1.0717,1.0717,1.0717,1.0717,1.0717,1.0717,1.0717,1.0717,1.0717,1.0717,1.0717,1.0717,1.0717,1.0717,1.0717,1.0717,1.0717,1.0717,1.0717,1.0717,1.0717,1.0717,1.0717,1.0717,1.0717,1.0717,1.0717,1.0717,1.0717,1.0717,1.0717,1.0717,1.0717,1.0717,1.0717,1.0717,1.0717,1.0717,1.0717,1.0717,1.0717,1.0717,1.0717,1.0717,1.0784,1.1108,1.0982,1.1108,1.3193,1.4558,1.5784,1.7923,1.9695,2.0993,2.1392,2.167,2.1884,2.1804,2.1844,2.1897,2.1897,2.1937,2.2058,2.2285,2.2325,2.2405,2.2632,2.2726,2.2766,2.2766,2.2819,2.2928,2.2928,2.2928,2.2928,2.2928,2.2928,2.2928,2.2928,2.2928,2.2928,2.2928,2.2928,2.2928,2.2928,2.2928,2.2928,2.2928,2.2928,2.2928,2.2928,2.2928,2.2928,2.2928,2.2928,2.2928,0.0,0.0,0.04,0.194,0.4391,0.6874,0.8699,0.9837,1.0267,0.948,0.9933,1.0534,1.069,1.0717,1.0717,1.0717,1.0717,1.0717,1.0717,1.0717,1.0717,1.0717,1.0717,1.0717,1.0717,1.0717,1.0717,1.0717,1.0717,1.0717,1.0717,1.0717,1.0717,1.0717,1.0717,1.0717,1.0717,1.0717,1.0717,1.0717,1.0717,1.0717,1.0717,1.0717,1.0717,1.0717,1.0717,1.0717,1.0717,1.0717,1.0717,1.0717,1.0717,1.0717,1.0717,1.0717,1.0717,1.0717,1.0717,1.0717,1.0717,1.0717,1.0717,1.085,1.1762,1.3259,1.5033,1.6957,1.8859,2.0578,2.1515,2.1977,2.2191,2.2191,2.2191,2.2191,2.2191,2.2311,2.2445,2.2605,2.2632,2.2686,2.2832,2.2928,2.2928,2.2928,2.2928,2.2928,2.2928,2.2928,2.2928,2.2928,2.2928,2.2928,2.2928,2.2928,2.2928,2.2928,2.2928,2.2928,2.2928,2.2928,2.2928,2.2928,2.2928,2.2928,2.2928,2.2928,2.2928,2.2928,2.2928,2.2928,0.0,0.0227,0.1193,0.4227,0.6472,0.8302,0.9986,1.0487,1.0629,1.0704,1.0717,1.0717,1.0717,1.0717,1.0717,1.0717,1.0717,1.0717,1.0717,1.0717,1.0717,1.0717,1.0717,1.0717,1.0717,1.0717,1.0717,1.0717,1.0717,1.0717,1.0717,1.0717,1.0717,1.0717,1.0717,1.0717,1.0717,1.0717,1.0717,1.0717,1.0717,1.0717,1.0717,1.0717,1.0717,1.0717,1.0717,1.0717,1.0717,1.0717,1.0717,1.0717,1.0717,1.0717,1.0717,1.0717,1.0717,1.0717,1.0717,1.0717,1.0717,1.0717,1.0717,1.0717,1.0717,1.2173,1.4182,1.5932,1.7961,1.9944,2.1661,2.2271,2.2498,2.2498,2.2498,2.2498,2.2498,2.2686,2.2928,2.2928,2.2928,2.2928,2.2928,2.2928,2.2928,2.2928,2.2928,2.2928,2.2928,2.2928,2.2928,2.2928,2.2928,2.2928,2.2928,2.2928,2.2928,2.2928,2.2928,2.2928,2.2928,2.2928,2.2928,2.2928,2.2928,2.2928,2.2928,2.2928,2.2928,2.2928,2.2928,2.2928,0.0,0.0,0.2793,0.0,0.6438,0.8043,1.0162,1.0392,1.0186,1.0636,1.0717,1.0717,1.0717,1.0717,1.0717,1.0717,1.0717,1.0717,1.0717,1.0717,1.0717,1.0717,1.0717,1.0717,1.0717,1.0717,1.0717,1.0717,1.0717,1.0717,1.0717,1.0717,1.0717,1.0717,1.0717,1.0717,1.0717,1.0717,1.0717,1.0717,1.0717,1.0717,1.0717,1.0717,1.0717,1.0717,1.0717,1.0717,1.0717,1.0717,1.0717,1.0717,1.0717,1.0717,1.0717,1.0717,1.0717,1.0717,1.0717,1.0717,1.0717,1.0717,1.0717,1.0717,1.0717,1.3178,1.6008,1.6303,1.9072,2.2031,2.2284,2.2579,2.2806,2.2806,2.2806,2.2806,2.2806,2.2901,2.2928,2.2928,2.2928,2.2928,2.2928,2.2928,2.2928,2.2928,2.2928,2.2928,2.2928,2.2928,2.2928,2.2928,2.2928,2.2928,2.2928,2.2928,2.2928,2.2928,2.2928,2.2928,2.2928,2.2928,2.2928,2.2928,2.2928,2.2928,2.2928,2.2928,2.2928,2.2928,2.2928,2.2928,0.1235,0.2096,0.3121,0.0,0.5814,0.6786,0.8731,0.9004,0.9223,1.0425,1.0717,1.0717,1.0717,1.0717,1.0717,1.0717,1.0717,1.0717,1.0717,1.0717,1.0717,1.0717,1.0717,1.0717,1.0717,1.0717,1.0717,1.0717,1.0717,1.0717,1.0717,1.0717,1.0717,1.0717,1.0717,1.0717,1.0717,1.0717,1.0717,1.0717,1.0717,1.0717,1.0717,1.0717,1.0717,1.0717,1.0717,1.0717,1.0717,1.0717,1.0717,1.0717,1.0717,1.0717,1.0717,1.0717,1.0717,1.0717,1.0717,1.0717,1.0717,1.0717,1.0717,1.0717,1.0717,1.2664,1.5148,1.6332,1.8698,2.1205,2.2415,2.2766,2.2928,2.2928,2.2928,2.2928,2.2928,2.2928,2.2928,2.2928,2.2928,2.2928,2.2928,2.2928,2.2928,2.2928,2.2928,2.2928,2.2928,2.2928,2.2928,2.2928,2.2928,2.2928,2.2928,2.2928,2.2928,2.2928,2.2928,2.2928,2.2928,2.2928,2.2928,2.2928,2.2928,2.2928,2.2928,2.2928,2.2928,2.2928,2.2928,2.2928,0.0,0.0,0.3986,0.4989,0.575,0.6525,0.0,0.8089,0.8753,1.0194,1.0643,1.0717,1.0717,1.0717,1.0717,1.0717,1.0717,1.0717,1.0717,1.0717,1.0717,1.0717,1.0717,1.0717,1.0717,1.0717,1.0717,1.0717,1.0717,1.0717,1.0717,1.0717,1.0717,1.0717,1.0717,1.0717,1.0717,1.0717,1.0717,1.0717,1.0717,1.0717,1.0717,1.0717,1.0717,1.0717,1.0717,1.0717,1.0717,1.0717,1.0717,1.0717,1.0717,1.0717,1.0717,1.0717,1.0717,1.0717,1.0717,1.0717,1.0717,1.0717,1.0717,1.079,1.1356,1.2928,1.4974,1.7006,1.9004,2.091,2.2519,2.2928,2.2928,2.2928,2.2928,2.2928,2.2928,2.2928,2.2928,2.2928,2.2928,2.2928,2.2928,2.2928,2.2928,2.2928,2.2928,2.2928,2.2928,2.2928,2.2928,2.2928,2.2928,2.2928,2.2928,2.2928,2.2928,2.2928,2.2928,2.2928,2.2928,2.2928,2.2928,2.2928,2.2928,2.2928,2.2928,2.2928,2.2928,2.2928,2.2928,2.2928,0.0,0.5062,0.0,0.5013,0.6647,0.8317,0.7591,0.8429,0.9485,0.993,1.0361,1.0717,1.0717,1.0717,1.0717,1.0717,1.0717,1.0717,1.0717,1.0717,1.0717,1.0717,1.0717,1.0717,1.0717,1.0717,1.0717,1.0717,1.0717,1.0717,1.0717,1.0717,1.0717,1.0717,1.0717,1.0717,1.0717,1.0717,1.0717,1.0717,1.0717,1.0717,1.0717,1.0717,1.0717,1.0717,1.0717,1.0717,1.0717,1.0717,1.0717,1.0717,1.0717,1.0717,1.0717,1.0717,1.0717,1.0717,1.0717,1.0717,1.0717,1.0717,1.0717,1.1077,1.3069,1.505,1.7073,1.9083,2.1152,2.2777,2.2859,2.2928,2.2928,2.2928,2.2928,2.2928,2.2928,2.2928,2.2928,2.2928,2.2928,2.2928,2.2928,2.2928,2.2928,2.2928,2.2928,2.2928,2.2928,2.2928,2.2928,2.2928,2.2928,2.2928,2.2928,2.2928,2.2928,2.2928,2.2928,2.2928,2.2928,2.2928,2.2928,2.2928,2.2928,2.2928,2.2928,2.2928,2.2928,2.2928,2.2928,2.2928,0.0,0.0,0.0,0.5729,0.5741,0.5922,0.6732,0.7561,0.8423,0.9407,1.0209,1.0629,1.028,1.0527,1.0717,1.0717,1.0717,1.0717,1.0717,1.0717,1.0717,1.0717,1.0717,1.0717,1.0717,1.0717,1.0717,1.0717,1.0388,1.0348,1.0704,1.0381,1.0419,1.0711,1.0717,1.0717,1.0717,1.0717,1.0717,1.0717,1.0717,1.0717,1.0717,1.0717,1.0717,1.0717,1.0717,1.0717,1.0717,1.0717,1.0717,1.0717,1.0717,1.0717,1.0717,1.0717,1.0717,1.0717,1.0717,1.0717,1.0717,1.0717,1.157,1.2853,1.3578,1.6096,1.8857,1.9628,2.1301,2.2928,2.2928,2.2928,2.2928,2.2928,2.2928,2.2928,2.2928,2.2928,2.2928,2.2928,2.2928,2.2928,2.2928,2.2928,2.2928,2.2928,2.2928,2.2928,2.2928,2.2928,2.2928,2.2928,2.2928,2.2928,2.2928,2.2928,2.2928,2.2928,2.2928,2.2928,2.2928,2.2928,2.2928,2.2928,2.2928,2.2928,2.2928,2.2928,2.2928,2.2928,2.2928,2.2928,0.6372,0.0,0.0,0.0,0.5803,0.5528,0.6314,0.7271,0.8323,0.9207,1.0093,1.0629,1.0267,1.0521,1.0717,1.0717,1.0717,1.0717,1.0717,1.0717,1.0717,1.0717,1.0717,1.0717,1.0717,1.0717,1.0717,1.0717,1.0381,1.0341,1.0704,1.0375,1.0412,1.0711,1.0717,1.0717,1.0717,1.0717,1.0717,1.0717,1.0717,1.0717,1.0717,1.0717,1.0717,1.0717,1.0717,1.0717,1.0717,1.0717,1.0717,1.0717,1.0717,1.0717,1.0717,1.0717,1.0717,1.0717,1.0717,1.0717,1.0717,1.0717,1.214,1.3947,1.4602,1.7151,1.9947,2.0668,2.1799,2.2928,2.2928,2.2928,2.2928,2.2928,2.2928,2.2928,2.2928,2.2928,2.2928,2.2928,2.2928,2.2928,2.2928,2.2928,2.2928,2.2928,2.2928,2.2928,2.2928,2.2928,2.2928,2.2928,2.2928,2.2928,2.2928,2.2928,2.2928,2.2928,2.2928,2.2928,2.2928,2.2928,2.2928,2.2928,2.2928,2.2928,2.2928,2.2928,2.2928,2.2928,2.2928,2.2928,0.0,0.0,0.0,0.6193,0.6929,0.7633,0.6381,0.7798,0.9361,0.9361,1.0073,1.0704,1.0704,1.0711,1.0717,1.0717,1.0717,1.0717,1.0717,1.0717,1.0717,1.0717,1.0717,1.0717,1.0717,1.0717,1.0717,1.0717,1.0711,1.0704,1.0717,1.0717,1.0717,1.0717,1.0717,1.0717,1.0717,1.0717,1.0717,1.0717,1.0717,1.0717,1.0717,1.0717,1.0717,1.0717,1.0717,1.0717,1.0717,1.0717,1.0717,1.0717,1.0717,1.0717,1.0717,1.0717,1.0717,1.0717,1.0717,1.0717,1.0717,1.079,1.2214,1.4241,1.6251,1.8305,2.0335,2.2356,2.2928,2.2928,2.2928,2.2928,2.2928,2.2928,2.2928,2.2928,2.2928,2.2928,2.2928,2.2928,2.2928,2.2928,2.2928,2.2928,2.2928,2.2928,2.2928,2.2928,2.2928,2.2928,2.2928,2.2928,2.2928,2.2928,2.2928,2.2928,2.2928,2.2928,2.2928,2.2928,2.2928,2.2928,2.2928,2.2928,2.2928,2.2928,2.2928,2.2928,2.2928,2.2928,2.2928,2.2928,0.7238,0.0,0.0,0.0,0.0,0.0,0.7515,0.8217,0.8893,0.8893,0.9612,1.0172,1.0172,1.05,1.0717,1.0717,1.0717,1.0717,1.0717,1.0717,1.0717,1.0717,1.0717,1.0717,1.0717,1.0717,1.0717,1.0717,1.0419,1.0314,1.0704,1.0717,1.0717,1.0717,1.0717,1.0717,1.0717,1.0717,1.0717,1.0717,1.0717,1.0717,1.0717,1.0717,1.0717,1.0717,1.0717,1.0717,1.0717,1.0717,1.0717,1.0717,1.0717,1.0717,1.0717,1.0717,1.0717,1.0717,1.0717,1.0717,1.0937,1.2429,1.4316,1.6328,1.8383,2.0427,2.2193,2.2764,2.2928,2.2928,2.2928,2.2928,2.2928,2.2928,2.2928,2.2928,2.2928,2.2928,2.2928,2.2928,2.2928,2.2928,2.2928,2.2928,2.2928,2.2928,2.2928,2.2928,2.2928,2.2928,2.2928,2.2928,2.2928,2.2928,2.2928,2.2928,2.2928,2.2928,2.2928,2.2928,2.2928,2.2928,2.2928,2.2928,2.2928,2.2928,2.2928,2.2928,2.2928,2.2928,2.2928,2.2928,0.0,0.0,0.0,0.7685,0.0,0.0,0.7968,0.8533,0.8988,0.8988,0.9707,1.0206,1.0086,1.0263,1.0439,1.0439,1.0439,1.0507,1.0697,1.0717,1.0717,1.0717,1.0717,1.0717,1.0717,1.0717,1.0717,1.0717,1.0473,1.0381,1.0704,1.0717,1.0717,1.0717,1.0717,1.0717,1.0717,1.0717,1.0717,1.0717,1.0717,1.0717,1.0717,1.0717,1.0717,1.0717,1.0717,1.0717,1.0717,1.0717,1.0717,1.0717,1.0717,1.0717,1.0717,1.0717,1.0717,1.0717,1.0717,1.0765,1.096,1.2179,1.4517,1.7083,1.8312,2.0605,2.2928,2.2928,2.2928,2.2928,2.2928,2.2928,2.2928,2.2928,2.2928,2.2928,2.2928,2.2928,2.2928,2.2928,2.2928,2.2928,2.2928,2.2928,2.2928,2.2928,2.2928,2.2928,2.2928,2.2928,2.2928,2.2928,2.2928,2.2928,2.2928,2.2928,2.2928,2.2928,2.2928,2.2928,2.2928,2.2928,2.2928,2.2928,2.2928,2.2926,2.306,2.2926,2.2928,2.2928,2.2993,2.306,0.0,0.0,0.0,0.7807,0.7916,0.0,0.7988,0.8655,0.9245,0.93,0.9944,1.0392,1.0101,0.9978,0.9916,0.9916,0.9978,1.0134,1.0582,1.069,1.0704,1.0649,1.069,1.0717,1.0717,1.0717,1.0717,1.0717,1.0717,1.0717,1.0717,1.0717,1.0717,1.0717,1.0717,1.0717,1.0717,1.0717,1.0717,1.0717,1.0717,1.0717,1.0717,1.0717,1.0717,1.0717,1.0717,1.0717,1.0717,1.0717,1.0717,1.0717,1.0717,1.0717,1.0717,1.0717,1.0717,1.0717,1.0717,1.0953,1.1286,1.1496,1.4147,1.7327,1.7565,2.015,2.2928,2.2928,2.2928,2.2928,2.2928,2.2928,2.2928,2.2928,2.2928,2.2928,2.2928,2.2928,2.2928,2.2928,2.2928,2.2928,2.2928,2.2928,2.2928,2.2928,2.2928,2.2928,2.2928,2.2928,2.2928,2.2928,2.2928,2.2928,2.2928,2.2928,2.2928,2.2928,2.2928,2.2928,2.2928,2.2968,2.2913,2.2913,2.3008,2.31,2.338,2.3073,2.2926,2.3035,2.3247,2.338,0.7563,0.7597,0.7672,0.778,0.7834,0.0,0.7961,0.8123,0.8404,0.8764,0.8981,0.9184,0.9462,0.951,0.951,0.951,0.951,0.9666,1.0051,1.0493,1.0588,1.0159,1.05,1.0717,1.0717,1.0717,1.0717,1.0717,1.0717,1.0717,1.0717,1.0717,1.0717,1.0717,1.0717,1.0717,1.0717,1.0717,1.0717,1.0717,1.0717,1.0717,1.0717,1.0717,1.0717,1.0717,1.0717,1.0717,1.0717,1.0717,1.0717,1.0717,1.0717,1.0717,1.0717,1.0717,1.0717,1.0717,1.0717,1.1807,1.3495,1.5115,1.7303,1.9562,2.1239,2.2327,2.2928,2.2928,2.2928,2.2928,2.2928,2.2928,2.2928,2.2928,2.2928,2.2928,2.2928,2.2928,2.2928,2.2928,2.2928,2.2928,2.2928,2.2928,2.2928,2.2928,2.2928,2.2928,2.2928,2.2928,2.2928,2.2928,2.2928,2.2928,2.2928,2.2928,2.2928,2.2928,2.2928,2.2928,2.2928,2.31,2.3233,2.3233,2.3474,2.3621,2.3688,2.338,2.3354,2.3594,2.3661,2.3688,0.7726,0.776,0.7834,0.786,0.7874,0.0,0.0,0.8164,0.8438,0.8662,0.8886,0.9049,0.9049,0.9049,0.9049,0.9049,0.9049,0.9123,0.9347,0.9964,1.0385,1.0321,1.0582,1.0717,1.0717,1.0717,1.0717,1.0717,1.0717,1.0717,1.0717,1.0717,1.0717,1.0717,1.0717,1.0717,1.0717,1.0717,1.0717,1.0717,1.0717,1.0717,1.0717,1.0717,1.0717,1.0717,1.0717,1.0717,1.0717,1.0717,1.0717,1.0717,1.0717,1.0717,1.0717,1.0717,1.0717,1.0731,1.0806,1.2127,1.4111,1.5174,1.7512,2.0161,2.1202,2.216,2.2928,2.2928,2.2928,2.2928,2.2928,2.2928,2.2928,2.2928,2.2928,2.2928,2.2928,2.2928,2.2928,2.2928,2.2928,2.2928,2.2928,2.2928,2.2928,2.2928,2.2928,2.2928,2.2928,2.2993,2.31,2.31,2.3233,2.3313,2.3313,2.3313,2.3313,2.3313,2.3313,2.3313,2.3313,2.346,2.3554,2.3554,2.3688,2.3848,2.3981,2.3834,2.3768,2.3768,2.3915,2.3981,0.7889,0.7894,0.7988,0.7988,0.7988,0.7988,0.0,0.0,0.0,0.8581,0.8872,0.9015,0.8648,0.8581,0.8581,0.8581,0.8581,0.8615,0.8696,0.9334,0.993,1.029,1.0412,1.046,1.046,1.0541,1.0629,1.0711,1.0717,1.0717,1.0717,1.0717,1.0717,1.0717,1.0717,1.0717,1.0717,1.0717,1.0717,1.0717,1.0717,1.0717,1.0717,1.0717,1.0717,1.0717,1.0717,1.0717,1.0717,1.0717,1.0717,1.0717,1.0717,1.0717,1.0717,1.0717,1.0738,1.0778,1.084,1.2475,1.4576,1.4717,1.7403,2.0617,2.0617,2.1665,2.2928,2.2928,2.2928,2.2928,2.2928,2.2928,2.2928,2.2928,2.2928,2.2928,2.2928,2.2928,2.2928,2.2928,2.2928,2.2928,2.2928,2.2928,2.2954,2.2939,2.2953,2.2979,2.3102,2.326,2.3407,2.3407,2.3621,2.3768,2.3768,2.3768,2.3768,2.3768,2.3768,2.3768,2.3768,2.3821,2.3875,2.3941,2.3941,2.4048,2.4289,2.4289,2.4168,2.3941,2.4182,2.4289,0.7968,0.7975,0.7988,0.7988,0.7988,0.7988,0.7988,0.0,0.8062,0.8062,0.0,0.8123,0.8076,0.0,0.0,0.8062,0.8062,0.8204,0.8655,0.8798,0.8879,0.8933,0.9293,0.953,0.953,0.989,1.0226,1.069,1.0717,1.0717,1.0717,1.0717,1.0717,1.0717,1.0717,1.0717,1.0717,1.0717,1.0717,1.0717,1.0717,1.0717,1.0717,1.0717,1.0717,1.0717,1.0717,1.0717,1.0717,1.0717,1.0717,1.0717,1.0717,1.0717,1.0717,1.0717,1.0806,1.086,1.0873,1.3431,1.6678,1.6698,1.9347,2.2585,2.2585,2.2722,2.2928,2.2928,2.2928,2.2928,2.2928,2.2928,2.2928,2.2928,2.2928,2.2928,2.2928,2.2928,2.2928,2.2928,2.2928,2.2928,2.2928,2.2928,2.2953,2.3233,2.3273,2.3367,2.3634,2.3701,2.3714,2.3714,2.3754,2.3768,2.3768,2.3768,2.3768,2.3768,2.3768,2.3768,2.3768,2.4022,2.4275,2.4529,2.4543,2.4556,2.4583,2.4583,2.4569,2.4543,2.4569,2.4583,0.8357,0.8425,0.8425,0.8425,0.8425,0.8425,0.8425,0.8177,0.7988,0.7988,0.0,0.0,0.0,0.0,0.0,0.0,0.7988,0.8056,0.8244,0.8271,0.8513,0.9035,0.9266,0.9483,0.9741,0.9707,0.9849,1.0233,1.0267,1.0267,1.0267,1.0582,1.0717,1.0717,1.0717,1.0717,1.0717,1.0717,1.0717,1.0717,1.0717,1.0717,1.0717,1.0717,1.0717,1.0717,1.0717,1.0717,1.0717,1.0717,1.0717,1.0717,1.0717,1.0717,1.0717,1.0717,1.0752,1.1097,1.2255,1.4618,1.7348,1.9702,2.1564,2.2928,2.2928,2.2928,2.2928,2.2928,2.2928,2.2928,2.2928,2.2928,2.2928,2.2928,2.2928,2.2928,2.2928,2.2928,2.2928,2.2928,2.2928,2.2926,2.31,2.3126,2.318,2.33,2.3474,2.3634,2.3754,2.3915,2.4022,2.4022,2.4168,2.4275,2.4275,2.4275,2.4275,2.4275,2.4275,2.4275,2.4275,2.4396,2.4516,2.4636,2.4636,2.4636,2.4636,2.4636,2.4636,2.4636,2.4636,2.4636,0.8804,0.8893,0.8866,0.8743,0.871,0.8676,0.8554,0.8224,0.7988,0.7988,0.7988,0.0,0.0,0.0,0.7988,0.0,0.0,0.7988,0.7988,0.7988,0.8231,0.8933,0.9123,0.9327,0.9593,0.9503,0.9517,0.9842,0.9916,0.9984,0.9984,1.0473,1.0717,1.0717,1.0717,1.0717,1.0717,1.0717,1.0717,1.0717,1.0717,1.0717,1.0717,1.0717,1.0717,1.0717,1.0717,1.0717,1.0717,1.0717,1.0717,1.0717,1.0717,1.0744,1.0785,1.0785,1.121,1.1969,1.3489,1.5725,1.8418,2.1808,2.2928,2.2928,2.2928,2.2928,2.2928,2.2928,2.2928,2.2928,2.2928,2.2928,2.2928,2.2928,2.2928,2.2928,2.2928,2.2928,2.2928,2.2928,2.2926,2.306,2.3287,2.3327,2.338,2.3541,2.3754,2.3915,2.3995,2.4195,2.4329,2.4329,2.4516,2.4636,2.4636,2.4636,2.4636,2.4636,2.4636,2.4636,2.4636,2.4636,2.4636,2.4636,2.4636,2.4636,2.4636,2.4636,2.4636,2.4636,2.4636,2.4636,0.9354,0.9361,0.9259,0.8818,0.871,0.8594,0.811,0.8002,0.7988,0.7988,0.7988,0.7988,0.7988,0.7988,0.0,0.0,0.0,0.0,0.0,0.7988,0.8002,0.8029,0.8465,0.8737,0.875,0.9137,0.9388,0.9401,0.9802,0.9984,0.9984,1.0473,1.0717,1.0717,1.0717,1.0717,1.0717,1.0717,1.0717,1.0717,1.0717,1.0717,1.0717,1.0717,1.0717,1.0717,1.0717,1.0717,1.0717,1.0717,1.0717,1.0717,1.0717,1.0812,1.0873,1.0873,1.218,1.3899,1.4146,1.6768,2.0328,2.2297,2.2928,2.2928,2.2928,2.2928,2.2928,2.2928,2.2928,2.2928,2.2928,2.2928,2.2928,2.2928,2.2928,2.2928,2.2928,2.2928,2.2928,2.2928,2.31,2.3313,2.3327,2.3327,2.3527,2.4088,2.4182,2.4289,2.4569,2.4549,2.4623,2.4623,2.4549,2.4636,2.4636,2.4636,2.4636,2.4636,2.4636,2.4636,2.4636,2.4636,2.4636,2.4636,2.4636,2.4636,2.4636,2.4636,2.4636,2.4636,2.4636,2.4636,0.9808,0.9822,0.9788,0.9572,0.9374,0.9117,0.896,0.8465,0.7988,0.7988,0.7988,0.7988,0.7988,0.7988,0.0,0.0,0.0,0.0,0.0,0.7988,0.7988,0.7988,0.8123,0.8384,0.8682,0.8581,0.8615,0.8913,0.9076,0.9164,0.9164,0.9808,1.0276,1.0276,1.0568,1.0717,1.0717,1.0717,1.0717,1.0717,1.0717,1.0717,1.0717,1.0717,1.0717,1.0717,1.0717,1.0717,1.0717,1.0717,1.0717,1.0717,1.0717,1.0812,1.1083,1.2344,1.339,1.4501,1.7195,1.9773,2.2091,2.2722,2.2928,2.2928,2.2928,2.2928,2.2928,2.2928,2.2928,2.2928,2.2928,2.2928,2.2928,2.2928,2.2928,2.2928,2.2928,2.2928,2.2926,2.3126,2.326,2.3447,2.3834,2.3915,2.3968,2.4168,2.4369,2.4529,2.4623,2.4636,2.4636,2.4636,2.4636,2.4636,2.4636,2.4636,2.4636,2.4636,2.4636,2.4636,2.4636,2.4636,2.4636,2.4636,2.4636,2.4636,2.4636,2.4636,2.4636,2.4636,2.4636,2.4636,1.0209,1.029,1.0186,1.0024,0.9836,0.9578,0.9415,0.8933,0.8513,0.8513,0.8513,0.8465,0.8258,0.8224,0.0,0.0,0.0,0.0,0.0,0.7988,0.7988,0.7988,0.813,0.8278,0.8459,0.8357,0.8278,0.8459,0.8621,0.871,0.871,0.9505,1.0053,1.0053,1.0487,1.0717,1.0717,1.0717,1.0717,1.0717,1.0717,1.0717,1.0717,1.0717,1.0717,1.0717,1.0717,1.0717,1.0717,1.0717,1.0717,1.0724,1.0778,1.0894,1.1227,1.3165,1.4882,1.6768,1.9992,2.1885,2.2928,2.2928,2.2928,2.2928,2.2928,2.2928,2.2928,2.2928,2.2928,2.2928,2.2928,2.2928,2.2928,2.2928,2.2928,2.2928,2.2928,2.2953,2.3086,2.3287,2.35,2.3754,2.4142,2.4289,2.4356,2.4356,2.4516,2.4636,2.4636,2.4636,2.4636,2.4636,2.4636,2.4636,2.4636,2.4636,2.4636,2.4636,2.4636,2.4636,2.4636,2.4636,2.469,2.4796,2.469,2.469,2.4796,2.469,2.4636,2.4636,2.4636,2.4636]}]]